[[{"header":{"parameterUnit":"m.s-1","parameterCategory":1,"la1":30.6,"la2":29.2853,"lo1":-89.7004,"lo2":-87.6739,"dy":0.0162,"dx":0.0183,"nx":112,"ny":82,"refTime":"2026-03-24T12:00:00:Z","depth":0,"parameterNumber":2,"parameterNumberName":"U-component_of_WINDS"},"data":[0.0,0.0,0.0,0.0,0.0,0.0,0.0,0.0,0.0,0.0,0.0,0.0,0.0,0.0,0.0,0.0,0.0,0.0,0.0,0.0,0.0,0.0,0.0,0.0,0.0,0.0,0.0,0.0,0.0,0.0,0.0,0.0,0.0,0.0,0.0,0.0,0.0,0.0,0.0,0.0,0.0,0.0,0.0,0.0,0.0,0.0,0.0,0.0,0.0,0.0,0.0,0.0,0.0,0.0,0.0,0.0,0.0,0.0,0.0,0.0,0.0,0.0,0.0,0.0,0.0,0.0,0.0,0.0,0.0,0.0,0.0,0.0,0.0,0.0,0.0,0.0,0.0,0.0,0.0,0.0,0.0,0.0,0.0,0.0,0.0,0.0,0.0,0.0,0.0,0.0,-4.4703,-4.4964,-4.6439,-4.7401,-4.7402,-4.729,-4.6157,-4.3653,0.0,0.0,0.0,0.0,0.0,0.0,0.0,0.0,0.0,0.0,0.0,0.0,0.0,0.0,0.0,0.0,0.0,0.0,0.0,0.0,0.0,0.0,0.0,0.0,0.0,0.0,0.0,0.0,0.0,0.0,0.0,0.0,0.0,0.0,0.0,0.0,0.0,0.0,0.0,0.0,0.0,0.0,0.0,0.0,0.0,0.0,0.0,0.0,0.0,0.0,0.0,0.0,0.0,0.0,0.0,0.0,0.0,0.0,0.0,0.0,0.0,0.0,0.0,0.0,0.0,0.0,0.0,0.0,0.0,0.0,0.0,0.0,0.0,0.0,0.0,0.0,0.0,0.0,0.0,0.0,0.0,0.0,0.0,0.0,0.0,0.0,0.0,0.0,0.0,0.0,0.0,0.0,0.0,0.0,0.0,0.0,0.0,0.0,0.0,0.0,0.0,0.0,0.0,0.0,-4.3356,-4.4846,-4.5909,-4.65,-4.6502,-4.6434,-4.5555,-4.3617,0.0,0.0,0.0,0.0,0.0,0.0,0.0,0.0,0.0,0.0,0.0,0.0,0.0,0.0,0.0,0.0,0.0,0.0,0.0,0.0,0.0,0.0,0.0,0.0,0.0,0.0,0.0,0.0,0.0,0.0,0.0,0.0,0.0,0.0,0.0,0.0,0.0,0.0,0.0,0.0,0.0,0.0,0.0,0.0,0.0,0.0,0.0,0.0,0.0,0.0,0.0,0.0,0.0,0.0,0.0,0.0,0.0,0.0,0.0,0.0,0.0,0.0,0.0,0.0,0.0,0.0,0.0,0.0,0.0,0.0,0.0,0.0,0.0,0.0,0.0,0.0,0.0,0.0,0.0,0.0,0.0,0.0,0.0,0.0,0.0,0.0,0.0,0.0,0.0,0.0,0.0,0.0,0.0,0.0,0.0,0.0,0.0,0.0,0.0,0.0,0.0,0.0,0.0,-4.4055,-4.4293,-4.5569,-4.6064,-4.6303,-4.6307,-4.6243,-4.5425,-4.3617,-4.3413,0.0,0.0,0.0,0.0,0.0,0.0,0.0,0.0,0.0,0.0,0.0,0.0,0.0,0.0,0.0,0.0,0.0,0.0,0.0,0.0,0.0,0.0,0.0,0.0,0.0,0.0,0.0,0.0,0.0,0.0,0.0,0.0,0.0,0.0,0.0,0.0,0.0,0.0,0.0,0.0,0.0,0.0,0.0,0.0,0.0,0.0,0.0,0.0,0.0,0.0,0.0,0.0,0.0,0.0,0.0,0.0,0.0,0.0,0.0,0.0,0.0,0.0,0.0,0.0,0.0,0.0,0.0,0.0,0.0,0.0,0.0,0.0,0.0,0.0,0.0,0.0,0.0,0.0,0.0,0.0,0.0,0.0,0.0,0.0,0.0,0.0,0.0,0.0,0.0,0.0,0.0,0.0,0.0,0.0,0.0,0.0,0.0,0.0,0.0,0.0,0.0,0.0,-4.5051,-4.556,-4.6231,-4.6296,-4.6301,-4.6305,-4.6053,-4.5228,-4.3607,-4.3249,0.0,0.0,0.0,0.0,0.0,0.0,0.0,0.0,0.0,0.0,0.0,0.0,0.0,0.0,0.0,0.0,0.0,0.0,0.0,0.0,0.0,0.0,0.0,0.0,0.0,0.0,0.0,0.0,0.0,0.0,0.0,0.0,0.0,0.0,0.0,0.0,0.0,0.0,0.0,0.0,0.0,0.0,0.0,0.0,0.0,0.0,0.0,0.0,0.0,0.0,0.0,0.0,0.0,0.0,0.0,0.0,0.0,0.0,0.0,0.0,0.0,0.0,0.0,0.0,0.0,0.0,0.0,0.0,0.0,0.0,0.0,0.0,0.0,0.0,0.0,0.0,0.0,0.0,0.0,0.0,0.0,0.0,0.0,0.0,0.0,0.0,0.0,0.0,0.0,0.0,0.0,0.0,0.0,0.0,0.0,0.0,0.0,0.0,0.0,0.0,0.0,0.0,-4.5207,-4.6222,-4.6282,-4.6309,-4.6294,-4.6294,-4.5558,-4.4628,-4.3568,-4.2733,0.0,0.0,0.0,0.0,0.0,0.0,0.0,0.0,0.0,0.0,0.0,0.0,0.0,0.0,0.0,0.0,0.0,0.0,0.0,0.0,0.0,0.0,0.0,0.0,0.0,0.0,0.0,0.0,0.0,0.0,0.0,0.0,0.0,0.0,0.0,0.0,0.0,0.0,0.0,0.0,0.0,0.0,0.0,0.0,0.0,0.0,0.0,0.0,0.0,0.0,0.0,0.0,0.0,0.0,0.0,0.0,0.0,0.0,0.0,0.0,0.0,0.0,0.0,0.0,0.0,0.0,0.0,0.0,0.0,0.0,0.0,0.0,0.0,0.0,0.0,0.0,0.0,0.0,0.0,0.0,0.0,0.0,0.0,0.0,0.0,0.0,0.0,0.0,0.0,0.0,0.0,0.0,0.0,0.0,0.0,0.0,0.0,0.0,0.0,0.0,0.0,0.0,-4.427,-4.4894,-4.5421,-4.5488,-4.5492,-4.5492,-4.5186,-4.4589,-4.3614,0.0,0.0,0.0,0.0,0.0,0.0,0.0,0.0,0.0,0.0,0.0,0.0,0.0,0.0,0.0,0.0,0.0,0.0,0.0,0.0,0.0,0.0,0.0,0.0,0.0,0.0,0.0,0.0,0.0,0.0,0.0,0.0,0.0,0.0,0.0,0.0,0.0,0.0,0.0,0.0,0.0,0.0,0.0,0.0,0.0,0.0,0.0,0.0,0.0,0.0,0.0,0.0,0.0,0.0,0.0,0.0,0.0,0.0,0.0,0.0,0.0,0.0,0.0,0.0,0.0,0.0,0.0,0.0,0.0,0.0,0.0,0.0,0.0,0.0,0.0,0.0,0.0,0.0,0.0,0.0,0.0,0.0,0.0,0.0,0.0,0.0,0.0,0.0,0.0,0.0,0.0,0.0,0.0,0.0,0.0,0.0,0.0,0.0,0.0,0.0,0.0,0.0,-4.3083,-4.3687,-4.4168,-4.4499,-4.4813,-4.4883,-4.4609,-4.4322,-4.3766,-4.2829,0.0,0.0,0.0,0.0,0.0,0.0,0.0,0.0,0.0,0.0,0.0,0.0,0.0,0.0,0.0,0.0,0.0,0.0,0.0,0.0,0.0,0.0,0.0,0.0,0.0,0.0,0.0,0.0,0.0,0.0,0.0,0.0,0.0,0.0,0.0,0.0,0.0,0.0,0.0,0.0,0.0,0.0,0.0,0.0,0.0,0.0,0.0,0.0,0.0,0.0,0.0,0.0,0.0,0.0,0.0,0.0,0.0,0.0,0.0,0.0,0.0,0.0,0.0,0.0,0.0,0.0,0.0,0.0,0.0,0.0,0.0,0.0,0.0,0.0,0.0,0.0,0.0,0.0,0.0,0.0,0.0,0.0,0.0,0.0,0.0,0.0,0.0,0.0,0.0,0.0,0.0,0.0,0.0,0.0,0.0,0.0,0.0,0.0,0.0,0.0,0.0,0.0,-4.1987,-4.362,-4.444,-4.3583,-4.4373,-4.4619,-4.3762,-4.2884,-4.1981,0.0,0.0,0.0,0.0,0.0,0.0,0.0,0.0,0.0,0.0,0.0,0.0,0.0,0.0,0.0,0.0,0.0,0.0,0.0,0.0,0.0,0.0,0.0,0.0,0.0,0.0,0.0,0.0,0.0,0.0,0.0,0.0,0.0,0.0,0.0,0.0,0.0,0.0,0.0,0.0,0.0,0.0,0.0,0.0,0.0,0.0,0.0,0.0,0.0,0.0,0.0,0.0,0.0,0.0,0.0,0.0,0.0,0.0,0.0,0.0,0.0,0.0,0.0,0.0,0.0,0.0,0.0,0.0,0.0,0.0,0.0,0.0,0.0,0.0,0.0,0.0,0.0,0.0,0.0,0.0,0.0,0.0,0.0,0.0,0.0,0.0,0.0,0.0,0.0,0.0,0.0,0.0,0.0,0.0,0.0,0.0,0.0,0.0,0.0,0.0,0.0,0.0,0.0,-4.1075,-4.2106,-4.2728,-4.2476,-4.2743,-4.287,-4.2669,-4.1925,-4.1369,-4.1097,0.0,0.0,0.0,0.0,0.0,0.0,0.0,0.0,0.0,0.0,0.0,0.0,0.0,0.0,0.0,0.0,0.0,0.0,0.0,0.0,0.0,0.0,0.0,0.0,0.0,0.0,0.0,0.0,0.0,0.0,0.0,0.0,0.0,0.0,0.0,0.0,0.0,0.0,0.0,0.0,0.0,0.0,0.0,0.0,0.0,0.0,0.0,0.0,0.0,0.0,0.0,0.0,0.0,0.0,0.0,0.0,0.0,0.0,0.0,0.0,0.0,0.0,0.0,0.0,0.0,0.0,0.0,0.0,0.0,0.0,0.0,0.0,0.0,0.0,0.0,0.0,0.0,0.0,0.0,0.0,0.0,0.0,0.0,0.0,0.0,0.0,0.0,0.0,0.0,0.0,0.0,0.0,0.0,0.0,0.0,0.0,0.0,0.0,0.0,0.0,0.0,0.0,-4.0023,-4.0829,-4.128,-4.0925,-4.128,-4.1422,-4.111,-4.0688,-4.0269,-3.9929,0.0,0.0,0.0,0.0,0.0,0.0,0.0,0.0,0.0,0.0,0.0,0.0,0.0,0.0,0.0,0.0,0.0,0.0,0.0,0.0,0.0,0.0,0.0,0.0,0.0,0.0,0.0,0.0,0.0,0.0,0.0,0.0,0.0,0.0,0.0,0.0,0.0,0.0,0.0,0.0,0.0,0.0,0.0,0.0,0.0,0.0,0.0,0.0,0.0,0.0,0.0,0.0,0.0,0.0,0.0,0.0,0.0,0.0,0.0,0.0,0.0,0.0,0.0,0.0,0.0,0.0,0.0,0.0,0.0,0.0,0.0,0.0,0.0,0.0,0.0,0.0,0.0,0.0,0.0,0.0,0.0,0.0,0.0,0.0,0.0,0.0,0.0,0.0,0.0,0.0,0.0,0.0,0.0,0.0,0.0,0.0,0.0,0.0,0.0,0.0,0.0,0.0,-3.8782,-3.9695,-4.0022,-3.9148,-3.9895,-4.0123,-3.9328,-3.9203,-3.8815,-3.8049,0.0,0.0,0.0,0.0,0.0,0.0,0.0,0.0,0.0,0.0,0.0,0.0,0.0,0.0,0.0,0.0,0.0,0.0,0.0,0.0,0.0,0.0,0.0,0.0,0.0,0.0,0.0,0.0,0.0,0.0,0.0,0.0,0.0,0.0,0.0,0.0,0.0,0.0,0.0,0.0,0.0,0.0,0.0,0.0,0.0,0.0,0.0,0.0,0.0,0.0,0.0,0.0,0.0,0.0,0.0,0.0,0.0,0.0,0.0,0.0,-4.2028,-4.2515,0.0,0.0,0.0,0.0,0.0,0.0,0.0,0.0,0.0,0.0,0.0,0.0,0.0,0.0,0.0,0.0,0.0,0.0,0.0,0.0,0.0,0.0,0.0,0.0,0.0,0.0,0.0,0.0,0.0,0.0,0.0,0.0,0.0,0.0,0.0,0.0,0.0,0.0,0.0,0.0,-3.7111,-3.8367,-3.8995,-3.8114,-3.8316,-3.843,-3.8246,-3.7692,-3.729,-3.7156,-3.5906,0.0,0.0,0.0,0.0,0.0,0.0,0.0,0.0,0.0,0.0,0.0,0.0,0.0,0.0,0.0,0.0,0.0,0.0,0.0,0.0,0.0,0.0,0.0,0.0,0.0,0.0,0.0,0.0,0.0,0.0,0.0,0.0,0.0,0.0,0.0,0.0,0.0,0.0,0.0,0.0,0.0,0.0,0.0,0.0,0.0,0.0,0.0,0.0,0.0,0.0,0.0,0.0,0.0,0.0,0.0,0.0,0.0,0.0,0.0,-4.2134,-4.2397,0.0,0.0,0.0,0.0,0.0,0.0,0.0,0.0,0.0,0.0,0.0,0.0,0.0,0.0,0.0,0.0,0.0,0.0,0.0,0.0,0.0,0.0,0.0,0.0,0.0,0.0,0.0,0.0,0.0,0.0,0.0,0.0,0.0,0.0,0.0,0.0,0.0,0.0,0.0,0.0,-3.6516,-3.7526,-3.7984,-3.7126,-3.7118,-3.7185,-3.7171,-3.6868,-3.6663,-3.6715,-3.5525,0.0,0.0,0.0,0.0,0.0,0.0,0.0,0.0,0.0,0.0,0.0,0.0,0.0,0.0,0.0,0.0,0.0,0.0,0.0,0.0,0.0,0.0,0.0,0.0,0.0,0.0,0.0,0.0,0.0,0.0,0.0,0.0,0.0,0.0,0.0,0.0,0.0,0.0,0.0,0.0,0.0,0.0,0.0,0.0,0.0,0.0,0.0,0.0,0.0,0.0,0.0,0.0,0.0,-4.2681,-4.2805,-4.2821,-4.3342,-4.3665,-4.3742,-4.2668,-4.2701,-4.3498,-4.2924,0.0,0.0,0.0,0.0,0.0,0.0,0.0,0.0,0.0,0.0,0.0,0.0,0.0,0.0,0.0,0.0,0.0,0.0,0.0,0.0,0.0,0.0,-3.8077,-3.7424,-3.7155,-3.7106,-3.741,0.0,0.0,0.0,0.0,0.0,0.0,0.0,0.0,0.0,0.0,0.0,-3.6196,-3.6843,-3.7053,-3.6177,-3.6128,-3.6174,-3.6174,-3.6228,-3.6273,-3.6273,-3.5541,-3.457,0.0,0.0,0.0,0.0,0.0,0.0,0.0,0.0,0.0,0.0,0.0,0.0,0.0,0.0,0.0,0.0,0.0,0.0,0.0,0.0,0.0,0.0,0.0,0.0,0.0,0.0,0.0,0.0,0.0,0.0,0.0,0.0,-4.2072,-4.1518,0.0,0.0,0.0,0.0,0.0,0.0,0.0,0.0,0.0,0.0,0.0,0.0,0.0,-4.0739,-4.1566,-4.216,-4.2142,-4.1584,-4.2969,-4.3652,-4.3634,-4.3041,-4.3129,-4.376,-4.2902,0.0,-4.3702,-4.2929,0.0,0.0,0.0,0.0,0.0,0.0,0.0,0.0,0.0,0.0,0.0,0.0,0.0,0.0,0.0,0.0,0.0,0.0,0.0,0.0,0.0,0.0,-3.7753,-3.6976,-3.6761,-3.658,-3.5955,-3.6098,-3.5927,-3.4507,-3.4797,-3.5132,0.0,0.0,0.0,0.0,0.0,0.0,-3.5359,-3.5968,-3.6158,-3.5359,-3.5273,-3.5273,-3.5273,-3.5281,-3.5281,-3.5281,-3.4478,-3.4238,-3.4791,-3.28,0.0,0.0,0.0,0.0,0.0,0.0,0.0,0.0,0.0,0.0,0.0,0.0,0.0,0.0,0.0,0.0,0.0,0.0,0.0,0.0,0.0,0.0,0.0,0.0,0.0,0.0,0.0,0.0,0.0,-4.199,-4.2254,-4.107,-4.2107,-4.2486,0.0,0.0,0.0,0.0,0.0,0.0,0.0,0.0,0.0,-4.2163,-4.0682,-4.045,-4.1679,-4.1613,-4.1635,-4.1741,-4.2449,-4.2994,-4.3381,-4.3029,-4.3065,-4.3381,-4.3029,-4.2853,-4.274,-4.2152,-4.155,-4.085,0.0,0.0,0.0,0.0,-3.7951,-3.7933,-3.7916,-3.7899,-3.7792,-3.7059,0.0,0.0,0.0,0.0,0.0,0.0,0.0,-3.6951,-3.7041,-3.7059,-3.6844,-3.6056,-3.5859,-3.5662,-3.4875,-3.5229,-3.5423,-3.4521,-3.4646,-3.4765,-3.4302,-3.423,0.0,0.0,0.0,-3.549,-3.469,-3.49,-3.4816,-3.4007,-3.3559,-3.3287,-3.324,-3.3693,-3.3976,-3.3976,-3.4031,-3.4021,-3.3927,-3.2852,-3.2005,0.0,0.0,0.0,0.0,0.0,0.0,0.0,0.0,0.0,0.0,0.0,0.0,0.0,0.0,0.0,0.0,0.0,0.0,0.0,0.0,0.0,0.0,0.0,0.0,0.0,0.0,0.0,0.0,-4.1764,-4.2125,-4.0605,-4.1783,-4.2277,0.0,0.0,0.0,0.0,0.0,0.0,-4.0308,-4.0162,-4.0662,-4.1878,-4.0795,-4.0817,-4.2117,-4.1574,-4.1495,-4.1898,-4.1923,-4.2223,-4.2807,-4.2617,-4.2617,-4.2807,-4.26,-4.2196,-4.1698,-4.1683,-4.1491,-4.1085,-4.0016,-3.9335,-3.885,-3.8204,-3.7774,-3.7504,-3.7485,-3.7467,-3.7305,-3.6349,-3.5918,-3.5652,-3.4927,0.0,0.0,0.0,0.0,-3.6269,-3.6126,-3.6006,-3.5723,-3.4959,-3.4833,-3.467,-3.3955,-3.4222,-3.4536,-3.4243,-3.4238,-3.4171,-3.3925,-3.3718,0.0,-3.4056,-3.4612,-3.473,-3.3931,-3.3856,-3.3564,-3.2776,-3.2199,-3.184,-3.1803,-3.259,-3.3067,-3.3067,-3.3829,-3.3974,-3.3328,-3.3093,-3.2404,-3.1201,0.0,0.0,0.0,0.0,0.0,0.0,0.0,0.0,0.0,0.0,0.0,0.0,0.0,0.0,0.0,0.0,0.0,0.0,0.0,0.0,0.0,0.0,0.0,0.0,0.0,0.0,0.0,0.0,0.0,-3.9545,-4.0977,0.0,0.0,0.0,0.0,-4.2509,-4.2781,-4.2563,-4.1822,-4.1788,-4.1847,-4.1988,-4.1847,-4.21,-4.2748,-4.2705,-4.2327,-4.1633,-4.1665,-4.1815,-4.2023,-4.1274,-4.1326,-4.2006,-4.1257,-4.0888,-4.0953,-4.1998,-4.1697,-4.057,-4.0864,-3.9959,-3.8414,-3.8245,-3.7456,-3.6464,-3.6319,-3.6295,-3.6277,-3.6222,-3.5735,-3.5266,-3.5904,-3.5108,0.0,0.0,-3.52,-3.4323,-3.5074,-3.4946,-3.4422,-3.3758,-3.3775,-3.3785,-3.3116,-3.2989,-3.3023,-3.3082,-3.308,-3.3188,-3.3462,0.0,-3.2783,-3.3666,-3.3904,-3.3722,-3.2962,-3.2931,-3.2688,-3.1931,-3.1831,-3.1804,-3.1804,-3.2545,-3.3018,-3.3018,-3.3757,-3.4191,-3.4135,-3.3331,-3.2873,-3.2799,-3.1333,0.0,0.0,0.0,0.0,0.0,0.0,0.0,0.0,0.0,0.0,0.0,0.0,0.0,0.0,0.0,0.0,0.0,0.0,0.0,0.0,0.0,0.0,0.0,0.0,0.0,0.0,0.0,0.0,-3.9857,-4.1481,0.0,-4.0426,-4.0436,-4.0427,-4.0211,-4.1149,-4.1393,-4.0658,-4.1466,-4.1766,-4.137,-4.1316,-4.1188,-4.0938,-4.0921,-4.0554,-3.9794,-3.9804,-3.9874,-3.9943,-3.9649,-3.9666,-3.9926,-3.9649,-3.9506,-3.9575,-4.0223,-4.059,-4.0659,-4.0284,-3.9447,-3.839,-3.7822,-3.704,-3.6256,-3.6232,-3.6194,-3.613,-3.5803,-3.498,-3.4169,-3.4336,-3.3712,-3.3088,-3.3869,-3.3761,-3.343,-3.3399,-3.3341,-3.3116,-3.2377,-3.2295,-3.2178,-3.155,-3.1427,-3.1304,-3.0846,-3.1523,-3.2225,-3.2373,-3.2198,-3.2329,-3.3223,-3.2972,-3.2579,-3.2315,-3.1401,-3.068,-3.0414,-2.9922,-2.9818,-3.0347,-3.1117,-3.181,-3.2324,-3.3075,-3.3494,-3.3494,-3.3189,-3.2825,-3.2333,-3.1769,-3.0956,0.0,0.0,0.0,0.0,0.0,0.0,0.0,0.0,0.0,0.0,0.0,0.0,0.0,0.0,0.0,0.0,0.0,0.0,0.0,0.0,0.0,0.0,0.0,0.0,0.0,-4.0894,-4.1622,-4.041,-4.1737,-4.2149,-4.0667,-4.0381,-4.0136,-3.9834,-4.0545,-4.077,-4.0295,-4.0918,-4.1213,-4.1016,-4.077,-4.0496,-4.0161,-3.996,-3.96,-3.9098,-3.8853,-3.8766,-3.8805,-3.8805,-3.8805,-3.8805,-3.8805,-3.8805,-3.8799,-3.884,-3.9233,-3.977,-3.9508,-3.8905,-3.8042,-3.7268,-3.6406,-3.5627,-3.5627,-3.5627,-3.556,-3.5214,-3.4542,-3.3846,-3.3505,-3.3088,-3.2748,-3.2734,-3.2624,-3.2417,-3.2093,-3.1996,-3.1834,-3.1368,-3.1156,-3.0961,-3.0572,-3.0298,-2.992,-2.9162,-2.9937,-3.0911,-3.1504,-3.1439,-3.1711,-3.2862,-3.2394,-3.1832,-3.1595,-3.0391,-2.9471,-2.9229,-2.8716,-2.8734,-2.9525,-3.0334,-3.1124,-3.1948,-3.2688,-3.3101,-3.3101,-3.3101,-3.2868,-3.2382,-3.2131,-3.1009,-2.9001,0.0,0.0,0.0,0.0,0.0,0.0,0.0,0.0,0.0,0.0,0.0,0.0,0.0,0.0,0.0,0.0,0.0,0.0,0.0,0.0,0.0,0.0,0.0,-3.9646,-4.1043,-4.1681,-4.1043,-4.1579,-4.1912,-4.1762,-4.1275,-4.1174,-4.1662,-4.121,-4.0934,-4.0918,-4.0279,-4.0218,-4.0893,-4.0267,-4.0161,-4.0622,-4.0,-3.9675,-3.9646,-3.893,-3.8655,-3.8805,-3.8805,-3.8805,-3.8805,-3.8745,-3.8745,-3.8707,-3.8019,-3.774,-3.7847,-3.8705,-3.8355,-3.7267,-3.6611,-3.5575,-3.4497,-3.4497,-3.4497,-3.4497,-3.4497,-3.448,-3.4333,-3.3629,-3.3359,-3.3179,-3.2531,-3.181,-3.1254,-3.1254,-3.0967,-3.0675,-3.073,-3.0454,-3.0158,-3.0183,-2.9639,-2.8904,-2.8169,-2.8397,-2.9224,-3.0826,-3.068,-3.0886,-3.2547,-3.2119,0.0,-3.0728,-2.9951,-2.9173,-2.8492,-2.8398,-2.8739,-2.9583,-3.0352,-3.1106,-3.1933,-3.2637,-3.2999,-3.305,-3.3034,-3.3019,-3.3019,-3.228,-3.0523,-2.7783,0.0,0.0,0.0,0.0,0.0,0.0,0.0,0.0,0.0,0.0,0.0,0.0,0.0,0.0,0.0,0.0,0.0,0.0,0.0,0.0,0.0,-3.8279,-3.8905,-3.8874,-3.9579,-4.0194,-4.0404,-4.1151,-4.1373,-4.0766,-4.0656,-4.0274,-3.9388,-3.969,-3.9686,-3.915,-3.9897,-3.9949,-3.9137,-3.9901,-3.9933,-3.9048,-3.9385,-3.9304,-3.8756,-3.8545,-3.8476,-3.8504,-3.8504,-3.8504,-3.8472,-3.7936,-3.7708,-3.766,-3.6978,-3.6702,-3.6755,-3.7188,-3.6836,-3.6075,-3.5894,-3.5268,-3.4497,-3.4497,-3.4497,-3.4472,-3.4399,-3.3991,-3.351,-3.3258,-3.243,-3.1554,-3.1359,-3.0829,-3.0282,-3.0282,-3.0201,-3.001,-2.9592,-2.9416,-2.9072,-2.8113,-2.7753,-2.7387,-2.6656,-2.6772,-2.742,-2.8781,-2.8895,-2.9185,-3.0259,-2.9788,-2.9311,-2.9323,-2.8661,-2.8425,-2.8984,-2.8562,-2.9019,-3.0963,-3.0302,-3.0355,-3.1696,-3.1211,-3.1087,-3.1637,-3.1423,-3.1305,-3.1305,-3.0029,-2.8708,0.0,0.0,0.0,0.0,0.0,0.0,0.0,0.0,0.0,0.0,0.0,0.0,0.0,0.0,0.0,0.0,0.0,0.0,0.0,0.0,0.0,0.0,-3.8007,-3.8492,-3.8376,-3.9226,-3.9915,-4.0251,-4.0511,-4.049,-4.0008,-3.9702,-3.9244,-3.8501,-3.874,-3.8917,-3.8861,-3.9331,-3.9509,-3.9282,-3.9493,-3.9379,-3.8861,-3.8974,-3.8812,-3.8391,-3.8391,-3.8391,-3.8391,-3.8084,-3.7954,-3.7906,-3.7209,-3.6875,-3.6837,-3.6125,-3.5833,-3.5859,0.0,0.0,0.0,0.0,-3.4683,-3.4276,-3.4023,-3.3925,-3.3852,-3.347,-3.3055,-3.2642,-3.2295,-3.1568,-3.0839,-3.0571,-3.0204,-2.9896,-2.9896,-2.967,-2.9351,-2.9004,-2.8473,-2.7826,-2.7039,-2.6635,-2.6273,-2.5849,-2.5899,0.0,-2.7025,-2.7675,-2.8407,-2.9248,-2.8749,-2.8334,-2.8497,-2.7867,-2.7646,-2.827,-2.8012,-2.8461,-3.0164,-2.9512,0.0,0.0,0.0,-3.0435,-3.0871,-3.0422,0.0,0.0,0.0,0.0,0.0,-2.7674,0.0,0.0,-2.8013,-2.8041,0.0,0.0,0.0,0.0,0.0,0.0,0.0,0.0,0.0,0.0,0.0,0.0,0.0,0.0,0.0,0.0,-3.7243,-3.7519,-3.8055,-3.9209,-4.0032,-4.0136,-3.9683,-3.9321,-3.9249,-3.8558,-3.8152,-3.8258,-3.8107,-3.8335,-3.9095,-3.8588,0.0,0.0,0.0,-3.8642,-3.9318,-3.863,-3.8278,-3.8278,-3.8278,-3.8258,-3.8161,-3.7503,-3.7164,-3.7062,-3.6427,-3.6147,-3.6098,-3.5364,-3.5082,-3.5082,-3.5082,-3.5082,-3.5001,-3.4327,-3.4052,-3.389,-3.3315,0.0,0.0,-3.2222,-3.1947,-3.1769,-3.1098,-3.0856,-3.0645,-3.0075,-2.9896,-2.988,-2.9783,-2.9297,-2.8762,-2.8595,-2.7608,-2.6685,-2.6587,-2.6069,-2.5597,-2.5597,-2.5597,-2.5619,-2.568,-2.6831,-2.798,-2.8714,-2.8271,-2.7862,-2.7879,-2.7331,-2.6971,-2.7088,-2.7135,0.0,-2.8419,-2.8333,-2.854,-2.9298,-2.992,-3.0228,-3.0193,-2.9575,-2.8853,-2.8083,-2.8682,-2.8457,-2.7318,-2.804,-2.7854,-2.6885,-2.6961,-2.6957,0.0,0.0,0.0,0.0,0.0,0.0,0.0,0.0,0.0,0.0,0.0,0.0,0.0,0.0,0.0,-3.6085,-3.688,-3.7596,-3.7711,-3.7529,-3.7696,-3.8471,-3.8597,-3.836,-3.7713,-3.7648,-3.7389,-3.6848,-3.6769,-3.6815,-3.6986,-3.7255,-3.7603,-3.7991,-3.7886,-3.7969,-3.821,-3.7804,-3.7594,-3.7594,-3.7594,0.0,-3.6781,-3.6654,-3.6329,-3.5895,-3.5316,-3.5133,-3.5217,-3.4577,-3.4311,-3.4311,-3.4311,-3.4311,-3.4295,-3.4149,-3.3761,-3.3259,-3.3129,-3.2708,-3.219,-3.206,-3.1584,-3.1082,-3.0953,-3.0522,0.0,-2.9929,-2.9896,-2.9751,-2.9167,-2.8924,-2.8498,-2.7365,-2.6895,-2.6539,-2.5937,-2.5694,-2.5597,-2.5597,-2.5597,-2.5597,-2.5619,-2.5905,-2.6241,-2.6497,-2.6416,-2.6406,-2.6619,-2.6554,-2.686,-2.7709,-2.7297,-2.7518,-2.8922,-2.7911,-2.7534,-2.8322,-2.82,-2.798,-2.7715,-2.7547,-2.7398,-2.7245,-2.68,-2.6447,-2.6206,-2.6354,-2.6317,-2.6129,-2.6722,-2.668,0.0,0.0,0.0,0.0,0.0,0.0,0.0,0.0,0.0,0.0,0.0,-3.5892,-3.5475,0.0,-3.6794,-3.6668,-3.7158,-3.7625,-3.7625,-3.7082,-3.6868,-3.7354,-3.695,-3.6452,-3.6029,-3.604,-3.5939,-3.5657,-3.5882,-3.6025,-3.6104,-3.6353,-3.6523,-3.6615,-3.6707,-3.6768,-3.6843,-3.6691,-3.6615,-3.6615,-3.6289,-3.5963,-3.5636,-3.4953,-3.4514,-3.4226,-3.3599,-3.3563,-3.3868,-3.365,-3.3413,-3.3245,-3.3245,-3.3601,-3.4101,-3.4101,-3.368,-3.3032,-3.2676,-3.2077,-3.139,-3.1056,-3.0684,-3.0393,-3.0393,-3.0172,-2.9896,-2.9896,-2.9896,-2.9815,-2.9443,-2.8811,-2.8061,-2.7365,-2.6668,-2.6053,-2.5678,-2.5597,-2.5597,-2.5597,-2.5597,-2.5597,-2.5597,-2.5637,-2.5677,-2.5731,-2.5749,-2.5805,-2.5936,-2.6012,-2.6253,-2.6779,-2.6584,-2.6703,-2.7476,-2.6838,-2.6737,-2.7492,-2.701,-2.6792,-2.6981,-2.6653,-2.6419,-2.6365,-2.5987,-2.5789,-2.5749,-2.5749,-2.5749,-2.5766,-2.6124,-2.6129,0.0,0.0,0.0,0.0,0.0,0.0,0.0,0.0,-3.536,-3.5182,-3.5646,-3.6031,-3.5852,-3.6351,-3.6921,-3.7253,-3.7424,-3.7457,-3.7457,-3.6855,-3.6399,-3.6399,-3.5446,-3.476,-3.4646,-3.4539,-3.4524,-3.4691,-3.5073,-3.5337,-3.5422,-3.5503,-3.5599,-3.5631,-3.5663,-3.5695,-3.5726,-3.5663,-3.557,-3.5435,-3.4969,-3.4575,-3.4288,-3.3229,-3.2654,-3.2532,-3.2061,-3.2142,-3.261,-3.2589,-3.2423,-3.2155,-3.2016,-3.253,-3.3363,-3.36,-3.3183,-3.2442,-3.1814,-3.1153,-3.0445,-2.9814,-2.9598,-2.9598,-2.9665,-2.9726,-2.977,-2.9836,-2.9896,-2.9864,-2.9718,-2.8692,-2.7672,-2.7543,-2.6519,-2.5597,-2.5597,-2.5597,-2.5597,-2.5597,-2.5597,-2.5597,-2.5597,-2.5597,-2.5597,-2.5597,-2.5597,-2.5597,-2.5597,-2.564,-2.568,-2.568,-2.5789,-2.5842,-2.5842,-2.5842,-2.6087,-2.6676,-2.6169,-2.6104,-2.6692,-2.6153,-2.5789,-2.568,-2.568,-2.5659,-2.5597,-2.5597,-2.5543,-2.5467,-2.5524,-2.5602,-3.2113,-3.1465,-3.155,-3.2973,-3.3508,-3.3994,0.0,0.0,-3.6519,-3.6482,-3.6982,-3.7163,-3.6443,-3.6817,-3.6995,-3.6362,-3.6704,-3.707,-3.707,-3.6109,-3.5362,-3.5362,-3.5031,-3.4603,-3.4039,-3.3994,-3.3985,-3.402,-3.4054,-3.4108,-3.4108,-3.4509,-3.4828,-3.5008,-3.5109,-3.5272,-3.5449,-3.5157,-3.4744,-3.4199,-3.414,-3.3471,-3.2315,-3.2167,-3.1827,-3.1409,-3.1623,-3.1821,-3.1957,-3.1372,-3.1197,-3.1278,-3.0676,-3.052,-3.0768,-3.1846,-3.1476,-3.0426,-3.0275,-2.9824,-2.9208,-2.8669,-2.8472,-2.8543,-2.8904,-2.909,-2.925,-2.9614,-2.9808,-2.9734,-2.9102,-2.8304,-2.7559,-2.6944,-2.6199,-2.5597,-2.5597,-2.5597,-2.5597,-2.5597,-2.5597,-2.5597,-2.5597,-2.5597,-2.5597,-2.5597,-2.5597,-2.5597,-2.5597,-2.5616,-2.5616,-2.5616,-2.5619,-2.5635,-2.5635,-2.5635,-2.5667,-2.5748,-2.5667,-2.5667,-2.5748,-2.5667,-2.5635,-2.5616,-2.5616,-2.5616,-2.5597,-2.5597,-2.5394,-2.4997,-2.5266,-2.5489,-3.068,-3.1003,-3.1733,-3.2068,-3.2462,-3.306,-3.4149,-3.4453,-3.4628,-3.514,-3.5839,-3.6068,-3.5263,-3.6012,-3.6557,-3.5951,-3.642,-3.685,-3.6978,-3.5963,-3.5189,-3.5189,-3.475,-3.42,-3.3592,-3.3536,-3.3536,-3.3536,-3.3536,-3.3536,-3.3536,-3.375,-3.3894,-3.3977,-3.4031,-3.4085,-3.4167,-3.3705,-3.3336,-3.3063,-3.2302,-3.1671,-3.1123,-3.0764,-3.0479,-3.0297,-3.0778,-3.0676,-3.0163,-3.0227,-2.9944,-2.9437,-2.9156,-2.8817,-2.8714,-3.0359,-3.0299,-2.9407,-2.9363,-2.8931,-2.836,-2.8143,-2.807,-2.8094,-2.828,-2.8352,-2.8496,-2.8881,-2.9044,-2.9073,-2.8984,-2.8423,-2.7726,-2.7024,-2.6338,-2.5751,-2.5378,-2.5371,-2.5429,-2.5486,-2.5543,-2.5597,-2.5597,-2.5597,-2.5597,-2.5597,-2.5597,-2.5597,-2.5597,-2.5597,-2.5597,-2.5597,-2.5597,-2.5597,-2.5597,-2.5597,-2.5597,-2.5597,-2.5597,-2.5597,-2.5597,-2.5597,-2.5467,-2.5188,-2.5188,-2.5088,-2.4831,-2.4771,-2.4634,-2.4436,-2.4502,-2.4558,-2.9522,-3.0357,-3.1266,-3.1264,-3.1732,-3.2385,-3.3171,-3.3212,-3.3224,-3.3886,-3.4452,-3.4751,-3.4319,-3.5101,-3.579,-3.5642,-3.6071,-3.6522,-3.6875,-3.5939,-3.5245,-3.5428,-3.4562,-3.3852,-3.3557,-3.3543,-3.3473,-3.329,-3.329,-3.329,-3.329,-3.329,-3.329,-3.329,-3.329,-3.3206,-3.3073,-3.2623,-3.223,-3.1878,-3.0933,-3.0399,-3.0231,-2.9813,-2.9602,-2.9634,-2.9883,-2.957,-2.8843,-2.8929,-2.8555,-2.784,-2.7698,-2.7356,-2.7137,-2.8545,-2.8789,-2.8393,-2.8353,-2.8052,-2.765,-2.7515,-2.7464,-2.7489,-2.7575,-2.765,-2.775,-2.8158,-2.8304,-2.8415,-2.8693,-2.8107,-2.7295,-2.6817,-2.6051,-2.5326,-2.4989,-2.4993,-2.5068,-2.5095,-2.5188,-2.5243,-2.5201,-2.5259,-2.5317,-2.5317,-2.5429,-2.554,-2.5597,-2.5597,-2.5597,-2.5597,-2.5597,-2.5597,-2.5597,-2.5597,-2.5543,-2.5413,-2.5413,-2.5355,-2.5256,-2.524,-2.5068,-2.4699,-2.4684,-2.4517,-2.4183,-2.4099,-2.3979,-2.3852,-2.3858,-2.3815,-2.8592,-2.8882,-2.9255,-3.0735,-3.1671,-3.2225,-3.2392,-3.2958,-3.3471,-3.351,-3.3551,-3.3721,-3.4201,-3.4347,-3.4568,-3.5304,-3.5575,-3.5964,-3.6628,-3.5825,-3.5414,-3.6005,-3.445,-3.3543,-3.4119,-3.4175,-3.3922,-3.3333,-3.329,-3.329,-3.329,-3.329,-3.329,-3.329,-3.329,-3.3031,-3.244,-3.2412,-3.1794,-3.0554,-3.0512,-3.0175,-2.9645,-2.9617,-2.9602,-2.9574,-2.9015,-2.8733,-2.8591,-2.7397,-2.6948,-2.6975,-2.6408,-2.6153,-2.6139,-2.6207,-2.6606,-2.7152,-2.7008,-2.7019,-2.7045,-2.6513,-2.6367,-2.6433,-2.6811,-2.7004,-2.721,-2.761,-2.7824,-2.7923,-2.7923,-2.6951,-2.5963,-2.5948,-2.493,-2.4042,-2.4364,-2.443,-2.443,-2.443,-2.443,-2.4384,-2.4168,-2.4415,-2.4623,-2.4623,-2.5029,-2.5371,-2.5578,-2.5597,-2.5597,-2.5597,-2.5597,-2.5597,-2.5597,-2.5597,-2.5413,-2.4942,-2.4922,-2.4739,-2.4364,-2.4343,-2.4281,-2.4141,-2.4105,-2.4042,-2.39,-2.39,-2.3672,-2.3238,-2.3565,-2.3543,-2.8521,-2.8843,-2.933,-3.0226,-3.0358,-3.0469,-3.1247,-3.1306,-3.1534,-3.2605,-3.292,-3.3003,-3.3089,-3.3558,-3.3898,-3.3801,-3.4607,-3.544,-3.5977,-3.5776,-3.5703,-3.6051,-3.5203,-3.4464,-3.4217,-3.3838,-3.3515,-3.3304,-3.329,-3.329,-3.329,-3.329,-3.329,-3.329,-3.2918,-3.2623,-3.2412,-3.1569,-3.0905,-3.0498,-3.0076,-2.9813,-2.9602,-2.9602,-2.9378,-2.8984,-2.8788,-2.8226,-2.7411,-2.6989,-2.6596,-2.6244,-2.606,-2.5975,-2.5975,-2.5975,-2.6096,-2.6312,-2.6244,-2.6285,-2.6285,-2.6084,-2.6029,-2.6056,-2.6204,-2.627,-2.6377,-2.6797,-2.6927,-2.703,-2.7312,-2.7036,-2.6485,-2.5622,-2.5086,-2.4566,-2.3889,-2.38,-2.3885,-2.3933,-2.4012,-2.4048,-2.3985,-2.4069,-2.4131,-2.4131,-2.4522,-2.4895,-2.5048,-2.4886,-2.4811,-2.5048,-2.4871,-2.4791,-2.4934,-2.4387,-2.3888,-2.3654,-2.3634,-2.3574,-2.3448,-2.3834,-2.3858,-2.3515,-2.35,-2.3341,-2.3038,-2.2957,-2.2822,-2.2663,-2.2686,-2.264,-2.851,-2.9027,-2.9617,-2.9773,-2.9833,-2.9941,-3.0242,-3.0338,-3.0663,-3.1709,-3.1831,-3.1846,-3.2159,-3.2481,-3.2762,-3.2852,-3.3898,-3.4868,-3.5481,-3.5721,-3.5878,-3.6079,-3.5372,-3.4674,-3.4231,-3.3641,-3.329,-3.329,-3.329,-3.329,-3.329,-3.329,-3.3178,-3.3002,-3.2609,-3.2188,-3.1738,-3.0905,-3.0385,-3.0161,-2.9799,-2.9602,-2.9602,-2.9378,-2.9069,-2.8661,-2.8212,-2.7565,-2.6793,-2.6582,-2.6245,-2.5893,-2.5893,-2.5893,-2.5893,-2.5893,-2.5893,-2.5893,-2.5893,-2.5893,-2.5893,-2.5893,-2.5893,-2.5893,-2.5893,-2.5893,-2.5948,-2.6204,-2.6285,-2.6351,-2.6616,-2.6521,-2.6144,-2.5332,-2.4781,-2.4287,-2.364,-2.3386,-2.3297,-2.3326,-2.3413,-2.345,-2.3384,-2.3471,-2.3601,-2.3773,-2.3921,-2.4095,-2.4436,-2.4287,-2.4245,-2.4456,-2.4287,-2.4224,-2.4338,-2.381,-2.334,-2.3098,-2.3077,-2.3014,-2.2861,-2.3241,-2.3275,-2.292,-2.292,-2.2754,-2.2463,-2.237,-2.2324,-2.2324,-2.2254,-2.2208,-2.8507,-2.9215,-2.9863,-2.9407,-3.0032,-3.0543,-2.9593,-3.0158,-3.0879,-3.0915,-3.0494,-3.0434,0.0,-3.1259,-3.1252,-3.2414,-3.3348,-3.4246,-3.5182,-3.5566,-3.5882,-3.6083,-3.504,-3.4245,-3.4245,-3.3655,-3.329,-3.329,-3.329,-3.329,-3.329,-3.3262,-3.3002,-3.2426,-3.2342,-3.1738,-3.0498,-3.0455,-3.0161,-2.9602,-2.9602,-2.9588,-2.9532,-2.8956,-2.8661,-2.8535,-2.7326,-2.6793,-2.6722,-2.6132,-2.5893,-2.5893,-2.5893,-2.5893,-2.5893,-2.5893,-2.5893,-2.5893,-2.5893,-2.5893,-2.5893,-2.5893,-2.5893,-2.5893,-2.5893,-2.5893,-2.5893,-2.5893,-2.5893,-2.5893,-2.5893,-2.5472,-2.5049,-2.5021,-2.4067,-2.3265,-2.3607,-2.3175,-2.2715,-2.2686,-2.2672,-2.2618,-2.2417,-2.2655,-2.3024,-2.3465,-2.3157,-2.3113,-2.3773,-2.3837,-2.3837,-2.3858,-2.3837,-2.3837,-2.3858,-2.3806,-2.3584,-2.3128,-2.3106,-2.2943,-2.2558,-2.2563,-2.2509,-2.2394,-2.2394,-2.2324,-2.2208,-2.2208,-2.2208,-2.2208,-2.2208,-2.2208,-2.8777,-2.8678,-2.8627,-2.9212,-2.9272,-2.9361,-3.0053,-3.0429,-3.0771,-3.1384,-3.1091,-3.0802,-3.1067,-3.1007,-3.1002,-3.1319,-3.2308,-3.333,-3.4204,-3.5007,-3.5746,-3.647,-3.5611,-3.4964,-3.4964,-3.3958,-3.329,-3.329,-3.329,-3.329,-3.329,-3.289,-3.2567,-3.2412,-3.1499,-3.082,-3.0498,-3.0066,-2.9757,-2.9602,-2.9602,-2.9364,-2.8914,-2.8759,-2.8183,-2.727,-2.6947,-2.654,-2.6118,-2.595,-2.5893,-2.5893,-2.5893,-2.5893,-2.5893,-2.5893,-2.5893,-2.5893,-2.5893,-2.5893,-2.5893,-2.5893,-2.5893,-2.5893,-2.5893,-2.5893,-2.5893,-2.5893,-2.5893,-2.5893,-2.5893,-2.5781,-2.5542,-2.5119,-2.4753,-2.4287,-2.3455,-2.3116,-2.2861,-2.2418,-2.2333,-2.231,-2.2254,-2.231,-2.2426,-2.254,-2.2449,-2.2595,-2.3224,-2.3083,-2.3038,-2.3268,-2.3068,-2.2979,-2.3143,-2.2527,-2.2024,-2.1796,-2.1796,-2.1729,-2.1631,-2.2061,-2.2301,-2.2254,-2.2254,-2.2231,-2.2208,-2.2208,-2.2208,-2.2208,-2.2208,-2.2208,-2.8636,-2.8531,-2.8474,-2.8957,-2.9051,-2.9283,-3.0003,-3.0312,-3.0588,-3.092,-3.0555,-3.0254,-3.0494,-3.053,-3.0718,-3.1187,-3.208,-3.3002,-3.3789,-3.4667,-3.5359,-3.578,-3.535,-3.498,-3.4773,-3.3888,-3.329,-3.329,-3.329,-3.329,-3.329,-3.2736,-3.2286,-3.2005,-3.1036,-3.0357,-3.0091,-2.9785,-2.9602,-2.9602,-2.9602,-2.9279,-2.8689,-2.8689,-2.8001,-2.6807,-2.6807,-2.6469,-2.5893,-2.5893,-2.5893,-2.5893,-2.5893,-2.5893,-2.5893,-2.5893,-2.5893,-2.5893,-2.5893,-2.5893,-2.5893,-2.5893,-2.5893,-2.5893,-2.5893,-2.5893,-2.5893,-2.5893,-2.5893,-2.5893,-2.5893,-2.5893,-2.5739,-2.5147,-2.5006,-2.4655,-2.3364,-2.3097,-2.2915,-2.232,-2.2208,-2.2208,-2.2208,-2.2208,-2.2208,-2.2208,-2.2208,-2.231,-2.2655,-2.2555,-2.2509,-2.2678,-2.2555,-2.2486,-2.2572,-2.2104,-2.1784,-2.1687,-2.1687,-2.1687,-2.1687,-2.2025,-2.2208,-2.2208,-2.2208,-2.2208,-2.2208,-2.2208,-2.2208,-2.2208,-2.2208,-2.2208,-2.8298,-2.8519,-2.8828,-2.8633,-2.9063,-2.9579,-2.9706,-3.005,-3.0295,-3.014,0.0,-2.9436,-2.9893,-2.9977,-3.0302,-3.1332,0.0,-3.2742,-3.3552,-3.4305,-3.4738,-3.4725,-3.4698,-3.4557,-3.4298,-3.3697,-3.329,-3.329,-3.322,-3.3164,-3.3164,-3.2539,-3.1878,-3.126,-3.0684,-3.0119,-2.9617,-2.9602,-2.9602,-2.9602,-2.9532,-2.9167,-2.8577,-2.8478,-2.7804,-2.6694,-2.6694,-2.6385,-2.5893,-2.5893,-2.5893,-2.5893,-2.5893,-2.5893,-2.5893,-2.5893,-2.5893,-2.5893,-2.5893,-2.5893,-2.5893,-2.5893,-2.5893,-2.5893,-2.5893,-2.5893,-2.5893,-2.5893,-2.5893,-2.5893,-2.5893,-2.5893,-2.5739,-2.5147,-2.5006,-2.4655,-2.3364,-2.3041,-2.2817,-2.2306,-2.2208,-2.2208,-2.2208,-2.2208,-2.2208,-2.2208,-2.2208,-2.2208,-2.2208,-2.2208,-2.2208,-2.2208,-2.2208,-2.2208,-2.2208,-2.2208,-2.2208,-2.2208,-2.2208,-2.2208,-2.2208,-2.2208,-2.2208,-2.2208,-2.2208,-2.2208,-2.2208,-2.2208,-2.2208,-2.2208,-2.2208,-2.2208,-2.8014,-2.8175,-2.8396,-2.8365,-2.8599,-2.9001,-2.9567,-2.9638,0.0,0.0,-2.9665,-2.9328,-2.9412,-2.9436,-2.9641,-3.0266,-3.0851,-3.1625,-3.2729,-3.3154,-3.3762,0.0,-3.4386,-3.4142,-3.4664,-3.3828,-3.329,-3.329,-3.2848,-3.2567,-3.2567,-3.1471,-3.054,-2.9954,-2.9827,-2.9715,-2.9602,-2.9602,-2.9602,-2.9602,-2.9083,-2.8535,-2.7946,-2.7383,-2.675,-2.6062,-2.6062,-2.5992,-2.5893,-2.5893,-2.5893,-2.5893,-2.5893,-2.5893,-2.5893,-2.5893,-2.5893,-2.5893,-2.5893,-2.5893,-2.5893,-2.5893,-2.5893,-2.5893,-2.5893,-2.5893,-2.5893,-2.5893,-2.5893,-2.5893,-2.5893,-2.5893,-2.5739,-2.5147,-2.5006,-2.4655,-2.3364,-2.2704,-2.2334,-2.2222,-2.2208,-2.2208,-2.2208,-2.2208,-2.2208,-2.2208,-2.2208,-2.2208,-2.2208,-2.2208,-2.2208,-2.2208,-2.2208,-2.2208,-2.2208,-2.2208,-2.2208,-2.2208,-2.2208,-2.2208,-2.2208,-2.2208,-2.2208,-2.2208,-2.2208,-2.2208,-2.2208,-2.2208,-2.2208,-2.2208,-2.2208,-2.2208,-2.7962,-2.8057,-2.8333,-2.8621,-2.878,-2.8984,-2.955,0.0,0.0,0.0,-2.9063,-2.8883,-2.8883,-2.9112,0.0,-3.0001,-3.0302,-3.0876,-3.2035,-3.2296,-3.2794,-3.3846,-3.3688,-3.37,-3.4224,-3.3304,-3.2709,-3.2813,-3.1963,-3.171,-3.237,-3.1171,-3.0203,-2.9631,-2.9602,-2.9602,-2.9602,-2.9602,-2.9602,-2.9602,-2.9307,-2.8675,-2.7805,-2.779,-2.7102,-2.5921,-2.6231,-2.6188,-2.5893,-2.5893,-2.5893,-2.5893,-2.5893,-2.5893,-2.5893,-2.5893,-2.5893,-2.5893,-2.5893,-2.5893,-2.5893,-2.5893,-2.5893,-2.5893,-2.5893,-2.5893,-2.5893,-2.5893,-2.5893,-2.5893,-2.5893,-2.5893,-2.5739,-2.5147,-2.45,-2.3828,-2.3224,-2.262,-2.2208,-2.2208,-2.2208,-2.2208,-2.2208,-2.2208,-2.2208,-2.2208,-2.2208,-2.2208,-2.2208,-2.2208,-2.2208,-2.2208,-2.2208,-2.2208,-2.2208,-2.2208,-2.2208,-2.2208,-2.2208,-2.2208,-2.2208,-2.2208,-2.2208,-2.2208,-2.2208,-2.2208,-2.2208,-2.2208,-2.2208,-2.2208,-2.2208,-2.2208,-2.8172,-2.8236,-2.8466,-2.8972,-2.8951,-2.8988,-2.9487,-2.9178,0.0,-2.8515,-2.851,-2.851,-2.851,0.0,-2.9304,0.0,-3.0013,-3.041,-3.1404,-3.1736,-3.2097,-3.2694,-3.2896,-3.3156,-3.3538,-3.2671,-3.2158,-3.2261,-3.1034,-3.0732,-3.1766,-3.0867,-3.0076,-2.9617,-2.9602,-2.9602,-2.9602,-2.9602,-2.9602,-2.9602,-2.935,-2.8717,-2.7819,-2.8001,-2.7298,-2.5921,-2.6399,-2.6343,-2.5893,-2.5893,-2.5893,-2.5893,-2.5893,-2.5893,-2.5893,-2.5893,-2.5893,-2.5893,-2.5893,-2.5893,-2.5893,-2.5893,-2.5893,-2.5893,-2.5893,-2.5893,-2.5893,-2.5893,-2.5893,-2.5893,-2.5893,-2.5893,-2.5711,-2.4978,-2.405,-2.3224,-2.2957,-2.2634,-2.2362,-2.2236,-2.2208,-2.2208,-2.2208,-2.2208,-2.2208,-2.2208,-2.2208,-2.2208,-2.2208,-2.2208,-2.2208,-2.2208,-2.2208,-2.2208,-2.2208,-2.2208,-2.2208,-2.2208,-2.2208,-2.2208,-2.2208,-2.2208,-2.2208,-2.2208,-2.2208,-2.2208,-2.2208,-2.2208,-2.2208,-2.2208,-2.2208,-2.2208,-2.8843,-2.8851,-2.8875,-2.897,-2.8822,-2.8757,-2.9229,0.0,-2.8319,-2.8483,-2.851,-2.851,-2.851,0.0,0.0,0.0,0.0,-3.029,-3.091,-3.1399,-3.1801,-3.1978,0.0,-3.2424,-3.2769,-3.2401,-3.2055,-3.1951,-3.0466,-2.9673,-2.9852,-2.9757,-2.9673,-2.9602,-2.9602,-2.9602,-2.9602,-2.9602,-2.9602,-2.9602,-2.8478,-2.7918,-2.7763,-2.6652,-2.6062,-2.5893,-2.595,-2.595,-2.5893,-2.5893,-2.5893,-2.5893,-2.5893,-2.5893,-2.5893,-2.5893,-2.5893,-2.5893,-2.5893,-2.5893,-2.5893,-2.5893,-2.5893,-2.5893,-2.5893,-2.5893,-2.5893,-2.5893,-2.5893,-2.5893,-2.5893,-2.5893,-2.5598,-2.4458,-2.4078,-2.3684,-2.2531,-2.2662,-2.2859,-2.232,-2.2208,-2.2208,-2.2208,-2.2208,-2.2208,-2.2208,-2.2208,-2.2208,-2.2208,-2.2208,-2.2208,-2.2208,-2.2208,-2.2208,-2.2208,-2.2208,-2.2208,-2.2208,-2.2208,-2.2208,-2.2208,-2.2208,-2.2208,-2.2208,-2.2208,-2.2208,-2.2208,-2.2208,-2.2208,-2.2208,-2.2208,-2.2208,-2.859,-2.8796,-2.9212,-2.941,-2.9005,-2.8736,-2.9587,0.0,-2.8379,-2.8471,-2.851,-2.851,-2.851,-2.851,-2.8531,0.0,0.0,0.0,-2.9678,-2.9929,-3.0224,-3.0598,-3.0749,-3.0878,-3.1006,-3.0301,-2.9684,-2.9389,-2.9131,-2.8975,-2.8986,-2.9194,-2.9352,-2.9477,-2.954,-2.9602,-2.9602,-2.9602,-2.942,-2.9055,-2.8563,-2.7931,-2.7172,-2.6666,-2.6245,-2.5893,-2.5893,-2.5893,-2.5893,-2.5893,-2.5893,-2.5893,-2.5893,-2.5893,-2.5893,-2.5893,-2.5893,-2.5893,-2.5893,-2.5893,-2.5893,-2.5893,-2.5893,-2.5893,-2.5893,-2.5893,-2.5893,-2.5893,-2.5893,-2.5893,-2.5893,-2.5893,-2.5683,-2.4838,-2.4641,-2.4402,-2.353,-2.3234,-2.3027,-2.2774,-2.2461,-2.2208,-2.2208,-2.2208,-2.2208,-2.2208,-2.2208,-2.2208,-2.2208,-2.2208,-2.2208,-2.2208,-2.2208,-2.2208,-2.2208,-2.2208,-2.2208,-2.2208,-2.2208,-2.2208,-2.2208,-2.2208,-2.2208,-2.2208,-2.2208,-2.2208,-2.2208,-2.2208,-2.2208,-2.2208,-2.2208,-2.2208,-2.8843,-2.9121,-2.9623,-3.0037,-2.9409,-2.8979,-2.9881,-2.9268,-2.8471,-2.8431,-2.8471,-2.8471,-2.8431,-2.8471,-2.8419,0.0,0.0,-2.8536,-2.8875,-2.9053,-2.9189,-2.9438,-2.9673,-2.9751,-2.9671,-2.8812,-2.8045,-2.7596,-2.7829,-2.8118,-2.836,-2.8651,-2.894,-2.9212,-2.9383,-2.9393,-2.926,-2.9291,-2.9026,-2.8422,-2.8226,-2.7664,-2.6793,-2.6624,-2.6301,-2.5893,-2.5893,-2.5893,-2.5893,-2.5893,-2.5893,-2.5893,-2.5893,-2.5893,-2.5893,-2.5893,-2.5893,-2.5893,-2.5893,-2.5893,-2.5893,-2.5893,-2.5893,-2.5893,-2.5893,-2.5893,-2.5893,-2.5893,-2.5893,-2.5893,-2.5893,-2.5893,-2.5739,-2.5147,-2.5147,-2.5063,-2.4261,-2.3727,-2.3347,-2.3126,-2.2615,-2.2208,-2.2208,-2.2208,-2.2208,-2.2208,-2.2208,-2.2208,-2.2208,-2.2208,-2.2208,-2.2208,-2.2208,-2.2208,-2.2208,-2.2208,-2.2208,-2.2208,-2.2208,-2.2208,-2.2208,-2.2208,-2.2208,-2.2208,-2.2208,-2.2208,-2.2208,-2.2208,-2.2208,-2.2208,-2.2208,-2.2208,-2.9785,-3.0074,-3.0206,-3.0778,-3.0074,-2.9436,-2.9965,-2.9268,-2.8431,-2.8259,-2.8339,-2.8431,-2.8259,-2.8391,-2.8419,-2.8219,0.0,0.0,-2.874,-2.9122,-2.9251,-2.8769,-2.9251,-2.9455,-2.9143,-2.8487,-2.7845,-2.7253,-2.6905,-2.7053,-2.7776,-2.8,-2.8327,-2.8803,-2.899,-2.8889,-2.8419,-2.8598,-2.8394,-2.7805,-2.713,-2.6821,-2.6793,-2.6174,-2.5907,-2.5893,-2.5893,-2.5893,-2.5893,-2.5893,-2.5893,-2.5893,-2.5893,-2.5893,-2.5893,-2.5893,-2.5893,-2.5893,-2.5893,-2.5893,-2.5893,-2.5893,-2.5893,-2.5893,-2.5893,-2.5893,-2.5893,-2.5893,-2.5893,-2.5893,-2.5893,-2.5893,-2.5739,-2.5147,-2.5444,-2.5542,-2.4359,-2.4078,-2.3881,-2.3224,-2.2615,-2.2208,-2.2208,-2.2208,-2.2208,-2.2208,-2.2208,-2.2208,-2.2208,-2.2208,-2.2208,-2.2208,-2.2208,-2.2208,-2.2208,-2.2208,-2.2208,-2.2208,-2.2208,-2.2208,-2.2208,-2.2208,-2.2208,-2.2208,-2.2208,-2.2208,-2.2208,-2.2208,-2.2208,-2.2208,-2.2208,-2.2208,-2.8988,-2.9268,-2.9593,-2.9749,-2.928,-2.8895,-2.9424,-2.9015,-2.8471,-2.8431,-2.8339,-2.8299,-2.8379,-2.8231,-2.8082,-2.8002,-2.7998,0.0,0.0,-2.7988,-2.8064,-2.7912,-2.7626,-2.7284,-2.6835,-2.6617,-2.6456,-2.6327,-2.653,-2.6952,-2.7556,-2.7669,-2.7987,-2.8638,-2.8542,-2.8474,-2.8391,-2.8194,-2.7748,-2.7116,-2.6905,-2.6582,-2.6174,-2.5992,-2.5893,-2.5893,-2.5893,-2.5893,-2.5893,-2.5893,-2.5893,-2.5893,-2.5893,-2.5893,-2.5893,-2.5893,-2.5893,-2.5893,-2.5893,-2.5893,-2.5893,-2.5893,-2.5893,-2.5893,-2.5893,-2.5893,-2.5893,-2.5893,-2.5893,-2.5893,-2.5893,-2.5893,-2.5837,-2.5655,-2.543,-2.5189,-2.4795,-2.4036,-2.3336,-2.314,-2.2615,-2.2208,-2.2208,-2.2208,-2.2348,-2.2746,-2.2475,-2.2362,-2.2746,-2.2475,-2.2208,-2.2208,-2.2208,-2.2208,-2.2208,-2.2208,-2.2208,-2.2208,-2.2208,-2.2208,-2.2208,-2.2208,-2.2208,-2.2208,-2.2208,-2.2208,-2.2208,-2.2208,-2.202,-2.164,-2.1643,-2.1832,-2.8899,-2.9196,-2.9593,-2.9593,-2.9196,-2.8895,-2.922,-2.8895,-2.8471,-2.8311,-2.8219,-2.8167,-2.8139,-2.7825,-2.7587,-2.7519,-2.7335,-2.7203,-2.7123,-2.7285,-2.7342,-2.7146,-2.6765,-2.6226,-2.5486,-2.5457,-2.549,-2.5548,-2.5861,-2.6393,-2.7154,-2.7019,-2.7206,-2.794,-2.7881,-2.7817,-2.7798,-2.7442,-2.6973,-2.6386,-2.6441,-2.6259,-2.5893,-2.5893,-2.5893,-2.5893,-2.5893,-2.5893,0.0,-2.5893,-2.5893,-2.5893,-2.5893,-2.5893,-2.5893,-2.5893,-2.5893,-2.5893,-2.5893,-2.5893,-2.5893,-2.5893,-2.5893,-2.5851,-2.5626,-2.5711,-2.5893,-2.5893,-2.5893,-2.5837,-2.5612,-2.5725,-2.5837,-2.5598,-2.543,-2.5288,-2.5063,-2.4388,-2.3769,-2.353,-2.3178,-2.2841,-2.2587,-2.2545,-2.2662,-2.3041,-2.2774,-2.2784,-2.3403,-2.315,-2.2826,-2.2573,-2.277,-2.2812,-2.2573,-2.2334,-2.2208,-2.2208,-2.2208,-2.2208,-2.2208,-2.2208,-2.2208,-2.2208,-2.2208,-2.2208,-2.2208,-2.2196,-2.1906,-2.1402,-2.1603,-2.1865,0.0,-2.9605,-2.9977,-2.9977,-2.9605,-2.9244,-2.9244,-2.8871,0.0,-2.8002,-2.807,-2.8059,-2.7644,-2.7303,-2.7015,-2.6865,-2.6813,-2.6723,-2.6547,-2.6932,-2.7047,-2.657,-2.6478,-2.6053,-2.5015,-2.4889,-2.4881,-2.4969,-2.5004,-2.5476,-2.6577,-2.6186,-2.6151,-2.6738,-2.6897,-2.689,-2.6725,-2.6454,-2.609,-2.5674,-2.5811,-2.5893,-2.5893,-2.5893,-2.5893,-2.5893,-2.5893,-2.5893,-2.5893,-2.5893,-2.5893,-2.5893,-2.5893,-2.5893,-2.5893,-2.5893,-2.5893,-2.5893,-2.5893,-2.5893,-2.5893,-2.5893,-2.5893,-2.5795,-2.5246,-2.5444,-2.5879,-2.5837,-2.5865,-2.5753,-2.5161,-2.5428,-2.5669,-2.5091,-2.5372,-2.5612,-2.5063,-2.495,-2.4767,-2.4205,-2.4092,-2.3895,-2.3266,-2.3168,-2.3182,-2.3224,-2.3196,-2.3417,-2.4078,-2.412,-2.3853,-2.3224,-2.3727,-2.3839,-2.321,-2.2615,-2.2292,-2.2334,-2.225,-2.2222,-2.2264,-2.2264,-2.224,-2.2194,-2.2189,-2.2193,-2.2193,-2.2138,-2.1861,-2.1407,-2.1897,-2.2129,-2.8814,0.0,-2.8883,-2.8883,-2.8787,-2.8703,0.0,-2.8595,-2.8471,-2.8391,0.0,-2.799,-2.8018,-2.7275,-2.6776,-2.725,-2.6914,-2.6679,-2.699,-2.711,-2.7047,-2.657,-2.6129,-2.5635,-2.4981,-2.4579,-2.4522,-2.4993,-2.5004,-2.5323,-2.6035,-2.5965,-2.5775,-2.5544,-2.5114,-2.5242,-2.594,-2.5651,-2.5493,-2.555,-2.5688,-2.5811,-2.5893,-2.5893,-2.5893,-2.5893,-2.5893,-2.5893,-2.5893,-2.5893,-2.5893,-2.5893,-2.5893,-2.5893,-2.5893,-2.5893,-2.5893,-2.5893,-2.5893,-2.5893,-2.5893,-2.5893,-2.5893,-2.5865,-2.5725,-2.5781,-2.5795,-2.5358,-2.5528,-2.5753,-2.5161,-2.5119,-2.5063,-2.4444,-2.4416,-2.4472,-2.4331,-2.4303,-2.4261,-2.412,-2.4092,-2.4036,-2.3881,-2.3853,-2.4022,-2.4486,-2.4163,-2.4092,-2.4711,-2.4388,-2.4036,-2.3881,-2.4008,-2.4022,-2.3881,-2.3252,-2.3122,-2.3614,-2.2742,-2.2419,-2.2859,-2.2887,-2.2669,-2.2226,-2.2189,-2.2207,-2.2207,-2.1631,-2.1367,-2.1405,-2.1375,-2.1545,-2.8697,-2.851,-2.851,-2.851,-2.851,-2.851,-2.851,0.0,0.0,0.0,0.0,0.0,0.0,-2.6537,-2.6249,-2.6632,-2.6564,-2.6645,-2.7121,-2.719,-2.6915,-2.6209,-2.5876,-2.5417,-2.4659,-2.4349,-2.4334,-2.4599,-2.4635,-2.4886,-2.5476,-2.5229,-2.4986,-2.4693,-2.4143,-2.4149,-2.4771,-2.4423,-2.4423,-2.4821,-2.4991,-2.5216,-2.5481,-2.5564,-2.5633,-2.5716,-2.5784,-2.5839,-2.5893,-2.5893,-2.5893,-2.5893,-2.5893,-2.5893,-2.5893,-2.5893,-2.5893,-2.5893,-2.5893,-2.5893,-2.5893,-2.5893,-2.5893,-2.5837,-2.5556,-2.5669,-2.5823,-2.5486,-2.543,-2.5358,-2.4739,-2.5006,-2.5119,-2.3923,-2.4303,-2.4767,-2.4205,-2.4542,-2.4838,-2.457,-2.4739,-2.4838,-2.4556,-2.45,-2.4613,-2.495,-2.4725,-2.4725,-2.5358,-2.5133,-2.4824,-2.4542,-2.4767,-2.481,-2.4542,-2.3895,-2.3689,-2.4078,-2.3445,-2.322,-2.3558,-2.327,-2.2801,-2.2206,-2.2192,-2.2023,-2.1708,-2.154,-2.135,-2.1156,-2.1308,-2.1497,-2.8697,-2.851,-2.851,-2.851,-2.851,-2.8486,-2.8414,0.0,0.0,0.0,0.0,0.0,0.0,-2.5773,-2.5761,-2.5883,-2.6301,-2.6737,-2.7121,-2.7121,-2.676,-2.5819,-2.5647,-2.5222,-2.4292,-2.42,-2.42,-2.42,-2.42,-2.4406,-2.4838,-2.4361,-2.405,-2.3976,-2.3463,-2.3209,-2.3304,-2.3144,-2.3357,-2.3875,-2.4134,-2.4465,-2.4821,-2.502,-2.5146,-2.5285,-2.5481,-2.5633,-2.5784,-2.5839,-2.5866,-2.5893,-2.5893,-2.5893,-2.5893,-2.5893,-2.5893,-2.5893,-2.5893,-2.5893,-2.5893,-2.5893,-2.5893,-2.5795,-2.5302,-2.5442,-2.5767,-2.5865,-2.5514,-2.4978,-2.4275,-2.4936,-2.5303,-2.3519,-2.446,-2.5472,-2.4458,-2.5119,-2.5739,-2.5246,-2.5542,-2.5725,-2.5246,-2.5147,-2.5147,-2.5147,-2.5147,-2.5277,-2.5714,-2.5757,-2.552,-2.4909,-2.5285,-2.5397,-2.4882,-2.4327,-2.4014,-2.4064,-2.3921,-2.3852,-2.3949,-2.327,-2.2709,-2.2308,-2.2197,-2.1807,-2.1182,-2.1636,-2.1542,-2.1016,-2.1444,-2.1667,-2.855,-2.851,-2.851,-2.851,-2.851,-2.839,-2.7945,0.0,0.0,0.0,0.0,0.0,0.0,-2.612,-2.5991,-2.6812,-2.7059,-2.7139,-2.7179,-2.6852,-2.637,-2.5784,-2.5314,-2.482,-2.4246,-2.42,-2.42,-2.42,-2.42,-2.4236,-2.4334,-2.3823,-2.3352,-2.2956,-2.2427,-2.1953,-2.1591,-2.2482,-2.3027,-2.3225,-2.38,-2.4034,-2.4005,-2.4423,-2.4481,-2.4237,-2.4681,-2.495,-2.5174,-2.5564,-2.5811,-2.5893,-2.5893,-2.5893,-2.5893,-2.5893,-2.5893,-2.5893,-2.5893,-2.5893,-2.5893,-2.5893,-2.5893,-2.5879,-2.5781,-2.5458,-2.5246,-2.5753,-2.5823,-2.55,-2.4388,-2.4613,-2.4795,-2.3421,-2.4123,-2.5091,-2.4908,-2.5428,-2.5865,-2.5767,-2.5837,-2.5865,-2.5767,-2.5753,-2.5753,-2.5753,-2.5753,-2.5617,-2.5188,-2.5146,-2.4894,-2.422,-2.4229,-2.4242,-2.4163,-2.4063,-2.3995,-2.4017,-2.3051,-2.2734,-2.3222,-2.2492,-2.2318,-2.2777,-2.2122,-2.1718,-2.1606,-2.1518,-2.1502,-2.1581,-2.1502,-2.1463,-2.7618,-2.7618,-2.769,-2.8017,-2.8294,-2.841,-2.804,-2.7901,0.0,0.0,0.0,0.0,0.0,-2.6173,-2.6358,-2.7064,-2.719,-2.7087,-2.6852,-2.6651,-2.6203,-2.5371,-2.5061,-2.4728,-2.4246,-2.42,-2.42,-2.42,-2.3936,-2.3751,-2.3751,-2.3305,-2.28,-2.2283,-2.202,-2.1686,-2.1201,-2.1714,-2.2125,-2.2451,-2.2713,-2.2955,-2.3165,-2.3505,-2.3594,-2.3522,-2.4092,-2.4481,-2.4765,-2.5355,-2.5661,-2.5784,-2.5508,-2.5564,-2.5784,-2.5784,-2.5839,-2.5893,-2.5893,-2.5702,-2.5425,-2.5425,-2.5328,-2.5258,-2.5384,-2.5397,-2.5323,-2.5064,-2.52,-2.5217,-2.4317,-2.4542,-2.4521,-2.263,-2.3562,-2.475,-2.4192,-2.4965,-2.5811,-2.5893,-2.5893,-2.5893,-2.5893,-2.5619,-2.5425,-2.5425,-2.5118,-2.4753,-2.4509,-2.4452,-2.4337,-2.4021,-2.3992,-2.3962,-2.3917,-2.3581,-2.3535,-2.3888,-2.3451,-2.307,-2.2833,-2.258,-2.2388,-2.2242,-2.1874,-2.1667,-2.1537,-2.1463,-2.14,-2.1434,-2.1348,-2.1273,-2.6898,-2.6898,-2.6994,-2.7402,0.0,-2.8056,-2.8005,-2.7854,0.0,0.0,0.0,0.0,0.0,-2.6301,-2.6772,-2.7121,-2.7087,-2.6921,-2.6559,-2.6295,-2.5807,-2.5015,-2.4809,-2.4602,-2.4235,-2.4097,-2.4016,-2.4016,-2.351,-2.3235,-2.3235,-2.2788,-2.2329,-2.1906,-2.178,-2.156,-2.1201,-2.119,-2.138,-2.1733,-2.1858,-2.2063,-2.2329,-2.2586,-2.2738,-2.2798,-2.3374,-2.3829,-2.4163,-2.4806,-2.5146,-2.5258,-2.4907,-2.4991,-2.5314,-2.5439,-2.5467,-2.5481,-2.5578,-2.5231,-2.4765,-2.4765,-2.4666,-2.4553,-2.4723,-2.502,-2.5135,-2.438,-2.445,-2.4596,-2.3875,-2.4124,-2.4088,-2.2082,-2.3035,-2.4203,-2.3432,-2.4327,-2.5342,-2.5425,-2.5453,-2.5453,-2.5453,-2.5062,-2.4765,-2.4765,-2.4337,-2.3933,-2.3816,-2.3758,-2.3669,-2.3522,-2.3475,-2.3416,-2.331,-2.2889,-2.2798,-2.3195,-2.3386,-2.3148,-2.2433,-2.2494,-2.2261,-2.1655,-2.1592,-2.1529,-2.1368,-2.1368,-2.1305,-2.119,-2.119,-2.119,-2.6898,-2.6898,-2.691,-2.6946,-2.6856,-2.6859,-2.7347,-2.6791,0.0,-2.6082,0.0,0.0,-2.6375,-2.6829,-2.7144,-2.7179,-2.6829,-2.6547,-2.6513,-2.5635,-2.4992,-2.4923,-2.4522,-2.4235,-2.42,-2.374,-2.3465,-2.3465,-2.3018,-2.2731,-2.2731,-2.226,-2.1929,-2.1894,-2.1468,-2.1224,-2.119,-2.119,-2.1233,-2.1253,-2.1702,-2.1753,-2.1514,-2.1963,-2.2049,-2.1812,-2.2292,-2.2707,-2.304,-2.3547,-2.3888,-2.4108,-2.4092,-2.4079,-2.4179,-2.461,-2.4496,-2.4195,-2.4652,-2.4467,-2.4079,-2.4079,-2.405,-2.405,-2.4063,-2.4092,-2.4108,-2.4026,-2.4042,-2.3822,-2.2719,-2.2877,-2.314,-2.2402,-2.2783,-2.3298,-2.3218,-2.3675,-2.4137,-2.4137,-2.4137,-2.4137,-2.4137,-2.4108,-2.4079,-2.4079,-2.4021,-2.3787,-2.3237,-2.3058,-2.2738,-2.213,-2.1925,-2.1843,-2.1843,-2.1824,-2.1737,-2.1577,-2.1769,-2.1843,-2.1761,-2.16,-2.1482,-2.142,-2.1285,-2.1221,-2.1221,-2.1221,-2.1221,-2.119,-2.119,-2.119,-2.5925,-2.6166,-2.6381,-2.6245,-2.6109,0.0,0.0,-2.6823,-2.6542,-2.6708,-2.6697,-2.6622,-2.6536,-2.637,-2.629,-2.629,-2.6129,-2.5888,-2.5543,-2.5164,-2.4809,-2.4499,-2.4303,-2.42,-2.42,-2.3705,-2.3407,-2.3407,-2.2651,-2.2214,-2.2214,-2.172,-2.1456,-2.1456,-2.1293,-2.119,-2.119,-2.119,-2.119,-2.119,-2.138,-2.14,-2.1273,-2.1474,-2.1474,-2.1423,-2.1889,-2.2206,-2.2451,-2.3027,-2.3475,-2.3771,-2.3829,-2.3712,-2.3492,-2.3975,-2.4092,-2.4021,-2.4208,-2.3904,-2.3433,-2.3357,-2.331,-2.3322,-2.3327,-2.3594,-2.3751,-2.3129,-2.3165,-2.3343,-2.2914,-2.2712,-2.241,-2.1474,-2.1905,-2.2456,-2.2193,-2.3054,-2.3917,-2.3992,-2.3992,-2.3992,-2.3992,-2.3699,-2.3416,-2.3327,-2.295,-2.2567,-2.2285,-2.2192,-2.2049,-2.1812,-2.1612,-2.1506,-2.1506,-2.1454,-2.136,-2.1273,-2.1529,-2.1604,-2.1391,-2.14,-2.1368,-2.1273,-2.1221,-2.119,-2.119,-2.119,-2.119,-2.119,-2.119,-2.119,-2.5241,-2.5481,-2.5695,-2.5716,0.0,0.0,-2.6742,-2.6702,-2.6574,-2.7093,-2.7093,-2.6887,-2.657,-2.6048,-2.5716,-2.5716,-2.5566,-2.5337,-2.4969,-2.4786,-2.4568,-2.4235,-2.4051,-2.3959,-2.3959,-2.3327,-2.2995,-2.3155,-2.226,-2.1755,-2.1883,-2.1433,-2.119,-2.119,-2.119,-2.119,-2.119,-2.119,-2.119,-2.119,-2.119,-2.119,-2.119,-2.119,-2.119,-2.1221,-2.1557,-2.1753,-2.1896,-2.239,-2.2738,-2.3022,-2.31,-2.298,-2.2768,-2.3267,-2.3446,-2.3458,-2.3607,-2.325,-2.2707,-2.2628,-2.2561,-2.2512,-2.2519,-2.2841,-2.3055,-2.2382,-2.2484,-2.2777,-2.2626,-2.2181,-2.1576,-2.0799,-2.1137,-2.1539,-2.1272,-2.2293,-2.331,-2.3416,-2.3429,-2.3429,-2.3429,-2.304,-2.2677,-2.2598,-2.2161,-2.1812,-2.1698,-2.1624,-2.1592,-2.1561,-2.1411,-2.1336,-2.1336,-2.1253,-2.119,-2.119,-2.1434,-2.1434,-2.1221,-2.1273,-2.1273,-2.119,-2.119,-2.119,-2.119,-2.119,-2.119,-2.119,-2.119,-2.119,-2.5076,-2.4957,-2.4919,-2.5364,0.0,0.0,-2.6433,-2.6177,-2.6003,-2.6984,-2.6818,-2.6462,-2.6462,-2.6037,-2.5654,-2.5654,-2.5218,-2.4875,-2.49,-2.4499,-2.42,-2.4189,-2.3705,-2.3407,-2.3396,-2.249,-2.2134,-2.2639,-2.1765,-2.142,-2.186,-2.1433,-2.119,-2.119,-2.119,-2.119,-2.119,-2.119,-2.119,-2.119,-2.119,-2.119,-2.119,-2.119,-2.119,-2.119,-2.119,-2.1273,-2.1388,-2.1388,-2.1506,-2.1698,-2.1698,-2.1781,-2.1956,-2.2433,-2.2414,-2.2247,-2.2726,-2.2451,-2.1894,-2.1894,-2.1812,-2.1698,-2.1698,-2.1781,-2.1894,-2.1894,-2.203,-2.2065,-2.1536,-2.1007,-2.0581,-2.0581,-2.0581,-2.0581,-2.0593,-2.1452,-2.2197,-2.2197,-2.2197,-2.2197,-2.2197,-2.203,-2.1894,-2.1894,-2.1781,-2.1698,-2.1698,-2.1494,-2.1325,-2.1221,-2.119,-2.119,-2.119,-2.119,-2.119,-2.119,-2.119,-2.119,-2.119,-2.119,-2.119,-2.119,-2.119,-2.119,-2.119,-2.119,-2.119,-2.119,-2.119,-2.119,-2.4635,-2.4945,-2.5189,-2.44,0.0,0.0,0.0,-2.5457,0.0,0.0,-2.5104,-2.4087,-2.4087,-2.3474,-2.3102,-2.3541,-2.357,-2.3694,-2.415,-2.4208,-2.4062,-2.3671,-2.3499,-2.327,-2.2937,-2.2317,-2.1951,-2.2145,-2.1569,-2.1259,-2.1408,-2.1282,-2.119,-2.119,-2.119,-2.119,-2.119,-2.119,-2.119,-2.119,-2.119,-2.119,-2.119,-2.119,-2.119,-2.119,-2.119,-2.1221,-2.1285,-2.1368,-2.1431,-2.1506,-2.1624,-2.173,-2.1781,-2.2006,-2.1987,-2.1886,-2.2278,-2.2123,-2.1761,-2.1761,-2.173,-2.1667,-2.1549,-2.1612,-2.1781,-2.1874,-2.1663,-2.1415,-2.141,-2.0718,-2.0117,-2.0519,-2.0488,-2.0509,-2.0873,-2.1431,-2.1855,-2.1855,-2.1855,-2.1855,-2.1855,-2.1792,-2.1718,-2.1557,-2.1494,-2.1315,-2.0842,-2.0723,-2.0692,-2.063,-2.0641,-2.0779,-2.1167,-2.119,-2.119,-2.119,-2.119,-2.119,-2.119,-2.119,-2.119,-2.119,-2.119,-2.119,-2.119,-2.119,-2.119,-2.119,-2.119,-2.119,-2.446,-2.4694,-2.485,-2.3927,-2.4385,-2.479,-2.3801,-2.4432,-2.5136,-2.488,-2.3756,-2.2853,-2.2853,-2.2291,-2.1918,-2.2268,-2.2456,-2.2729,-2.3335,-2.3414,-2.3437,-2.3574,-2.3143,-2.2765,-2.273,-2.2042,-2.1709,-2.1883,-2.1456,-2.1282,-2.1456,-2.1305,-2.119,-2.119,-2.119,-2.119,-2.119,-2.119,-2.119,-2.119,-2.119,-2.119,-2.119,-2.119,-2.119,-2.119,-2.119,-2.119,-2.1221,-2.1273,-2.1305,-2.1336,-2.1454,-2.1529,-2.158,-2.1663,-2.1706,-2.173,-2.1949,-2.1812,-2.158,-2.158,-2.1389,-2.1164,-2.1047,-2.1001,-2.0984,-2.1063,-2.0961,-2.0783,-2.071,-2.02,-1.9869,-2.0466,-2.05,-2.0556,-2.1093,-2.1507,-2.1781,-2.1781,-2.173,-2.1698,-2.1698,-2.1624,-2.1479,-2.1164,-2.0904,-2.058,-2.0159,-2.0297,-2.0343,-2.0148,-2.0297,-2.0458,-2.0592,-2.0615,-2.0695,-2.0879,-2.0891,-2.0983,-2.119,-2.119,-2.119,-2.119,-2.119,-2.119,-2.119,-2.119,-2.119,-2.119,-2.119,-2.119,-2.4432,-2.4263,-2.4025,-2.3649,-2.3504,-2.3358,-2.3156,-2.3029,-2.2978,-2.3152,-2.269,-2.2253,-2.2253,-2.1873,-2.1603,-2.1652,-2.168,-2.188,-2.2505,-2.2345,-2.2545,-2.3559,-2.2628,-2.2055,-2.2535,-2.1742,-2.1385,-2.1791,-2.1422,-2.1397,-2.1791,-2.1443,-2.119,-2.119,-2.119,-2.119,-2.119,-2.119,-2.119,-2.119,-2.119,-2.119,-2.119,-2.119,-2.119,-2.119,-2.119,-2.119,-2.119,-2.119,-2.119,-2.119,-2.119,-2.1285,-2.1388,-2.1388,-2.1506,-2.1667,-2.1698,-2.1549,-2.1388,-2.1388,-2.0938,-2.0412,-2.0412,-2.0158,-1.9872,-1.9901,-2.0071,-2.0177,-1.9701,-1.9547,-1.9682,-2.0392,-2.0565,-2.0679,-2.1254,-2.1623,-2.1831,-2.1831,-2.1749,-2.1655,-2.1577,-2.1447,-2.1167,-2.0726,-2.0165,-1.9757,-1.9757,-2.0102,-2.0182,-1.9746,-2.0044,-2.0136,-1.978,-1.9723,-1.9895,-2.0377,-2.0412,-2.0618,-2.1109,-2.1167,-2.119,-2.119,-2.119,-2.119,-2.119,-2.119,-2.119,-2.119,-2.119,-2.119,-2.3979,-2.358,0.0,-2.2666,-2.1858,-2.129,-2.165,-2.0935,-2.0528,-2.1935,-2.126,-2.0445,-2.0445,-2.0127,-1.9991,-2.0469,-2.0702,-2.1001,-2.1652,-2.194,-2.2027,-2.2004,-2.1868,-2.1693,-2.1546,-2.1328,-2.1236,-2.1351,-2.1259,-2.1236,-2.1351,-2.1259,-2.119,-2.119,-2.119,-2.119,-2.119,-2.119,-2.119,-2.119,-2.119,-2.119,-2.119,-2.119,-2.119,-2.119,-2.119,-2.119,-2.119,-2.119,-2.119,-2.119,-2.119,-2.1221,-2.1253,-2.1368,-2.1368,-2.136,-2.1604,-2.1498,-2.1253,-2.1368,-2.0938,-2.0412,-2.0412,-2.0097,-1.9777,-1.9883,-1.9657,-1.9392,-1.9422,-1.9136,-1.9042,-1.9986,-2.0135,-2.0293,-2.1194,-2.1361,-2.1348,-2.1348,-2.1328,-2.1169,-2.0734,-2.0634,-2.0588,-2.0484,-2.035,-2.0251,-2.0251,-2.0021,-1.9803,-1.9711,-1.9413,-1.9505,-2.0194,-1.9907,-1.9895,-2.0377,-2.0412,-2.0458,-2.0572,-2.0983,-2.119,-2.119,-2.119,-2.119,-2.119,-2.119,-2.119,-2.119,-2.119,-2.119,-2.401,-2.3682,0.0,-2.2136,0.0,-2.0019,-2.0277,-1.9727,-1.943,-2.045,-2.0093,-1.9591,-1.9591,-1.9292,-1.9134,-1.9445,-1.9391,-1.9554,-2.0222,-2.0331,-2.0619,-2.121,-2.1072,-2.106,-2.1419,-2.1275,-2.119,-2.119,-2.119,-2.119,-2.119,-2.119,-2.119,-2.119,-2.119,-2.119,-2.119,-2.119,-2.119,-2.119,-2.119,-2.119,-2.119,-2.119,-2.119,-2.119,-2.119,-2.119,-2.119,-2.119,-2.119,-2.119,-2.119,-2.119,-2.1221,-2.1273,-2.1253,-2.1233,-2.1391,-2.136,-2.1221,-2.1273,-2.0746,-2.0067,-2.0067,-1.9551,-1.8954,-1.9027,-1.8904,-1.8778,-1.8885,-1.8701,-1.869,-1.9457,-1.9802,-2.0287,-2.1327,-2.1411,-2.1305,-2.1305,-2.1026,-2.0722,-2.0458,-2.001,-1.9677,-1.9677,-1.9677,-1.9677,-1.9677,-1.9895,-1.9953,-1.9711,-1.9643,-1.9643,-1.9677,-1.9688,-1.9803,-2.0056,-2.0067,-2.0274,-2.0745,-2.0791,-2.0948,-2.119,-2.119,-2.119,-2.119,-2.119,-2.119,-2.119,-2.119,-2.1063,-2.4097,-2.3797,-2.3213,-2.1707,-2.0382,-1.942,-1.9301,-1.9152,-1.9042,-1.9222,-1.9222,-1.9222,-1.9222,-1.8903,-1.8599,-1.8599,-1.83,-1.8221,-1.8709,-1.8646,-1.9078,-2.0488,-2.0284,-2.0402,-2.1339,-2.1261,-2.1158,-2.119,-2.119,-2.119,-2.119,-2.119,-2.119,-2.119,-2.119,-2.119,-2.119,-2.119,-2.119,-2.119,-2.119,-2.119,-2.119,-2.119,-2.119,-2.119,-2.119,-2.119,-2.119,-2.119,-2.119,-2.119,-2.119,-2.119,-2.119,-2.119,-2.119,-2.119,-2.119,-2.119,-2.119,-2.119,-2.0523,-1.9711,-1.9792,-1.9006,-1.8157,-1.8329,-1.8428,-1.8518,-1.8611,-1.8607,-1.8712,-1.9112,-1.9686,-2.0398,-2.1276,-2.1416,-2.1368,-2.1368,-2.0769,-2.0285,-2.0285,-1.9436,-1.8827,-1.9,-1.9034,-1.9091,-1.9264,-1.9941,-2.0262,-1.9861,-2.0102,-1.9975,-1.9218,-1.9482,-1.9723,-1.9815,-1.9815,-2.0182,-2.1029,-2.071,-2.0733,-2.119,-2.119,-2.119,-2.119,-2.119,-2.119,-2.119,-2.1109,-2.0802,-2.3625,0.0,-2.1923,0.0,-2.0352,-1.9923,-1.942,-1.9152,-1.9002,-1.9042,-1.8891,-1.8812,-1.9002,-1.8551,-1.8166,-1.8166,-1.7988,-1.7877,-1.7942,-1.8169,-1.8501,-1.8887,-1.9385,-1.9856,-2.027,-2.0701,-2.0999,-2.119,-2.119,-2.119,-2.119,-2.119,-2.119,-2.119,-2.119,-2.119,-2.119,-2.119,-2.119,-2.119,-2.119,-2.119,-2.119,-2.119,-2.119,-2.119,-2.119,-2.119,-2.119,-2.119,-2.119,-2.119,-2.119,-2.119,-2.119,-2.119,-2.119,-2.119,-2.119,-2.119,-2.119,-2.119,-2.0523,-1.9769,-2.0182,-1.9269,-1.8295,-1.9229,-1.9178,-1.8936,-1.9396,-1.9511,-1.9534,-1.9603,-1.9994,-2.0404,-2.0542,-2.0922,-2.1221,-2.1221,-2.0454,-1.978,-1.978,-1.8902,-1.8524,-1.9447,-1.9585,-1.9925,-2.0787,-2.0595,-2.0389,-2.032,-1.9998,-1.9895,-2.0182,-1.9895,-1.9872,-2.0285,-2.032,-2.0377,-2.0504,-2.0871,-2.1132,-2.119,-2.119,-2.119,-2.119,-2.119,-2.119,-2.119,-2.071,-2.0481,-2.3429,-2.2664,-2.1921,-2.1235,-2.0692,-2.0196,-1.946,-1.9073,-1.8851,-1.8962,-1.8643,-1.8411,-1.8772,-1.8442,-1.8018,-1.7805,-1.7507,-1.7242,-1.7126,-1.7257,-1.7523,-1.8029,-1.847,-1.8988,-1.9758,-2.0204,-2.0603,-2.0999,-2.1126,-2.119,-2.119,-2.119,-2.119,-2.119,-2.119,-2.119,-2.119,-2.119,-2.119,-2.119,-2.119,-2.119,-2.119,-2.119,-2.119,-2.119,-2.119,-2.119,-2.119,-2.119,-2.119,-2.119,-2.119,-2.119,-2.119,-2.119,-2.119,-2.119,-2.119,-2.1006,-2.0745,-2.0745,-2.0262,-1.9734,-1.9941,-1.9539,-1.9074,-1.9562,-1.9528,-1.939,-1.9631,-1.9688,-1.9688,-1.9688,-2.0056,-2.0412,-2.0412,-2.0802,-2.1109,-2.0791,-2.0171,-1.9597,-1.9298,-1.8862,-1.8724,-1.9172,-1.9734,-2.0251,-2.0687,-2.0791,-2.0868,-2.0868,-2.0672,-2.0492,-2.0423,-2.0469,-2.0492,-2.0423,-2.0412,-2.0538,-2.0845,-2.0799,-2.0871,-2.119,-2.119,-2.119,-2.119,-2.119,-2.119,-2.119,-2.0971,-2.0687,-2.3132,-2.2527,-2.1993,-2.1669,-2.1012,-2.0285,-1.962,-1.9033,-1.8652,-1.8803,-1.8402,-1.8121,-1.8451,-1.8127,-1.7705,-1.7386,-1.6986,-1.6625,-1.6473,-1.6533,-1.6811,-1.7364,-1.7731,-1.8273,-1.9098,-1.9649,-2.0172,-2.0667,-2.0967,-2.1169,-2.119,-2.119,-2.119,-2.119,-2.119,-2.119,-2.119,-2.119,-2.119,-2.119,-2.119,-2.119,-2.119,-2.119,-2.119,-2.119,-2.119,-2.119,-2.119,-2.119,-2.119,-2.119,-2.119,-2.119,-2.119,-2.119,-2.119,-2.119,-2.119,-2.0948,-2.0595,-2.0595,-2.0274,-1.9895,-2.0033,-1.9895,-1.9746,-1.9998,-1.9975,-1.9907,-2.0063,-2.0067,-2.0033,-1.9907,-2.0251,-2.0595,-2.0595,-2.0925,-2.1086,-2.0676,-2.0205,-1.9746,-1.9344,-1.9172,-1.9137,-1.9264,-1.993,-2.0458,-2.0584,-2.096,-2.119,-2.119,-2.119,-2.104,-2.0641,-2.0971,-2.104,-2.063,-2.0595,-2.0768,-2.1178,-2.0833,-2.0779,-2.119,-2.119,-2.119,-2.119,-2.119,-2.119,-2.119,-2.1063,-2.0768,-2.2593,-2.2195,-2.1688,-2.1836,-2.114,-2.0311,-1.9965,-1.9134,-1.8442,-1.8442,-1.8201,-1.8,-1.804,-1.7441,-1.6944,-1.6918,-1.6475,-1.6123,-1.6132,-1.6403,-1.6603,-1.6638,-1.7295,-1.7808,-1.807,-1.9021,-1.9769,-2.0139,-2.0635,-2.0999,-2.119,-2.119,-2.119,-2.119,-2.119,-2.119,-2.119,-2.119,-2.119,-2.119,-2.119,-2.119,-2.119,-2.119,-2.119,-2.119,-2.119,-2.119,-2.119,-2.119,-2.119,-2.119,-2.119,-2.119,-2.119,-2.119,-2.119,-2.119,-2.119,-2.1178,-2.1155,-2.1155,-2.081,-2.0469,-2.0971,-2.0465,-1.9895,-2.0856,-2.0776,-2.0481,-2.0994,-2.1121,-2.0994,-2.0481,-2.0756,-2.1155,-2.1155,-2.1178,-2.119,-2.1155,-2.0722,-2.0366,-2.0343,-1.9953,-1.9803,-2.0262,-2.0377,-2.0584,-2.1098,-2.1178,-2.119,-2.119,-2.119,-2.119,-2.1155,-2.1178,-2.119,-2.1155,-2.1155,-2.1167,-2.119,-2.1167,-2.1167,-2.119,-2.119,-2.119,-2.119,-2.119,-2.119,-2.1178,-2.0676,-2.0435,-2.2245,-2.1854,-2.1431,-2.1298,-2.0746,-2.0082,-1.942,-1.8804,-1.8402,-1.8402,-1.8201,-1.8,-1.8,-1.762,-1.7192,-1.6961,-1.6555,-1.6242,-1.6131,-1.6202,-1.6368,-1.6568,-1.6846,-1.7226,-1.774,-1.8283,-1.8921,-1.9726,-2.015,-2.0571,-2.0999,-2.1126,-2.119,-2.119,-2.119,-2.119,-2.119,-2.119,-2.119,-2.119,-2.119,-2.119,-2.119,-2.119,-2.119,-2.119,-2.119,-2.119,-2.119,-2.119,-2.119,-2.119,-2.119,-2.119,-2.119,-2.119,-2.119,-2.119,-2.119,-2.0983,-2.0687,-2.0687,-2.0561,-2.0446,-2.063,-2.0695,-2.0741,-2.1098,-2.1063,-2.0971,-2.1144,-2.119,-2.1144,-2.0971,-2.1063,-2.119,-2.119,-2.119,-2.119,-2.119,-2.0756,-2.0412,-2.0412,-2.0262,-2.0217,-2.0377,-2.0687,-2.0994,-2.1178,-2.119,-2.119,-2.119,-2.119,-2.119,-2.119,-2.119,-2.119,-2.119,-2.119,-2.119,-2.119,-2.119,-2.119,-2.119,-2.0732,-2.0732,-2.119,-2.119,-2.119,-2.119,-2.1006,-2.0662,-2.2019,0.0,0.0,-2.1201,-2.0585,-1.9875,-1.943,-1.8813,-1.8356,-1.8287,-1.8121,-1.8,-1.8,-1.7723,-1.7385,-1.6978,-1.6499,-1.6151,-1.6034,-1.607,-1.6202,-1.6473,-1.6577,-1.6811,-1.7373,-1.7706,-1.8206,-1.8998,-1.9584,-2.015,-2.0603,-2.0935,-2.1126,-2.119,-2.119,-2.119,-2.119,-2.119,-2.119,-2.119,-2.119,-2.119,-2.119,-2.119,-2.119,-2.119,-2.119,-2.119,-2.119,-2.119,-2.119,-2.119,-2.119,-2.119,-2.119,-2.119,-2.119,-2.119,-2.119,-2.0971,-2.0664,-2.0664,-2.0664,-2.0664,-2.0664,-2.0925,-2.119,-2.119,-2.119,-2.119,-2.119,-2.119,-2.119,-2.119,-2.119,-2.119,-2.119,-2.119,-2.119,-2.119,-2.0925,-2.0664,-2.0664,-2.0664,-2.0664,-2.0664,-2.0971,-2.119,-2.119,-2.119,-2.119,-2.119,-2.119,-2.119,-2.119,-2.119,-2.119,-2.119,-2.119,-2.119,-2.119,-2.0955,-2.0828,-2.0828,-2.0107,-1.9966,-2.0463,-2.07,-2.0924,-2.1094,-2.0924,-2.0431,0.0,0.0,0.0,-2.1629,-2.0663,-1.9707,-2.009,-1.9225,-1.8264,-1.8057,-1.8023,-1.8023,-1.8031,-1.7763,-1.7385,-1.6995,-1.631,-1.5814,-1.5814,-1.5982,-1.6149,-1.6289,-1.6491,-1.6691,-1.6874,-1.7373,-1.7808,-1.8003,-1.8998,-1.9758,-2.0107,-2.0635,-2.0999,-2.119,-2.119,-2.119,-2.119,-2.119,-2.119,-2.119,-2.119,-2.119,-2.119,-2.119,-2.119,-2.119,-2.119,-2.119,-2.119,-2.119,-2.119,-2.1178,-2.119,-2.119,-2.1178,-2.119,-2.119,-2.119,-2.119,-2.119,-2.119,-2.119,-2.119,-2.119,-2.119,-2.119,-2.119,-2.119,-2.119,-2.119,-2.119,-2.119,-2.119,-2.119,-2.119,-2.119,-2.119,-2.119,-2.119,-2.119,-2.119,-2.119,-2.119,-2.119,-2.119,-2.119,-2.119,-2.119,-2.119,-2.119,-2.119,-2.119,-2.119,-2.119,-2.119,-2.119,-2.119,-2.1158,-2.1158,-2.1158,-2.1126,-2.0463,-2.0063,-2.0063,-1.9342,-1.8977,-1.9011,-1.9737,-2.0334,-2.0828,-2.0302,-1.9639,-2.2002,0.0,0.0,0.0,0.0,0.0,-1.9431,-1.9004,-1.8704,-1.8856,-1.8871,-1.8845,-1.8749,-1.8424,-1.7967,-1.7407,-1.6724,-1.6235,-1.6154,-1.6263,-1.6408,-1.6687,-1.6786,-1.6821,-1.6901,-1.7373,-1.7867,-1.8331,-1.9131,-1.9868,-2.0496,-2.0903,-2.1126,-2.119,-2.119,-2.119,-2.119,-2.119,-2.119,-2.119,-2.119,-2.119,-2.119,-2.119,-2.119,-2.119,-2.119,-2.119,-2.119,-2.119,-2.0971,-2.0653,-2.1052,-2.0971,-2.0664,-2.1063,-2.119,-2.119,-2.119,-2.119,-2.119,-2.119,-2.119,-2.119,-2.119,-2.119,-2.119,-2.119,-2.119,-2.119,-2.119,-2.119,-2.119,-2.119,-2.119,-2.119,-2.119,-2.119,-2.119,-2.119,-2.119,-2.119,-2.119,-2.119,-2.119,-2.119,-2.119,-2.119,-2.119,-2.119,-2.119,-2.119,-2.119,-2.119,-2.119,-2.119,-2.0955,-2.0431,-2.0399,-2.0172,-1.9639,-1.9408,-1.9309,-1.9309,-1.8633,-1.8465,-1.8867,-1.9166,-1.9375,-1.9507,-1.8867,-1.8465,-2.2341,0.0,0.0,-2.0806,0.0,0.0,-1.9655,-1.9363,-1.9187,-1.9401,-1.9383,-1.9277,-1.9158,-1.8873,-1.8509,-1.8059,-1.7652,-1.7158,-1.6639,-1.665,-1.6835,-1.713,-1.7166,-1.7224,-1.7359,-1.7731,-1.8104,-1.8517,-1.9202,-1.9933,-2.0754,-2.1042,-2.119,-2.119,-2.119,-2.119,-2.119,-2.119,-2.119,-2.119,-2.119,-2.119,-2.119,-2.119,-2.119,-2.119,-2.119,-2.119,-2.1178,-2.0971,-2.0676,-2.0435,-2.0733,-2.0664,-2.0469,-2.1006,-2.119,-2.119,-2.119,-2.119,-2.119,-2.119,-2.119,-2.119,-2.119,-2.119,-2.119,-2.119,-2.119,-2.119,-2.119,-2.119,-2.119,-2.119,-2.119,-2.119,-2.119,-2.119,-2.119,-2.119,-2.119,-2.119,-2.119,-2.119,-2.119,-2.119,-2.119,-2.119,-2.119,-2.119,-2.119,-2.119,-2.119,-2.1094,-2.0764,-2.0732,-2.0431,-1.9704,-1.9639,-1.9441,-1.9011,-1.8744,-1.8566,-1.8566,-1.7901,-1.7706,-1.8003,-1.8398,-1.8566,-1.8576,-1.8172,-1.7833,-2.2829,-2.2206,0.0,-2.1403,-2.0939,0.0,-2.0348,-2.0004,-1.9733,-1.9875,-1.9746,-1.9544,-1.9394,-1.9249,-1.907,-1.8755,-1.8831,-1.8528,-1.7401,-1.7339,-1.7453,-1.7696,-1.7658,-1.7716,-1.8053,-1.8278,-1.846,-1.8633,-1.9323,-2.0085,-2.095,-2.1129,-2.119,-2.119,-2.119,-2.119,-2.119,-2.119,-2.119,-2.119,-2.119,-2.119,-2.119,-2.1132,-2.1144,-2.119,-2.1132,-2.1109,-2.1075,-2.0595,-2.0412,-2.0412,-2.0412,-2.0412,-2.0469,-2.1006,-2.119,-2.119,-2.119,-2.119,-2.119,-2.119,-2.119,-2.119,-2.119,-2.119,-2.119,-2.119,-2.119,-2.119,-2.119,-2.119,-2.119,-2.119,-2.119,-2.119,-2.119,-2.119,-2.119,-2.119,-2.119,-2.119,-2.119,-2.119,-2.119,-2.119,-2.119,-2.119,-2.119,-2.119,-2.119,-2.119,-2.119,-2.0892,-2.0161,-2.0096,-1.9737,-1.8944,-1.8877,-1.8844,-1.8777,-1.8206,-1.7867,-1.7867,-1.7235,-1.6908,-1.6908,-1.7569,-1.7867,-1.7867,-1.7867,-1.7535,-2.3271,-2.2841,-2.2261,-2.1682,-2.1446,0.0,-2.0522,-2.0303,-2.0324,-2.0537,-2.0448,-2.0201,-1.9935,-2.0019,-1.9817,-1.8936,-1.9687,-2.0177,-1.9496,-1.8948,-1.8729,-1.891,-1.8519,-1.8172,-1.8118,-1.8506,-1.886,-1.8969,-1.9927,-2.0816,-2.1515,-2.1335,-2.119,-2.119,-2.119,-2.119,-2.119,-2.119,-2.119,-2.119,-2.119,-2.119,-2.1178,-2.0745,-2.0779,-2.1178,-2.0733,-2.0561,-2.0549,-2.0446,-2.0412,-2.0412,-2.0412,-2.0412,-2.0469,-2.1006,-2.119,-2.119,-2.119,-2.119,-2.119,-2.119,-2.119,-2.119,-2.119,-2.119,-2.119,-2.119,-2.119,-2.119,-2.119,-2.119,-2.119,-2.119,-2.119,-2.119,-2.119,-2.119,-2.119,-2.119,-2.119,-2.119,-2.119,-2.119,-2.119,-2.119,-2.119,-2.119,-2.119,-2.119,-2.119,-2.119,-2.119,-2.0892,-2.0161,-2.0096,-1.9573,-1.8273,-1.8206,-1.7935,-1.7339,-1.7166,-1.7107,-1.7107,-1.6968,-1.6908,-1.6908,-1.7038,-1.7107,-1.7107,-1.7107,-1.7038,-2.3463,-2.3198,-2.2841,-2.2267,-2.1928,0.0,0.0,-2.0807,-2.0727,-2.1019,-2.072,-2.0384,-2.0311,-2.0124,-1.9954,-1.9956,-2.0568,-2.1189,-2.1574,-2.0699,-2.009,-2.0205,-1.9841,-1.9611,-1.963,-1.994,-2.0277,-2.0564,-2.093,-2.1337,-2.1762,-2.1413,-2.119,-2.119,-2.119,-2.119,-2.119,-2.119,-2.119,-2.119,-2.119,-2.119,-2.119,-2.0925,-2.096,-2.1178,-2.0925,-2.0641,-2.0412,-2.0412,-2.0412,-2.0412,-2.0412,-2.0412,-2.0469,-2.1006,-2.119,-2.119,-2.119,-2.119,-2.119,-2.119,-2.119,-2.119,-2.119,-2.119,-2.119,-2.119,-2.119,-2.119,-2.119,-2.119,-2.119,-2.119,-2.119,-2.119,-2.119,-2.119,-2.119,-2.119,-2.119,-2.119,-2.119,-2.119,-2.119,-2.119,-2.119,-2.119,-2.119,-2.119,-2.1063,-2.07,-2.0667,-2.0226,-1.9133,-1.9034,-1.86,-1.7501,-1.7432,-1.7304,-1.6908,-1.6908,-1.6908,-1.6908,-1.6908,-1.6908,-1.6908,-1.6908,-1.6908,-1.6908,-1.6908,-1.6908,-2.3641,-2.3522,-2.342,-2.2889,-2.2463,-2.2094,0.0,0.0,0.0,-2.1316,-2.0861,-2.0446,-2.0597,-2.0083,-1.9945,-2.0812,-2.1144,-2.1718,-2.2944,-2.2094,-2.136,-2.1392,-2.1145,-2.1068,-2.127,-2.1298,-2.1537,-2.2182,-2.1788,-2.1711,-2.2114,-2.1608,-2.1339,-2.1339,-2.1247,-2.119,-2.119,-2.119,-2.1247,-2.1339,-2.1339,-2.1339,-2.1339,-2.1236,-2.119,-2.119,-2.1086,-2.0791,-2.0423,-2.0515,-2.0504,-2.0412,-2.0412,-2.0469,-2.0607,-2.104,-2.119,-2.119,-2.119,-2.119,-2.119,-2.119,-2.119,-2.119,-2.119,-2.119,-2.119,-2.119,-2.119,-2.119,-2.119,-2.119,-2.119,-2.119,-2.119,-2.119,-2.119,-2.119,-2.119,-2.119,-2.119,-2.119,-2.119,-2.119,-2.119,-2.119,-2.119,-2.119,-2.119,-2.1094,-2.0764,-2.0161,-1.9966,-1.9365,-1.8104,-1.8003,-1.7706,-1.6943,-1.6908,-1.6908,-1.6908,-1.6908,-1.6908,-1.6908,-1.6908,-1.6908,-1.6908,-1.6908,-1.6908,-1.6908,-1.6908,-1.6908,-2.4024,-2.4024,-2.3907,-2.342,-2.3271,-2.2987,-2.2063,0.0,-2.1683,-2.1302,0.0,-2.0765,-2.0619,0.0,0.0,-2.0468,-2.093,-2.1586,-2.2388,-2.2351,-2.2313,-2.2483,-2.2042,-2.168,-2.1728,-2.1138,-2.1286,-2.2546,-2.1772,-2.1739,-2.2886,-2.2229,-2.1814,-2.1814,-2.1431,-2.119,-2.119,-2.119,-2.142,-2.1814,-2.1814,-2.1814,-2.1824,-2.1408,-2.119,-2.1167,-2.0687,-2.0469,-2.0446,-2.0925,-2.0814,-2.0412,-2.0412,-2.0687,-2.1121,-2.1178,-2.119,-2.119,-2.119,-2.119,-2.119,-2.119,-2.119,-2.119,-2.119,-2.119,-2.119,-2.119,-2.119,-2.119,-2.119,-2.119,-2.119,-2.119,-2.119,-2.119,-2.119,-2.119,-2.119,-2.119,-2.119,-2.119,-2.119,-2.119,-2.119,-2.119,-2.119,-2.119,-2.119,-2.0624,-2.0193,-2.0096,-1.9507,-1.88,-1.807,-1.8003,-1.7706,-1.6943,-1.6908,-1.6908,-1.6908,-1.6908,-1.6908,-1.6908,-1.6908,-1.6908,-1.6908,-1.6908,-1.6908,-1.6908,-1.6908,-1.6908,-2.4083,-2.4083,-2.4054,-2.3848,-2.3611,-2.33,-2.2866,-2.2525,-2.2175,-2.1702,0.0,0.0,0.0,0.0,0.0,0.0,-2.1307,-2.1744,-2.2332,-2.2503,-2.2774,-2.3334,-2.2787,-2.249,-2.2798,-2.2472,-2.2476,-2.3165,-2.2548,-2.2428,-2.3078,-2.2617,-2.2363,-2.2363,-2.2157,-2.2075,-2.2075,-2.2075,-2.2178,-2.2363,-2.2032,-2.1894,-2.1871,-2.1399,-2.119,-2.1178,-2.0971,-2.0687,-2.0446,-2.0983,-2.0891,-2.0435,-2.0733,-2.1006,-2.119,-2.119,-2.119,-2.119,-2.119,-2.119,-2.119,-2.119,-2.119,-2.119,-2.119,-2.119,-2.119,-2.119,-2.119,-2.119,-2.119,-2.119,-2.119,-2.119,-2.119,-2.119,-2.119,-2.119,-2.119,-2.119,-2.119,-2.119,-2.119,-2.119,-2.119,-2.119,-2.119,-2.1063,-2.0635,-2.0302,-1.9802,-1.8967,-1.86,-1.8138,-1.7407,-1.7373,-1.7235,-1.6908,-1.6908,-1.6908,-1.6908,-1.6908,-1.6908,-1.6908,-1.6908,-1.6908,-1.6908,-1.6908,-1.6908,-1.6908,-1.6908,-1.6908,-2.3854,-2.3864,-2.3874,-2.4073,-2.3848,-2.3552,-2.3433,-2.3095,-2.2677,-2.2187,-2.1782,0.0,0.0,0.0,-2.0854,-2.1441,0.0,-2.1711,-2.2207,-2.2285,-2.2662,-2.3629,-2.3417,-2.3356,-2.3717,-2.3446,-2.3335,-2.3677,-2.3159,-2.2994,-2.3293,-2.3062,-2.2891,-2.2891,-2.2754,-2.2719,-2.2719,-2.2719,-2.2742,-2.2891,-2.249,-2.2238,-2.2122,-2.1776,-2.1466,-2.119,-2.119,-2.0983,-2.0641,-2.104,-2.0971,-2.0653,-2.1052,-2.119,-2.119,-2.119,-2.119,-2.119,-2.119,-2.119,-2.119,-2.119,-2.119,-2.1224,-2.1362,-2.1408,-2.1431,-2.1569,-2.1615,-2.1615,-2.1615,-2.1615,-2.1615,-2.1615,-2.1512,-2.1408,-2.1408,-2.1293,-2.119,-2.119,-2.119,-2.119,-2.119,-2.119,-2.119,-2.119,-2.119,-2.0924,-2.0193,-1.9933,-1.9342,-1.8138,-1.7808,-1.7467,-1.6943,-1.6908,-1.6908,-1.6908,-1.6908,-1.6908,-1.6908,-1.6908,-1.6908,-1.6908,-1.6908,-1.6908,-1.6908,-1.6908,-1.6908,-1.6908,-1.6908,-1.6908,-2.3288,-2.3321,-2.3365,-2.3939,-2.4083,-2.3966,-2.3492,-2.3403,-2.3228,-2.2695,-2.2549,-2.2549,-2.2561,-2.2144,-2.1853,0.0,-2.1454,0.0,0.0,-2.1525,-2.1778,-2.3258,-2.3854,-2.4177,-2.4189,-2.3482,-2.3261,-2.3861,-2.3324,-2.3239,-2.3838,-2.3553,-2.3384,-2.3384,-2.2937,-2.2719,-2.2719,-2.2719,-2.2926,-2.3384,-2.3361,-2.3098,-2.265,-2.2673,-2.2121,-2.119,-2.119,-2.119,-2.1178,-2.119,-2.119,-2.1178,-2.119,-2.119,-2.119,-2.119,-2.119,-2.119,-2.119,-2.119,-2.119,-2.119,-2.119,-2.1282,-2.1755,-2.1871,-2.2007,-2.249,-2.2661,-2.2661,-2.2661,-2.2661,-2.2661,-2.2661,-2.226,-2.1871,-2.1871,-2.1514,-2.119,-2.119,-2.119,-2.119,-2.119,-2.119,-2.119,-2.119,-2.119,-2.0924,-2.0193,-1.9474,-1.8777,-1.807,-1.7373,-1.6943,-1.6908,-1.6908,-1.6908,-1.6908,-1.6908,-1.6908,-1.6908,-1.6908,-1.6908,-1.6908,-1.6908,-1.6908,-1.6908,-1.6908,-1.6908,-1.6908,-1.6908,-1.6908,-2.2976,-2.2975,-2.3066,-2.3563,-2.3764,-2.3898,-2.4124,-2.3885,-2.3543,-2.3323,-2.2947,-2.2661,-2.2621,-2.2487,0.0,0.0,0.0,-2.2042,0.0,-2.1742,-2.1984,-2.2834,-2.3385,-2.3659,-2.3659,-2.3632,-2.3531,-2.3396,-2.3523,-2.3666,-2.3897,-2.392,-2.3936,-2.3936,-2.3775,-2.3684,-2.3684,-2.3684,-2.3764,-2.3936,-2.3568,-2.3316,-2.3132,-2.2834,-2.2523,-2.2178,-2.1812,-2.1663,-2.164,-2.1339,-2.119,-2.119,-2.119,-2.119,-2.119,-2.119,-2.119,-2.119,-2.119,-2.119,-2.1247,-2.156,-2.1663,-2.1766,-2.2271,-2.2421,-2.2467,-2.2639,-2.2719,-2.2719,-2.2719,-2.2719,-2.2719,-2.2719,-2.2547,-2.2329,-2.1974,-2.1789,-2.1571,-2.1259,-2.119,-2.1031,-2.056,-2.0463,-2.0463,-2.0463,-2.0074,-1.9497,-1.88,-1.8499,-1.807,-1.7339,-1.7038,-1.6908,-1.6908,-1.6908,-1.6908,-1.6908,-1.6908,-1.6908,-1.6908,-1.6908,-1.6908,-1.6908,-1.6908,-1.6908,-1.6908,-1.6908,-1.6908,-1.6908,-1.6908,-1.6908,-2.2523,-2.255,-2.2697,-2.3176,-2.3377,-2.3619,-2.4278,-2.4131,-2.3818,-2.3738,-2.3501,-2.3264,-2.2938,-2.3022,-2.3083,0.0,0.0,0.0,0.0,-2.2066,-2.2309,-2.265,-2.3098,-2.3476,-2.3659,-2.3701,-2.3652,-2.3504,-2.3618,-2.3824,-2.4007,-2.4127,-2.42,-2.42,-2.42,-2.42,-2.42,-2.42,-2.42,-2.4189,-2.3867,-2.3579,-2.3396,-2.311,-2.2857,-2.2684,-2.2145,-2.1894,-2.1848,-2.1408,-2.119,-2.119,-2.119,-2.119,-2.119,-2.119,-2.119,-2.119,-2.119,-2.1316,-2.1491,-2.1791,-2.202,-2.2294,-2.28,-2.2949,-2.2983,-2.3167,-2.3224,-2.3224,-2.3224,-2.3224,-2.3224,-2.3224,-2.3075,-2.2857,-2.2502,-2.2082,-2.1676,-2.144,-2.0958,-2.05,-2.0064,-1.9639,-1.9431,-1.9671,-1.9309,-1.8777,-1.8104,-1.8003,-1.774,-1.6968,-1.6908,-1.6908,-1.6908,-1.6908,-1.6908,-1.6908,-1.6908,-1.6908,-1.6908,-1.6908,-1.6908,-1.6908,-1.6908,-1.6908,-1.6908,-1.6908,-1.6908,-1.6908,-1.6908,-1.6908]},{"header":{"parameterUnit":"m.s-1","parameterCategory":1,"la1":30.6,"la2":29.2853,"lo1":-89.7004,"lo2":-87.6739,"dy":0.0162,"dx":0.0183,"nx":112,"ny":82,"refTime":"2026-03-24T12:00:00:Z","depth":0,"parameterNumber":3,"parameterNumberName":"V-component_of_WINDS"},"data":[0.0,0.0,0.0,0.0,0.0,0.0,0.0,0.0,0.0,0.0,0.0,0.0,0.0,0.0,0.0,0.0,0.0,0.0,0.0,0.0,0.0,0.0,0.0,0.0,0.0,0.0,0.0,0.0,0.0,0.0,0.0,0.0,0.0,0.0,0.0,0.0,0.0,0.0,0.0,0.0,0.0,0.0,0.0,0.0,0.0,0.0,0.0,0.0,0.0,0.0,0.0,0.0,0.0,0.0,0.0,0.0,0.0,0.0,0.0,0.0,0.0,0.0,0.0,0.0,0.0,0.0,0.0,0.0,0.0,0.0,0.0,0.0,0.0,0.0,0.0,0.0,0.0,0.0,0.0,0.0,0.0,0.0,0.0,0.0,0.0,0.0,0.0,0.0,0.0,0.0,0.1463,0.1226,0.076,0.0362,0.0103,-0.1806,-0.2924,-0.2909,0.0,0.0,0.0,0.0,0.0,0.0,0.0,0.0,0.0,0.0,0.0,0.0,0.0,0.0,0.0,0.0,0.0,0.0,0.0,0.0,0.0,0.0,0.0,0.0,0.0,0.0,0.0,0.0,0.0,0.0,0.0,0.0,0.0,0.0,0.0,0.0,0.0,0.0,0.0,0.0,0.0,0.0,0.0,0.0,0.0,0.0,0.0,0.0,0.0,0.0,0.0,0.0,0.0,0.0,0.0,0.0,0.0,0.0,0.0,0.0,0.0,0.0,0.0,0.0,0.0,0.0,0.0,0.0,0.0,0.0,0.0,0.0,0.0,0.0,0.0,0.0,0.0,0.0,0.0,0.0,0.0,0.0,0.0,0.0,0.0,0.0,0.0,0.0,0.0,0.0,0.0,0.0,0.0,0.0,0.0,0.0,0.0,0.0,0.0,0.0,0.0,0.0,0.0,0.0,0.1419,0.1223,0.0902,0.0609,0.0355,-0.1013,-0.2138,-0.2859,0.0,0.0,0.0,0.0,0.0,0.0,0.0,0.0,0.0,0.0,0.0,0.0,0.0,0.0,0.0,0.0,0.0,0.0,0.0,0.0,0.0,0.0,0.0,0.0,0.0,0.0,0.0,0.0,0.0,0.0,0.0,0.0,0.0,0.0,0.0,0.0,0.0,0.0,0.0,0.0,0.0,0.0,0.0,0.0,0.0,0.0,0.0,0.0,0.0,0.0,0.0,0.0,0.0,0.0,0.0,0.0,0.0,0.0,0.0,0.0,0.0,0.0,0.0,0.0,0.0,0.0,0.0,0.0,0.0,0.0,0.0,0.0,0.0,0.0,0.0,0.0,0.0,0.0,0.0,0.0,0.0,0.0,0.0,0.0,0.0,0.0,0.0,0.0,0.0,0.0,0.0,0.0,0.0,0.0,0.0,0.0,0.0,0.0,0.0,0.0,0.0,0.0,0.0,0.1538,0.145,0.1243,0.0955,0.0707,0.0404,-0.0807,-0.1983,-0.2859,-0.4371,0.0,0.0,0.0,0.0,0.0,0.0,0.0,0.0,0.0,0.0,0.0,0.0,0.0,0.0,0.0,0.0,0.0,0.0,0.0,0.0,0.0,0.0,0.0,0.0,0.0,0.0,0.0,0.0,0.0,0.0,0.0,0.0,0.0,0.0,0.0,0.0,0.0,0.0,0.0,0.0,0.0,0.0,0.0,0.0,0.0,0.0,0.0,0.0,0.0,0.0,0.0,0.0,0.0,0.0,0.0,0.0,0.0,0.0,0.0,0.0,0.0,0.0,0.0,0.0,0.0,0.0,0.0,0.0,0.0,0.0,0.0,0.0,0.0,0.0,0.0,0.0,0.0,0.0,0.0,0.0,0.0,0.0,0.0,0.0,0.0,0.0,0.0,0.0,0.0,0.0,0.0,0.0,0.0,0.0,0.0,0.0,0.0,0.0,0.0,0.0,0.0,0.0,0.1573,0.1541,0.1312,0.1061,0.0808,0.0606,-0.0402,-0.153,-0.2715,-0.3594,0.0,0.0,0.0,0.0,0.0,0.0,0.0,0.0,0.0,0.0,0.0,0.0,0.0,0.0,0.0,0.0,0.0,0.0,0.0,0.0,0.0,0.0,0.0,0.0,0.0,0.0,0.0,0.0,0.0,0.0,0.0,0.0,0.0,0.0,0.0,0.0,0.0,0.0,0.0,0.0,0.0,0.0,0.0,0.0,0.0,0.0,0.0,0.0,0.0,0.0,0.0,0.0,0.0,0.0,0.0,0.0,0.0,0.0,0.0,0.0,0.0,0.0,0.0,0.0,0.0,0.0,0.0,0.0,0.0,0.0,0.0,0.0,0.0,0.0,0.0,0.0,0.0,0.0,0.0,0.0,0.0,0.0,0.0,0.0,0.0,0.0,0.0,0.0,0.0,0.0,0.0,0.0,0.0,0.0,0.0,0.0,0.0,0.0,0.0,0.0,0.0,0.0,0.1579,0.1614,0.1566,0.1314,0.1162,0.1162,0.0845,-0.0292,-0.2379,-0.2614,0.0,0.0,0.0,0.0,0.0,0.0,0.0,0.0,0.0,0.0,0.0,0.0,0.0,0.0,0.0,0.0,0.0,0.0,0.0,0.0,0.0,0.0,0.0,0.0,0.0,0.0,0.0,0.0,0.0,0.0,0.0,0.0,0.0,0.0,0.0,0.0,0.0,0.0,0.0,0.0,0.0,0.0,0.0,0.0,0.0,0.0,0.0,0.0,0.0,0.0,0.0,0.0,0.0,0.0,0.0,0.0,0.0,0.0,0.0,0.0,0.0,0.0,0.0,0.0,0.0,0.0,0.0,0.0,0.0,0.0,0.0,0.0,0.0,0.0,0.0,0.0,0.0,0.0,0.0,0.0,0.0,0.0,0.0,0.0,0.0,0.0,0.0,0.0,0.0,0.0,0.0,0.0,0.0,0.0,0.0,0.0,0.0,0.0,0.0,0.0,0.0,0.0,0.1546,0.1568,0.1586,0.134,0.1191,0.1191,0.0937,0.0195,-0.1285,0.0,0.0,0.0,0.0,0.0,0.0,0.0,0.0,0.0,0.0,0.0,0.0,0.0,0.0,0.0,0.0,0.0,0.0,0.0,0.0,0.0,0.0,0.0,0.0,0.0,0.0,0.0,0.0,0.0,0.0,0.0,0.0,0.0,0.0,0.0,0.0,0.0,0.0,0.0,0.0,0.0,0.0,0.0,0.0,0.0,0.0,0.0,0.0,0.0,0.0,0.0,0.0,0.0,0.0,0.0,0.0,0.0,0.0,0.0,0.0,0.0,0.0,0.0,0.0,0.0,0.0,0.0,0.0,0.0,0.0,0.0,0.0,0.0,0.0,0.0,0.0,0.0,0.0,0.0,0.0,0.0,0.0,0.0,0.0,0.0,0.0,0.0,0.0,0.0,0.0,0.0,0.0,0.0,0.0,0.0,0.0,0.0,0.0,0.0,0.0,0.0,0.0,0.2635,0.2337,0.2122,0.2137,0.1663,0.1322,0.1314,0.1112,0.0573,-0.0514,0.0,0.0,0.0,0.0,0.0,0.0,0.0,0.0,0.0,0.0,0.0,0.0,0.0,0.0,0.0,0.0,0.0,0.0,0.0,0.0,0.0,0.0,0.0,0.0,0.0,0.0,0.0,0.0,0.0,0.0,0.0,0.0,0.0,0.0,0.0,0.0,0.0,0.0,0.0,0.0,0.0,0.0,0.0,0.0,0.0,0.0,0.0,0.0,0.0,0.0,0.0,0.0,0.0,0.0,0.0,0.0,0.0,0.0,0.0,0.0,0.0,0.0,0.0,0.0,0.0,0.0,0.0,0.0,0.0,0.0,0.0,0.0,0.0,0.0,0.0,0.0,0.0,0.0,0.0,0.0,0.0,0.0,0.0,0.0,0.0,0.0,0.0,0.0,0.0,0.0,0.0,0.0,0.0,0.0,0.0,0.0,0.0,0.0,0.0,0.0,0.0,0.0,0.5016,0.4056,0.34,0.3334,0.2325,0.1607,0.1528,0.1498,0.0962,0.0,0.0,0.0,0.0,0.0,0.0,0.0,0.0,0.0,0.0,0.0,0.0,0.0,0.0,0.0,0.0,0.0,0.0,0.0,0.0,0.0,0.0,0.0,0.0,0.0,0.0,0.0,0.0,0.0,0.0,0.0,0.0,0.0,0.0,0.0,0.0,0.0,0.0,0.0,0.0,0.0,0.0,0.0,0.0,0.0,0.0,0.0,0.0,0.0,0.0,0.0,0.0,0.0,0.0,0.0,0.0,0.0,0.0,0.0,0.0,0.0,0.0,0.0,0.0,0.0,0.0,0.0,0.0,0.0,0.0,0.0,0.0,0.0,0.0,0.0,0.0,0.0,0.0,0.0,0.0,0.0,0.0,0.0,0.0,0.0,0.0,0.0,0.0,0.0,0.0,0.0,0.0,0.0,0.0,0.0,0.0,0.0,0.0,0.0,0.0,0.0,0.0,0.0,0.4907,0.4658,0.4538,0.4511,0.3786,0.3186,0.2984,0.2381,0.1761,0.1166,0.0,0.0,0.0,0.0,0.0,0.0,0.0,0.0,0.0,0.0,0.0,0.0,0.0,0.0,0.0,0.0,0.0,0.0,0.0,0.0,0.0,0.0,0.0,0.0,0.0,0.0,0.0,0.0,0.0,0.0,0.0,0.0,0.0,0.0,0.0,0.0,0.0,0.0,0.0,0.0,0.0,0.0,0.0,0.0,0.0,0.0,0.0,0.0,0.0,0.0,0.0,0.0,0.0,0.0,0.0,0.0,0.0,0.0,0.0,0.0,0.0,0.0,0.0,0.0,0.0,0.0,0.0,0.0,0.0,0.0,0.0,0.0,0.0,0.0,0.0,0.0,0.0,0.0,0.0,0.0,0.0,0.0,0.0,0.0,0.0,0.0,0.0,0.0,0.0,0.0,0.0,0.0,0.0,0.0,0.0,0.0,0.0,0.0,0.0,0.0,0.0,0.0,0.625,0.5875,0.5618,0.5615,0.484,0.4262,0.4049,0.3515,0.3125,0.2967,0.0,0.0,0.0,0.0,0.0,0.0,0.0,0.0,0.0,0.0,0.0,0.0,0.0,0.0,0.0,0.0,0.0,0.0,0.0,0.0,0.0,0.0,0.0,0.0,0.0,0.0,0.0,0.0,0.0,0.0,0.0,0.0,0.0,0.0,0.0,0.0,0.0,0.0,0.0,0.0,0.0,0.0,0.0,0.0,0.0,0.0,0.0,0.0,0.0,0.0,0.0,0.0,0.0,0.0,0.0,0.0,0.0,0.0,0.0,0.0,0.0,0.0,0.0,0.0,0.0,0.0,0.0,0.0,0.0,0.0,0.0,0.0,0.0,0.0,0.0,0.0,0.0,0.0,0.0,0.0,0.0,0.0,0.0,0.0,0.0,0.0,0.0,0.0,0.0,0.0,0.0,0.0,0.0,0.0,0.0,0.0,0.0,0.0,0.0,0.0,0.0,0.0,0.8243,0.7357,0.6742,0.6639,0.5651,0.4971,0.4872,0.477,0.4723,0.4714,0.0,0.0,0.0,0.0,0.0,0.0,0.0,0.0,0.0,0.0,0.0,0.0,0.0,0.0,0.0,0.0,0.0,0.0,0.0,0.0,0.0,0.0,0.0,0.0,0.0,0.0,0.0,0.0,0.0,0.0,0.0,0.0,0.0,0.0,0.0,0.0,0.0,0.0,0.0,0.0,0.0,0.0,0.0,0.0,0.0,0.0,0.0,0.0,0.0,0.0,0.0,0.0,0.0,0.0,0.0,0.0,0.0,0.0,0.0,0.0,1.3555,1.2644,0.0,0.0,0.0,0.0,0.0,0.0,0.0,0.0,0.0,0.0,0.0,0.0,0.0,0.0,0.0,0.0,0.0,0.0,0.0,0.0,0.0,0.0,0.0,0.0,0.0,0.0,0.0,0.0,0.0,0.0,0.0,0.0,0.0,0.0,0.0,0.0,0.0,0.0,0.0,0.0,0.7931,0.7937,0.7889,0.7711,0.6972,0.6431,0.6229,0.5465,0.4951,0.4768,0.421,0.0,0.0,0.0,0.0,0.0,0.0,0.0,0.0,0.0,0.0,0.0,0.0,0.0,0.0,0.0,0.0,0.0,0.0,0.0,0.0,0.0,0.0,0.0,0.0,0.0,0.0,0.0,0.0,0.0,0.0,0.0,0.0,0.0,0.0,0.0,0.0,0.0,0.0,0.0,0.0,0.0,0.0,0.0,0.0,0.0,0.0,0.0,0.0,0.0,0.0,0.0,0.0,0.0,0.0,0.0,0.0,0.0,0.0,0.0,1.518,1.4186,0.0,0.0,0.0,0.0,0.0,0.0,0.0,0.0,0.0,0.0,0.0,0.0,0.0,0.0,0.0,0.0,0.0,0.0,0.0,0.0,0.0,0.0,0.0,0.0,0.0,0.0,0.0,0.0,0.0,0.0,0.0,0.0,0.0,0.0,0.0,0.0,0.0,0.0,0.0,0.0,0.8095,0.8319,0.8421,0.8231,0.7805,0.7481,0.7352,0.675,0.6341,0.6268,0.5428,0.0,0.0,0.0,0.0,0.0,0.0,0.0,0.0,0.0,0.0,0.0,0.0,0.0,0.0,0.0,0.0,0.0,0.0,0.0,0.0,0.0,0.0,0.0,0.0,0.0,0.0,0.0,0.0,0.0,0.0,0.0,0.0,0.0,0.0,0.0,0.0,0.0,0.0,0.0,0.0,0.0,0.0,0.0,0.0,0.0,0.0,0.0,0.0,0.0,0.0,0.0,0.0,0.0,1.8117,1.8225,1.8287,1.8509,1.8647,1.8567,1.6861,1.6071,1.5886,1.4937,0.0,0.0,0.0,0.0,0.0,0.0,0.0,0.0,0.0,0.0,0.0,0.0,0.0,0.0,0.0,0.0,0.0,0.0,0.0,0.0,0.0,0.0,1.4712,1.3899,1.417,1.4244,1.2836,0.0,0.0,0.0,0.0,0.0,0.0,0.0,0.0,0.0,0.0,0.0,0.8357,0.8506,0.8554,0.8352,0.8216,0.8102,0.8102,0.7949,0.7834,0.7834,0.6828,0.6173,0.0,0.0,0.0,0.0,0.0,0.0,0.0,0.0,0.0,0.0,0.0,0.0,0.0,0.0,0.0,0.0,0.0,0.0,0.0,0.0,0.0,0.0,0.0,0.0,0.0,0.0,0.0,0.0,0.0,0.0,0.0,0.0,2.0976,2.0644,0.0,0.0,0.0,0.0,0.0,0.0,0.0,0.0,0.0,0.0,0.0,0.0,0.0,1.7345,1.7644,1.7896,1.7888,1.7652,1.8239,1.8529,1.8522,1.827,1.8363,1.8575,1.8045,0.0,1.8158,1.7727,0.0,0.0,0.0,0.0,0.0,0.0,0.0,0.0,0.0,0.0,0.0,0.0,0.0,0.0,0.0,0.0,0.0,0.0,0.0,0.0,0.0,0.0,1.5831,1.541,1.5368,1.5293,1.471,1.3541,1.2283,1.142,1.1474,1.1204,0.0,0.0,0.0,0.0,0.0,0.0,0.8163,0.8304,0.8348,0.8163,0.8103,0.8103,0.8103,0.8064,0.8064,0.8064,0.7722,0.763,0.7753,0.7347,0.0,0.0,0.0,0.0,0.0,0.0,0.0,0.0,0.0,0.0,0.0,0.0,0.0,0.0,0.0,0.0,0.0,0.0,0.0,0.0,0.0,0.0,0.0,0.0,0.0,0.0,0.0,0.0,0.0,2.1742,2.1996,2.1437,2.1686,2.1589,0.0,0.0,0.0,0.0,0.0,0.0,0.0,0.0,0.0,2.0394,1.9732,1.9674,2.0272,2.0184,2.0138,2.019,2.0475,2.0738,2.0925,2.0755,2.0772,2.0925,2.0755,2.067,2.05,1.8602,1.7583,1.7182,0.0,0.0,0.0,0.0,1.5914,1.5955,1.6046,1.6087,1.6139,1.6451,0.0,0.0,0.0,0.0,0.0,0.0,0.0,1.6694,1.625,1.6162,1.6068,1.5724,1.5639,1.5553,1.5209,1.4728,1.4043,1.2907,1.2739,1.2354,1.1104,1.0752,0.0,0.0,0.0,1.0009,0.9825,0.9802,0.9737,0.9511,0.9228,0.9036,0.9062,0.9107,0.9183,0.9183,0.9278,0.9315,0.9289,0.9072,0.8838,0.0,0.0,0.0,0.0,0.0,0.0,0.0,0.0,0.0,0.0,0.0,0.0,0.0,0.0,0.0,0.0,0.0,0.0,0.0,0.0,0.0,0.0,0.0,0.0,0.0,0.0,0.0,0.0,2.2913,2.323,2.2508,2.3041,2.3074,0.0,0.0,0.0,0.0,0.0,0.0,2.1376,2.1524,2.1791,2.2208,2.1748,2.1874,2.2631,2.228,2.218,2.2336,2.2291,2.2391,2.2582,2.2481,2.2481,2.2582,2.2472,2.2318,2.188,1.9492,1.831,1.7971,1.7296,1.7001,1.6892,1.6711,1.6719,1.6845,1.6886,1.6927,1.7001,1.7386,1.747,1.7437,1.7796,0.0,0.0,0.0,0.0,1.7641,1.699,1.6599,1.6327,1.5932,1.5737,1.5527,1.5118,1.5237,1.5106,1.4097,1.3746,1.3331,1.2264,1.1857,0.0,1.1354,1.1413,1.1368,1.1107,1.096,1.0784,1.0492,1.0114,0.9887,0.9875,1.0041,1.0149,1.0149,1.0464,1.059,1.0428,1.0395,1.0178,0.9838,0.0,0.0,0.0,0.0,0.0,0.0,0.0,0.0,0.0,0.0,0.0,0.0,0.0,0.0,0.0,0.0,0.0,0.0,0.0,0.0,0.0,0.0,0.0,0.0,0.0,0.0,0.0,0.0,0.0,2.4471,2.456,0.0,0.0,0.0,0.0,2.3261,2.3047,2.275,2.2354,2.2336,2.2309,2.2208,2.2309,2.2621,2.3271,2.3187,2.2982,2.2664,2.2564,2.2409,2.2227,2.1888,2.1916,2.2217,2.1879,2.1741,2.166,2.1169,2.0281,1.9242,1.8515,1.8053,1.7862,1.8037,1.837,1.878,1.9058,1.9146,1.9137,1.9158,1.8951,1.8751,1.9091,1.8716,0.0,0.0,1.8667,1.8154,1.8404,1.7758,1.6928,1.6374,1.5884,1.5352,1.4744,1.4645,1.4617,1.4385,1.4341,1.4088,1.3266,0.0,1.2257,1.2004,1.1798,1.1488,1.0989,1.0899,1.07,1.0183,1.0113,1.0066,1.0066,1.0379,1.0569,1.0569,1.0887,1.1068,1.105,1.087,1.0761,1.0736,1.0256,0.0,0.0,0.0,0.0,0.0,0.0,0.0,0.0,0.0,0.0,0.0,0.0,0.0,0.0,0.0,0.0,0.0,0.0,0.0,0.0,0.0,0.0,0.0,0.0,0.0,0.0,0.0,0.0,2.5514,2.6236,0.0,2.5384,2.4961,2.4713,2.4581,2.5031,2.5118,2.4672,2.5224,2.5407,2.5042,2.5133,2.5117,2.4964,2.4954,2.473,2.4326,2.4273,2.4196,2.4119,2.4001,2.4011,2.4109,2.4001,2.3973,2.3897,2.334,2.2211,2.0829,2.036,1.9937,1.9561,1.9427,1.9282,1.9177,1.9265,1.9295,1.9413,2.0051,2.0349,2.0531,2.0784,2.0457,1.998,1.9851,1.9492,1.901,1.8466,1.7961,1.7469,1.6944,1.6678,1.6351,1.5773,1.5626,1.5522,1.517,1.4616,1.4054,1.3658,1.3419,1.3308,1.3339,1.3071,1.2792,1.2607,1.2211,1.1854,1.1675,1.1486,1.1483,1.1687,1.2023,1.229,1.253,1.2862,1.3025,1.3025,1.2948,1.2806,1.2614,1.2394,1.2116,0.0,0.0,0.0,0.0,0.0,0.0,0.0,0.0,0.0,0.0,0.0,0.0,0.0,0.0,0.0,0.0,0.0,0.0,0.0,0.0,0.0,0.0,0.0,0.0,0.0,2.643,2.703,2.6243,2.7104,2.7437,2.6599,2.6287,2.6127,2.6054,2.6393,2.6477,2.6168,2.6572,2.6764,2.6636,2.6477,2.6361,2.6268,2.6075,2.584,2.5573,2.5413,2.5295,2.52,2.52,2.52,2.52,2.52,2.52,2.5137,2.4566,2.3632,2.2558,2.1787,2.1344,2.1087,2.0711,2.0493,2.0362,2.0362,2.0362,2.0479,2.1106,2.1532,2.1718,2.1706,2.1488,2.1115,2.0554,2.0139,1.9768,1.9094,1.8566,1.8103,1.7657,1.7315,1.6942,1.647,1.6237,1.5992,1.5546,1.4763,1.4169,1.4233,1.3997,1.3912,1.4204,1.3959,1.3635,1.3493,1.2979,1.2548,1.2369,1.2226,1.2234,1.2571,1.2915,1.3252,1.3561,1.3917,1.4093,1.4093,1.4093,1.3994,1.3787,1.368,1.3323,1.2798,0.0,0.0,0.0,0.0,0.0,0.0,0.0,0.0,0.0,0.0,0.0,0.0,0.0,0.0,0.0,0.0,0.0,0.0,0.0,0.0,0.0,0.0,0.0,2.6303,2.6845,2.7262,2.6845,2.7131,2.7479,2.7707,2.7061,2.6931,2.7575,2.7018,2.6583,2.6572,2.6158,2.618,2.6683,2.6212,2.6268,2.6951,2.6476,2.626,2.6303,2.5828,2.5464,2.52,2.52,2.52,2.52,2.5221,2.5221,2.5136,2.469,2.4509,2.4344,2.2685,2.22,2.2392,2.189,2.2015,2.2402,2.2402,2.2402,2.2402,2.2402,2.2392,2.2296,2.1839,2.1716,2.1598,2.1126,2.0658,2.0296,2.0296,1.9586,1.8798,1.8556,1.776,1.7019,1.6774,1.6387,1.5939,1.5534,1.4861,1.4531,1.5035,1.4388,1.4035,1.4533,1.4342,0.0,1.348,1.3062,1.2647,1.2204,1.2127,1.2273,1.2634,1.2923,1.3244,1.3596,1.3938,1.4135,1.4114,1.415,1.4186,1.4186,1.3827,1.351,1.3252,0.0,0.0,0.0,0.0,0.0,0.0,0.0,0.0,0.0,0.0,0.0,0.0,0.0,0.0,0.0,0.0,0.0,0.0,0.0,0.0,0.0,2.9839,2.9988,2.8897,2.9421,2.9674,2.902,2.9218,2.897,2.7822,2.7358,2.691,2.6443,2.652,2.6455,2.6097,2.6596,2.6693,2.6151,2.6661,2.6683,2.6214,2.6378,2.6324,2.6018,2.5877,2.577,2.5728,2.5728,2.5728,2.5706,2.5348,2.5196,2.5163,2.4708,2.4523,2.4443,2.3634,2.313,2.2872,2.2757,2.2576,2.2402,2.2402,2.2402,2.244,2.2553,2.2391,2.2127,2.2118,2.1669,2.1083,2.0953,2.0551,2.0138,2.0138,1.9942,1.9629,1.9125,1.8785,1.8343,1.7482,1.7174,1.6948,1.6496,1.5967,1.5513,1.5223,1.4962,1.4911,1.5211,1.4974,1.4574,1.4104,1.3632,1.3217,1.298,1.2679,1.2806,1.3624,1.3333,1.3357,1.3947,1.4265,1.4579,1.4879,1.5369,1.5608,1.5608,1.4972,1.447,0.0,0.0,0.0,0.0,0.0,0.0,0.0,0.0,0.0,0.0,0.0,0.0,0.0,0.0,0.0,0.0,0.0,0.0,0.0,0.0,0.0,0.0,3.161,3.1942,3.1776,3.1412,3.1045,3.0607,3.0458,3.0029,2.9068,2.8189,2.7415,2.6772,2.6563,2.6374,2.6212,2.6529,2.6649,2.6496,2.6638,2.6562,2.6212,2.6289,2.6179,2.5895,2.5895,2.5895,2.5895,2.5688,2.56,2.5568,2.5098,2.4931,2.4847,2.4366,2.417,2.4131,0.0,0.0,0.0,0.0,2.2902,2.2633,2.2413,2.2348,2.2353,2.2258,2.2035,2.181,2.1732,2.1343,2.085,2.062,2.0325,2.0118,2.0118,1.9965,1.9704,1.938,1.898,1.8505,1.7855,1.7546,1.7349,1.7069,1.6779,0.0,1.6038,1.5657,1.5464,1.5675,1.5407,1.5065,1.4795,1.4314,1.3973,1.3903,1.3587,1.369,1.4428,1.4116,0.0,0.0,0.0,1.5382,1.5602,1.5794,0.0,0.0,0.0,0.0,0.0,1.5498,0.0,0.0,1.5289,1.4949,0.0,0.0,0.0,0.0,0.0,0.0,0.0,0.0,0.0,0.0,0.0,0.0,0.0,0.0,0.0,0.0,3.3682,3.393,3.4415,3.2973,3.1843,3.1712,3.1214,3.079,3.0596,2.9188,2.8231,2.7988,2.6994,2.6532,2.6806,2.6336,0.0,0.0,0.0,2.6187,2.6583,2.624,2.6063,2.6063,2.6063,2.5988,2.5922,2.5535,2.5304,2.5176,2.4686,2.4439,2.4406,2.3853,2.3607,2.3607,2.3607,2.3607,2.3553,2.3154,2.2968,2.2859,2.2419,0.0,0.0,2.1734,2.1549,2.1428,2.1025,2.0861,2.0719,2.0238,2.0118,2.0107,2.0042,1.9715,1.9355,1.9288,1.8622,1.7999,1.7933,1.7584,1.7306,1.7306,1.7306,1.7239,1.7078,1.6361,1.5911,1.6081,1.5792,1.5524,1.5493,1.5111,1.4835,1.4823,1.4656,0.0,1.5071,1.5025,1.5135,1.5455,1.5951,1.6285,1.6351,1.5933,1.5625,1.5447,1.5695,1.6059,1.6536,1.689,1.7195,1.7376,1.5762,1.4981,0.0,0.0,0.0,0.0,0.0,0.0,0.0,0.0,0.0,0.0,0.0,0.0,0.0,0.0,0.0,3.3357,3.4166,3.4829,3.4936,3.4239,3.3351,3.2424,3.203,3.1272,2.9864,2.9282,2.8819,2.8338,2.8087,2.7995,2.8061,2.7505,2.7195,2.7224,2.69,2.6648,2.6507,2.6779,2.694,2.694,2.694,0.0,2.6296,2.6206,2.5854,2.5251,2.4614,2.426,2.4035,2.3377,2.3143,2.3143,2.3143,2.3143,2.3132,2.3034,2.2772,2.2433,2.2346,2.2062,2.1712,2.1625,2.1354,2.1015,2.0927,2.0587,0.0,2.014,2.0118,2.002,1.9627,1.9464,1.9222,1.8458,1.8141,1.7901,1.7536,1.7372,1.7306,1.7306,1.7306,1.7306,1.7239,1.6984,1.6717,1.6678,1.6587,1.638,1.5994,1.5798,1.5625,1.5518,1.5092,1.5097,1.5744,1.5273,1.5067,1.5417,1.6077,1.6687,1.7234,1.7172,1.7079,1.7066,1.6746,1.6647,1.6735,1.683,1.6887,1.6928,1.6942,1.6753,0.0,0.0,0.0,0.0,0.0,0.0,0.0,0.0,0.0,0.0,0.0,3.2961,3.2721,0.0,3.4086,3.4193,3.4726,3.5086,3.5086,3.4579,3.4006,3.3413,3.2691,3.1897,3.1044,3.0308,2.9758,2.9394,2.9057,2.8848,2.8718,2.8402,2.8215,2.8096,2.7976,2.7896,2.7763,2.7964,2.8096,2.8096,2.7783,2.7533,2.7221,2.67,2.6245,2.585,2.5318,2.4779,2.4326,2.3892,2.3888,2.4154,2.4154,2.3692,2.3001,2.3001,2.2717,2.228,2.204,2.1636,2.1222,2.0948,2.0697,2.05,2.05,2.0303,2.0118,2.0118,2.0118,2.0063,1.9813,1.9387,1.8927,1.8458,1.7988,1.7573,1.7361,1.7306,1.7306,1.7306,1.7306,1.7306,1.7306,1.7211,1.7117,1.7071,1.7043,1.6959,1.6722,1.6531,1.6405,1.637,1.6052,1.6005,1.6387,1.6046,1.6026,1.6437,1.6592,1.6905,1.748,1.7267,1.7198,1.7245,1.7038,1.6948,1.7043,1.7043,1.7043,1.7054,1.7291,1.7213,0.0,0.0,0.0,0.0,0.0,0.0,0.0,0.0,3.2615,3.2808,3.3313,3.3673,3.3579,3.4046,3.458,3.4968,3.5128,3.5236,3.5236,3.4594,3.4166,3.4166,3.3126,3.2344,3.2237,3.1373,3.0746,3.0558,3.0088,2.9717,2.9525,2.9397,2.928,2.9241,2.9203,2.9164,2.9125,2.9203,2.9192,2.908,2.8571,2.8249,2.8014,2.7149,2.668,2.6521,2.6079,2.551,2.4909,2.4614,2.4767,2.5179,2.507,2.4236,2.3145,2.3146,2.2753,2.2141,2.1814,2.1361,2.0875,2.0586,2.0485,2.0485,2.0388,2.0335,2.027,2.0172,2.0118,2.0096,1.9998,1.9353,1.8665,1.8578,1.793,1.7306,1.7306,1.7306,1.7306,1.7306,1.7306,1.7306,1.7306,1.7306,1.7306,1.7306,1.7306,1.7306,1.7306,1.7172,1.7078,1.7078,1.6948,1.6902,1.6902,1.6902,1.7063,1.7448,1.7116,1.7074,1.7458,1.7106,1.6948,1.7078,1.7078,1.7145,1.7306,1.7306,1.7351,1.7462,1.7379,1.7228,3.2465,3.2089,3.2387,3.3262,3.3363,3.326,0.0,0.0,3.398,3.402,3.4486,3.4807,3.4432,3.4862,3.5184,3.4885,3.5291,3.5642,3.5642,3.4642,3.3925,3.3925,3.3026,3.2197,3.1742,3.1562,3.1485,3.1447,3.141,3.1323,3.1323,3.0733,3.0342,3.0165,2.9986,2.9794,2.9614,2.9961,2.9872,2.9338,2.9287,2.8777,2.7844,2.7717,2.7303,2.6649,2.6242,2.5941,2.5648,2.5066,2.4815,2.4713,2.4183,2.3845,2.3716,2.3618,2.2868,2.1853,2.1996,2.1619,2.1172,2.1702,2.1896,2.1803,2.1388,2.1135,2.0912,2.0496,2.0248,2.0009,1.9584,1.9091,1.8589,1.8174,1.7671,1.7306,1.7306,1.7306,1.7306,1.7306,1.7306,1.7306,1.7306,1.7306,1.7306,1.7306,1.7306,1.7306,1.7306,1.7278,1.7278,1.7278,1.7239,1.725,1.725,1.725,1.7272,1.7327,1.7272,1.7272,1.7327,1.7272,1.725,1.7278,1.7278,1.7278,1.7306,1.7306,1.7534,1.7995,1.765,1.7396,3.233,3.2885,3.3807,3.3867,3.4059,3.446,3.5363,3.5367,3.5469,3.6388,3.647,3.6464,3.6676,3.6328,3.6002,3.603,3.5946,3.5898,3.571,3.4653,3.3908,3.3908,3.3265,3.2597,3.2017,3.1963,3.1963,3.1963,3.1963,3.1963,3.1963,3.168,3.1468,3.1408,3.132,3.1233,3.1172,3.0953,3.0748,3.0497,2.9795,2.9212,2.8769,2.8438,2.8113,2.7762,2.717,2.6843,2.6686,2.5988,2.5688,2.5589,2.5345,2.5051,2.4633,2.3987,2.3301,2.2667,2.2787,2.2452,2.2009,2.2286,2.2378,2.2347,2.2144,2.2051,2.1865,2.142,2.1198,2.1026,2.0579,2.0087,1.955,1.9055,1.8571,1.8115,1.7729,1.7601,1.7518,1.7434,1.7351,1.7306,1.7306,1.7306,1.7306,1.7306,1.7306,1.7306,1.7306,1.7306,1.7306,1.7306,1.7306,1.7306,1.7306,1.7306,1.7306,1.7306,1.7306,1.7306,1.7306,1.7306,1.7462,1.776,1.776,1.7936,1.829,1.8371,1.8521,1.875,1.8632,1.859,3.3077,3.4086,3.5107,3.4952,3.5319,3.5888,3.6599,3.6483,3.6577,3.7717,3.7598,3.7429,3.8115,3.7477,3.69,3.6989,3.6626,3.6204,3.5844,3.4706,3.3962,3.4138,3.3376,3.2762,3.2477,3.2463,3.2395,3.2218,3.2218,3.2218,3.2218,3.2218,3.2218,3.2218,3.2218,3.2137,3.1938,3.1504,3.1124,3.0785,2.9937,2.942,2.9257,2.879,2.8587,2.8554,2.7866,2.7514,2.7431,2.6567,2.6166,2.6132,2.5942,2.5621,2.514,2.438,2.3785,2.3406,2.3424,2.3175,2.2895,2.3088,2.3148,2.3118,2.2985,2.2895,2.2774,2.2298,2.2113,2.2002,2.1671,2.1084,2.0475,2.0071,1.9497,1.8869,1.8239,1.8034,1.7963,1.7859,1.776,1.7717,1.781,1.7728,1.7645,1.7645,1.7518,1.739,1.7306,1.7306,1.7306,1.7306,1.7306,1.7306,1.7306,1.7306,1.7351,1.7507,1.7507,1.759,1.7767,1.7755,1.7963,1.8402,1.839,1.8643,1.9107,1.9212,1.9331,1.9488,1.9449,1.9501,3.5705,3.6148,3.645,3.7285,3.7828,3.7898,3.6693,3.6765,3.7092,3.7135,3.7099,3.7287,3.7984,3.8063,3.789,3.7366,3.7081,3.6677,3.6152,3.4823,3.4124,3.4694,3.3268,3.2463,3.302,3.3074,3.283,3.2259,3.2218,3.2218,3.2218,3.2218,3.2218,3.2218,3.2218,3.1897,3.1327,3.13,3.0703,2.957,2.9529,2.9203,2.8627,2.86,2.8587,2.856,2.7958,2.7687,2.761,2.64,2.5853,2.5654,2.506,2.4818,2.4805,2.4761,2.4274,2.3603,2.3738,2.3695,2.3666,2.4347,2.4534,2.4434,2.393,2.3682,2.3446,2.2912,2.2683,2.2561,2.2561,2.1776,2.0978,2.0965,2.0143,1.9253,1.878,1.8661,1.8661,1.8661,1.8661,1.8753,1.9095,1.8777,1.8471,1.8471,1.8018,1.7601,1.7334,1.7306,1.7306,1.7306,1.7306,1.7306,1.7306,1.7306,1.7507,1.8038,1.8066,1.8348,1.8907,1.8934,1.9013,1.916,1.9174,1.9253,1.9397,1.9397,1.9644,2.0156,1.9773,1.9799,3.626,3.6752,3.7288,3.7999,3.7994,3.7879,3.833,3.8232,3.8424,3.9818,3.9406,3.9158,4.023,3.9379,3.8568,3.8627,3.7933,3.7183,3.6691,3.5542,3.478,3.4814,3.3921,3.3281,3.3115,3.2748,3.2436,3.2232,3.2218,3.2218,3.2218,3.2218,3.2218,3.2218,3.1789,3.1504,3.13,3.0486,2.9909,2.9515,2.9108,2.879,2.8587,2.8587,2.837,2.799,2.78,2.7257,2.647,2.6063,2.5627,2.5233,2.5001,2.492,2.492,2.492,2.4765,2.4536,2.458,2.4565,2.4565,2.4806,2.4863,2.4835,2.465,2.4551,2.4436,2.3917,2.3771,2.3653,2.3327,2.2989,2.2521,2.1787,2.1331,2.0797,1.978,1.9489,1.9385,1.9294,1.9228,1.9214,1.9293,1.9188,1.9109,1.9109,1.8605,1.817,1.7991,1.8247,1.8317,1.7991,1.8236,1.8344,1.8116,1.8004,1.8083,1.8356,1.8382,1.8459,1.8651,1.9044,1.9449,1.9863,1.985,2.0067,2.0472,2.0535,2.0684,2.0858,2.0833,2.0883,3.6492,3.7153,3.7908,3.8108,3.8185,3.8323,3.8708,3.8831,3.9247,4.0586,4.0017,3.968,4.0977,4.0021,3.9131,3.9412,3.8568,3.772,3.7144,3.5956,3.5104,3.4841,3.4084,3.3485,3.3129,3.2558,3.2218,3.2218,3.2218,3.2218,3.2218,3.2218,3.211,3.187,3.149,3.1083,3.0649,2.9909,2.9407,2.919,2.8777,2.8587,2.8587,2.837,2.8071,2.7678,2.7244,2.6619,2.5873,2.567,2.5344,2.5005,2.5005,2.5005,2.5005,2.5005,2.5005,2.5005,2.5005,2.5005,2.5005,2.5005,2.5005,2.5005,2.5005,2.5005,2.4948,2.465,2.4565,2.4465,2.4176,2.3932,2.3592,2.2859,2.2362,2.1772,2.0824,2.0374,2.0118,2.0055,1.9953,1.994,2.0016,1.9914,1.976,1.9553,1.9371,1.9123,1.875,1.8975,1.9028,1.8724,1.8975,1.9054,1.8845,1.8728,1.8816,1.9083,1.9108,1.9183,1.9396,1.9763,2.0144,2.0547,2.0547,2.0759,2.1131,2.1229,2.1277,2.1277,2.135,2.1399,3.6569,3.7478,3.831,3.7724,3.8525,3.9093,3.7877,3.86,3.9524,3.957,3.9031,3.8954,0.0,3.992,3.9554,3.9672,3.9045,3.8285,3.7481,3.6192,3.5184,3.4921,3.3837,3.3142,3.3142,3.2572,3.2218,3.2218,3.2218,3.2218,3.2218,3.2191,3.187,3.1314,3.1232,3.0649,2.9515,2.9475,2.919,2.8587,2.8587,2.8573,2.8519,2.7963,2.7678,2.7556,2.6389,2.5873,2.5805,2.5236,2.5005,2.5005,2.5005,2.5005,2.5005,2.5005,2.5005,2.5005,2.5005,2.5005,2.5005,2.5005,2.5005,2.5005,2.5005,2.5005,2.5005,2.5005,2.5005,2.5005,2.5005,2.4598,2.4136,2.4109,2.3241,2.2272,2.1822,2.1283,2.086,2.0833,2.082,2.0908,2.118,2.0896,2.0459,1.9952,2.0308,2.0359,1.9553,1.9475,1.9475,1.9449,1.9475,1.9475,1.9449,1.9451,1.9658,2.0194,2.0219,2.0433,2.0944,2.0995,2.1082,2.1204,2.1204,2.1277,2.1399,2.1399,2.1399,2.1399,2.1399,2.1399,3.7249,3.7374,3.7561,3.8416,3.8494,3.8524,3.9077,3.9477,3.9831,4.017,3.9705,3.9336,3.9674,3.9598,3.9502,3.955,3.9456,3.9111,3.8323,3.7377,3.6535,3.5839,3.4539,3.3691,3.3691,3.2793,3.2218,3.2218,3.2218,3.2218,3.2218,3.1762,3.145,3.13,3.0418,2.9828,2.9515,2.9034,2.8736,2.8587,2.8587,2.8356,2.7922,2.7773,2.7216,2.6335,2.6022,2.5629,2.5222,2.5059,2.5005,2.5005,2.5005,2.5005,2.5005,2.5005,2.5005,2.5005,2.5005,2.5005,2.5005,2.5005,2.5005,2.5005,2.5005,2.5005,2.5005,2.5005,2.5005,2.5005,2.5005,2.4896,2.4666,2.4204,2.3852,2.3351,2.2355,2.2032,2.179,2.132,2.124,2.1264,2.135,2.1264,2.1142,2.1019,2.1118,2.0932,2.0232,2.0422,2.0472,2.0182,2.0409,2.051,2.0295,2.0195,2.0226,2.0414,2.0414,2.0485,2.0617,2.1072,2.1302,2.135,2.135,2.1375,2.1399,2.1399,2.1399,2.1399,2.1399,2.1399,3.7235,3.7266,3.753,3.834,3.8465,3.851,3.9189,3.9592,3.9774,3.9665,3.9108,3.8723,3.9031,3.9077,3.9228,3.9828,3.9792,3.9592,3.9387,3.8249,3.7098,3.6172,3.489,3.3927,3.358,3.2725,3.2218,3.2218,3.2218,3.2218,3.2218,3.1612,3.1178,3.0907,2.9971,2.938,2.9122,2.8763,2.8587,2.8587,2.8587,2.8275,2.7705,2.7705,2.704,2.5887,2.5887,2.5561,2.5005,2.5005,2.5005,2.5005,2.5005,2.5005,2.5005,2.5005,2.5005,2.5005,2.5005,2.5005,2.5005,2.5005,2.5005,2.5005,2.5005,2.5005,2.5005,2.5005,2.5005,2.5005,2.5005,2.5005,2.4856,2.4231,2.4096,2.3757,2.2563,2.2305,2.2129,2.1507,2.1399,2.1399,2.1399,2.1399,2.1399,2.1399,2.1399,2.1264,2.0896,2.1033,2.1082,2.0871,2.1033,2.1106,2.0957,2.0885,2.0853,2.0897,2.0897,2.0897,2.0897,2.1223,2.1399,2.1399,2.1399,2.1399,2.1399,2.1399,2.1399,2.1399,2.1399,2.1399,3.6878,3.725,3.7825,3.7997,3.8481,3.8898,3.8801,3.9251,3.9482,3.8664,0.0,3.7677,3.8262,3.8369,3.8785,4.0013,0.0,3.9807,4.0252,3.886,3.7415,3.6354,3.5155,3.4108,3.3339,3.2612,3.2218,3.2218,3.2151,3.2096,3.2096,3.1422,3.0785,3.0188,2.9631,2.9149,2.86,2.8587,2.8587,2.8587,2.8519,2.8166,2.7596,2.7501,2.685,2.5778,2.5778,2.548,2.5005,2.5005,2.5005,2.5005,2.5005,2.5005,2.5005,2.5005,2.5005,2.5005,2.5005,2.5005,2.5005,2.5005,2.5005,2.5005,2.5005,2.5005,2.5005,2.5005,2.5005,2.5005,2.5005,2.5005,2.4856,2.4231,2.4096,2.3757,2.2563,2.2251,2.2034,2.1494,2.1399,2.1399,2.1399,2.1399,2.1399,2.1399,2.1399,2.1399,2.1399,2.1399,2.1399,2.1399,2.1399,2.1399,2.1399,2.1399,2.1399,2.1399,2.1399,2.1399,2.1399,2.1399,2.1399,2.1399,2.1399,2.1399,2.1399,2.1399,2.1399,2.1399,2.1399,2.1399,3.6923,3.756,3.82,3.8246,3.8827,3.9282,3.8883,3.8976,0.0,0.0,3.7969,3.7538,3.7646,3.7677,3.7938,3.8739,3.9223,3.9581,3.9792,3.9337,3.8583,0.0,3.5921,3.4743,3.4139,3.2954,3.2218,3.2218,3.1721,3.145,3.145,3.0391,2.9556,2.8926,2.8804,2.8695,2.8587,2.8587,2.8587,2.8587,2.8085,2.7556,2.6928,2.6443,2.5833,2.5168,2.5168,2.51,2.5005,2.5005,2.5005,2.5005,2.5005,2.5005,2.5005,2.5005,2.5005,2.5005,2.5005,2.5005,2.5005,2.5005,2.5005,2.5005,2.5005,2.5005,2.5005,2.5005,2.5005,2.5005,2.5005,2.5005,2.4856,2.4231,2.4096,2.3757,2.2563,2.1925,2.1521,2.1412,2.1399,2.1399,2.1399,2.1399,2.1399,2.1399,2.1399,2.1399,2.1399,2.1399,2.1399,2.1399,2.1399,2.1399,2.1399,2.1399,2.1399,2.1399,2.1399,2.1399,2.1399,2.1399,2.1399,2.1399,2.1399,2.1399,2.1399,2.1399,2.1399,2.1399,2.1399,2.1399,3.6938,3.7233,3.7685,3.8592,3.8717,3.8638,3.8773,0.0,0.0,0.0,3.72,3.6969,3.6969,3.7261,0.0,3.84,3.8785,3.9253,4.0004,3.9441,3.8823,3.8509,3.6683,3.528,3.4827,3.3014,3.1864,3.1757,3.0866,3.0622,3.126,3.0167,2.923,2.8614,2.8587,2.8587,2.8587,2.8587,2.8587,2.8587,2.8302,2.7691,2.6793,2.6837,2.6172,2.5032,2.5331,2.529,2.5005,2.5005,2.5005,2.5005,2.5005,2.5005,2.5005,2.5005,2.5005,2.5005,2.5005,2.5005,2.5005,2.5005,2.5005,2.5005,2.5005,2.5005,2.5005,2.5005,2.5005,2.5005,2.5005,2.5005,2.4856,2.4231,2.3608,2.3011,2.2427,2.1844,2.1399,2.1399,2.1399,2.1399,2.1399,2.1399,2.1399,2.1399,2.1399,2.1399,2.1399,2.1399,2.1399,2.1399,2.1399,2.1399,2.1399,2.1399,2.1399,2.1399,2.1399,2.1399,2.1399,2.1399,2.1399,2.1399,2.1399,2.1399,2.1399,2.1399,2.1399,2.1399,2.1399,2.1399,3.7048,3.7049,3.7266,3.8622,3.8419,3.7949,3.8428,3.8025,0.0,3.6662,3.6492,3.6492,3.6492,0.0,3.7507,0.0,3.8415,3.8923,4.0105,3.9542,3.9023,3.9137,3.7264,3.5712,3.5111,3.2957,3.1533,3.1428,3.0364,3.0003,3.0676,2.9808,2.9108,2.86,2.8587,2.8587,2.8587,2.8587,2.8587,2.8587,2.8343,2.7732,2.6806,2.704,2.6362,2.5032,2.5493,2.5439,2.5005,2.5005,2.5005,2.5005,2.5005,2.5005,2.5005,2.5005,2.5005,2.5005,2.5005,2.5005,2.5005,2.5005,2.5005,2.5005,2.5005,2.5005,2.5005,2.5005,2.5005,2.5005,2.5005,2.5005,2.4829,2.4069,2.3174,2.2427,2.2169,2.1857,2.1548,2.1426,2.1399,2.1399,2.1399,2.1399,2.1399,2.1399,2.1399,2.1399,2.1399,2.1399,2.1399,2.1399,2.1399,2.1399,2.1399,2.1399,2.1399,2.1399,2.1399,2.1399,2.1399,2.1399,2.1399,2.1399,2.1399,2.1399,2.1399,2.1399,2.1399,2.1399,2.1399,2.1399,3.742,3.7685,3.7716,3.784,3.7903,3.7904,3.7665,0.0,3.6739,3.6538,3.6492,3.6492,3.6492,0.0,0.0,0.0,0.0,3.8769,3.9474,4.0009,3.989,3.8792,0.0,3.6011,3.4683,3.2757,3.1638,3.1743,3.0935,2.9933,2.8891,2.8736,2.8655,2.8587,2.8587,2.8587,2.8587,2.8587,2.8587,2.8587,2.7501,2.6901,2.6752,2.5738,2.5168,2.5005,2.5059,2.5059,2.5005,2.5005,2.5005,2.5005,2.5005,2.5005,2.5005,2.5005,2.5005,2.5005,2.5005,2.5005,2.5005,2.5005,2.5005,2.5005,2.5005,2.5005,2.5005,2.5005,2.5005,2.5005,2.5005,2.5005,2.472,2.3567,2.3201,2.2822,2.1711,2.1884,2.2074,2.1507,2.1399,2.1399,2.1399,2.1399,2.1399,2.1399,2.1399,2.1399,2.1399,2.1399,2.1399,2.1399,2.1399,2.1399,2.1399,2.1399,2.1399,2.1399,2.1399,2.1399,2.1399,2.1399,2.1399,2.1399,2.1399,2.1399,2.1399,2.1399,2.1399,2.1399,2.1399,2.1399,3.6925,3.7358,3.7728,3.8241,3.7715,3.7281,3.7955,0.0,3.6569,3.6523,3.6492,3.6492,3.6492,3.6492,3.66,0.0,0.0,0.0,3.833,3.8654,3.8772,3.8726,3.7552,3.6555,3.5984,3.3875,3.2112,3.097,3.0298,2.9743,2.924,2.9004,2.8844,2.8716,2.8651,2.8587,2.8587,2.8587,2.841,2.8058,2.7583,2.6972,2.624,2.5751,2.5344,2.5005,2.5005,2.5005,2.5005,2.5005,2.5005,2.5005,2.5005,2.5005,2.5005,2.5005,2.5005,2.5005,2.5005,2.5005,2.5005,2.5005,2.5005,2.5005,2.5005,2.5005,2.5005,2.5005,2.5005,2.5005,2.5005,2.5005,2.4801,2.3933,2.3743,2.3513,2.2673,2.2388,2.2237,2.1993,2.1643,2.1399,2.1399,2.1399,2.1399,2.1399,2.1399,2.1399,2.1399,2.1399,2.1399,2.1399,2.1399,2.1399,2.1399,2.1399,2.1399,2.1399,2.1399,2.1399,2.1399,2.1399,2.1399,2.1399,2.1399,2.1399,2.1399,2.1399,2.1399,2.1399,2.1399,2.1399,3.7,3.7526,3.8001,3.8793,3.7896,3.7092,3.8246,3.7461,3.6523,3.6554,3.6523,3.6523,3.6554,3.6523,3.6538,0.0,0.0,3.7188,3.7716,3.7948,3.8213,3.8539,3.764,3.6903,3.6641,3.4566,3.2477,3.0581,3.0237,3.0021,2.982,2.954,2.9257,2.8958,2.8812,2.8634,2.8379,2.8347,2.803,2.7447,2.7257,2.6714,2.5873,2.571,2.5398,2.5005,2.5005,2.5005,2.5005,2.5005,2.5005,2.5005,2.5005,2.5005,2.5005,2.5005,2.5005,2.5005,2.5005,2.5005,2.5005,2.5005,2.5005,2.5005,2.5005,2.5005,2.5005,2.5005,2.5005,2.5005,2.5005,2.5005,2.4856,2.4231,2.4231,2.415,2.3378,2.2863,2.2497,2.2332,2.1792,2.1399,2.1399,2.1399,2.1399,2.1399,2.1399,2.1399,2.1399,2.1399,2.1399,2.1399,2.1399,2.1399,2.1399,2.1399,2.1399,2.1399,2.1399,2.1399,2.1399,2.1399,2.1399,2.1399,2.1399,2.1399,2.1399,2.1399,2.1399,2.1399,2.1399,2.1399,3.8123,3.8492,3.8662,3.9305,3.8492,3.7677,3.8354,3.7461,3.6554,3.6662,3.66,3.6554,3.6662,3.6585,3.6538,3.6693,0.0,0.0,3.7966,3.8558,3.873,3.8091,3.7524,3.6865,3.5988,3.4405,3.2674,3.0939,3.1087,3.0984,3.0312,3.0158,2.9851,2.931,2.918,2.8701,2.7927,2.7799,2.742,2.6793,2.6199,2.59,2.5873,2.5276,2.5018,2.5005,2.5005,2.5005,2.5005,2.5005,2.5005,2.5005,2.5005,2.5005,2.5005,2.5005,2.5005,2.5005,2.5005,2.5005,2.5005,2.5005,2.5005,2.5005,2.5005,2.5005,2.5005,2.5005,2.5005,2.5005,2.5005,2.5005,2.4856,2.4231,2.4571,2.4666,2.3472,2.3201,2.3012,2.2427,2.1792,2.1399,2.1399,2.1399,2.1399,2.1399,2.1399,2.1399,2.1399,2.1399,2.1399,2.1399,2.1399,2.1399,2.1399,2.1399,2.1399,2.1399,2.1399,2.1399,2.1399,2.1399,2.1399,2.1399,2.1399,2.1399,2.1399,2.1399,2.1399,2.1399,2.1399,2.1399,3.6936,3.7461,3.7877,3.8077,3.7477,3.6984,3.7661,3.7138,3.6523,3.6554,3.66,3.6631,3.6569,3.6708,3.6847,3.6908,3.7155,0.0,0.0,3.7651,3.7668,3.7464,3.6995,3.6372,3.5611,3.4376,3.3037,3.1655,3.1408,3.1073,3.0538,3.0462,3.0144,2.9526,2.8855,2.8288,2.7899,2.7346,2.6796,2.6185,2.5982,2.567,2.5276,2.51,2.5005,2.5005,2.5005,2.5005,2.5005,2.5005,2.5005,2.5005,2.5005,2.5005,2.5005,2.5005,2.5005,2.5005,2.5005,2.5005,2.5005,2.5005,2.5005,2.5005,2.5005,2.5005,2.5005,2.5005,2.5005,2.5005,2.5005,2.5005,2.4951,2.4774,2.4557,2.4272,2.3892,2.3161,2.2536,2.2346,2.1792,2.1399,2.1399,2.1399,2.1534,2.1966,2.1656,2.1548,2.1966,2.1656,2.1399,2.1399,2.1399,2.1399,2.1399,2.1399,2.1399,2.1399,2.1399,2.1399,2.1399,2.1399,2.1399,2.1399,2.1399,2.1399,2.1399,2.1399,2.1592,2.1973,2.2758,2.2956,3.6658,3.7369,3.7877,3.7877,3.7369,3.6984,3.74,3.6984,3.6523,3.6647,3.6693,3.6708,3.6754,3.6674,3.6609,3.6685,3.6773,3.6847,3.6906,3.7126,3.7205,3.6938,3.6587,3.6014,3.5078,3.4324,3.3445,3.2262,3.1936,3.1523,3.0896,3.1014,3.0616,2.9572,2.8872,2.8307,2.7859,2.7026,2.6276,2.5648,2.559,2.5358,2.5005,2.5005,2.5005,2.5005,2.5005,2.5005,0.0,2.5005,2.5005,2.5005,2.5005,2.5005,2.5005,2.5005,2.5005,2.5005,2.5005,2.5005,2.5005,2.5005,2.5005,2.4964,2.4747,2.4829,2.5005,2.5005,2.5005,2.4951,2.4734,2.4842,2.4951,2.472,2.4557,2.4367,2.415,2.3499,2.2903,2.2673,2.2334,2.2009,2.1765,2.1724,2.1884,2.2251,2.1993,2.1955,2.2551,2.2307,2.1995,2.1751,2.1941,2.1982,2.1751,2.1521,2.1399,2.1399,2.1399,2.1399,2.1399,2.1399,2.1399,2.1399,2.1399,2.1399,2.1399,2.1859,2.2341,2.2851,2.3835,2.4124,0.0,3.7892,3.8369,3.8369,3.7892,3.743,3.743,3.6953,0.0,3.6908,3.6831,3.6816,3.7104,3.648,3.6013,3.6223,3.6236,3.6279,3.6456,3.7069,3.7227,3.6487,3.6361,3.5777,3.4431,3.4257,3.3779,3.2687,3.2586,3.2244,3.1394,3.1695,3.1165,2.9566,2.9289,2.871,2.7735,2.6744,2.592,2.523,2.509,2.5005,2.5005,2.5005,2.5005,2.5005,2.5005,2.5005,2.5005,2.5005,2.5005,2.5005,2.5005,2.5005,2.5005,2.5005,2.5005,2.5005,2.5005,2.5005,2.5005,2.5005,2.5005,2.491,2.4326,2.4571,2.4991,2.4951,2.4978,2.4869,2.4245,2.4502,2.4788,2.4177,2.4448,2.4734,2.415,2.4042,2.3865,2.3323,2.3215,2.3025,2.2468,2.2373,2.2386,2.2427,2.24,2.2564,2.3201,2.3242,2.2984,2.2427,2.2863,2.2971,2.2414,2.1792,2.148,2.1521,2.144,2.1412,2.1453,2.1453,2.1477,2.1526,2.1615,2.1667,2.1667,2.2824,2.3598,2.4037,2.4751,2.5067,3.6551,0.0,3.6969,3.6969,3.6846,3.6738,0.0,3.6599,3.6523,3.6585,0.0,3.6892,3.6846,3.6526,3.6434,3.691,3.6623,3.6553,3.7148,3.7399,3.7227,3.6487,3.5963,3.5284,3.4383,3.383,3.3291,3.2645,3.2586,3.2339,3.1794,3.1851,3.1477,3.0578,2.9996,2.891,2.7216,2.6274,2.5716,2.5439,2.5244,2.509,2.5005,2.5005,2.5005,2.5005,2.5005,2.5005,2.5005,2.5005,2.5005,2.5005,2.5005,2.5005,2.5005,2.5005,2.5005,2.5005,2.5005,2.5005,2.5005,2.5005,2.5005,2.4978,2.4842,2.4896,2.491,2.4435,2.4652,2.4869,2.4245,2.4204,2.415,2.3554,2.3527,2.3581,2.3445,2.3418,2.3378,2.3242,2.3215,2.3161,2.3012,2.2984,2.3147,2.3594,2.3283,2.3215,2.3811,2.3499,2.3161,2.3012,2.3134,2.3147,2.3012,2.2454,2.228,2.2754,2.1914,2.1602,2.2074,2.2101,2.2325,2.2766,2.3639,2.4076,2.4076,2.4829,2.5184,2.5229,2.6396,2.6785,3.632,3.6492,3.6492,3.6492,3.6492,3.6492,3.6492,0.0,0.0,0.0,0.0,0.0,0.0,3.6027,3.6045,3.6321,3.6395,3.6674,3.7415,3.751,3.713,3.6074,3.5616,3.4984,3.3941,3.3514,3.3187,3.2942,3.2915,3.2726,3.2244,3.2437,3.1909,3.0494,3.0284,2.9426,2.7815,2.6946,2.6363,2.6042,2.5879,2.566,2.5425,2.5342,2.53,2.5216,2.5118,2.5061,2.5005,2.5005,2.5005,2.5005,2.5005,2.5005,2.5005,2.5005,2.5005,2.5005,2.5005,2.5005,2.5005,2.5005,2.5005,2.4951,2.4679,2.4788,2.4937,2.4611,2.4557,2.4435,2.3838,2.4096,2.4204,2.3052,2.3418,2.3865,2.3323,2.3649,2.3933,2.3676,2.3838,2.3933,2.3662,2.3608,2.3716,2.4042,2.3825,2.3825,2.4435,2.4218,2.392,2.3649,2.3865,2.3906,2.3649,2.3585,2.3432,2.3201,2.2591,2.2375,2.27,2.2967,2.3406,2.397,2.4592,2.5057,2.5304,2.5957,2.6365,2.6596,2.7643,2.8015,3.632,3.6492,3.6492,3.6492,3.6492,3.6461,3.6368,0.0,0.0,0.0,0.0,0.0,0.0,3.5473,3.5458,3.5707,3.62,3.6801,3.7415,3.7415,3.6832,3.5537,3.53,3.4715,3.3435,3.3309,3.3309,3.3309,3.3309,3.3134,3.2738,3.2997,3.2207,3.0143,3.0371,2.9975,2.8779,2.7951,2.7287,2.6808,2.6628,2.6351,2.6042,2.5852,2.5757,2.5674,2.5425,2.5244,2.5118,2.5061,2.5033,2.5005,2.5005,2.5005,2.5005,2.5005,2.5005,2.5005,2.5005,2.5005,2.5005,2.5005,2.5005,2.491,2.438,2.4516,2.4883,2.4978,2.4639,2.4069,2.3391,2.4028,2.4435,2.2712,2.3621,2.4598,2.3567,2.4204,2.4856,2.4326,2.4666,2.4842,2.4326,2.4231,2.4231,2.4231,2.4231,2.4463,2.505,2.5146,2.4969,2.4532,2.4957,2.5066,2.4559,2.4973,2.4813,2.3803,2.3559,2.349,2.3586,2.4202,2.4782,2.5326,2.5423,2.5759,2.6275,2.6837,2.7387,2.789,2.8522,2.8818,3.646,3.6492,3.6492,3.6492,3.6492,3.6338,3.5768,0.0,0.0,0.0,0.0,0.0,0.0,3.5704,3.5774,3.6988,3.7243,3.7354,3.7494,3.6959,3.6295,3.5489,3.4841,3.4162,3.3372,3.3309,3.3309,3.3309,3.3309,3.3282,3.3187,3.2714,3.1994,3.1024,3.0516,2.9871,2.9046,2.8137,2.7565,2.7373,2.6901,2.6692,2.6718,2.6363,2.631,2.6508,2.6122,2.5892,2.5729,2.5342,2.509,2.5005,2.5005,2.5005,2.5005,2.5005,2.5005,2.5005,2.5005,2.5005,2.5005,2.5005,2.5005,2.4991,2.4896,2.4584,2.4326,2.4869,2.4937,2.4625,2.3499,2.3716,2.3892,2.2617,2.3295,2.4177,2.4001,2.4502,2.4978,2.4883,2.4951,2.4978,2.4883,2.4869,2.4869,2.4869,2.4869,2.5065,2.5688,2.5757,2.5892,2.6258,2.6383,2.6397,2.6311,2.6376,2.6359,2.6153,2.5211,2.4865,2.5398,2.6046,2.6656,2.7265,2.7874,2.8239,2.835,2.849,2.86,2.8639,2.8795,2.8873,3.5429,3.5429,3.5521,3.5861,3.6215,3.6446,3.6214,3.6198,0.0,0.0,0.0,0.0,0.0,3.5859,3.6279,3.7336,3.751,3.7368,3.6959,3.6598,3.5982,3.492,3.4494,3.4036,3.3372,3.3309,3.3309,3.3309,3.2945,3.2766,3.2766,3.2076,3.1381,3.067,3.0378,2.9848,2.9114,2.8685,2.8319,2.8036,2.7799,2.76,2.7424,2.7159,2.7082,2.7119,2.664,2.631,2.6096,2.5578,2.5272,2.5118,2.5397,2.5342,2.5118,2.5118,2.5061,2.5005,2.5005,2.5202,2.5481,2.5481,2.555,2.5591,2.5495,2.5122,2.4723,2.4847,2.471,2.4299,2.3432,2.3649,2.3783,2.2531,2.3255,2.4163,2.4034,2.4586,2.509,2.5005,2.5005,2.5005,2.5005,2.5286,2.5481,2.5481,2.5729,2.6027,2.6283,2.6336,2.6443,2.6678,2.6704,2.673,2.6797,2.7067,2.7133,2.6823,2.6218,2.6191,2.6912,2.715,2.7585,2.8277,2.8636,2.8818,2.8842,2.8873,2.892,2.8967,2.8982,2.9013,3.4505,3.4505,3.4628,3.5152,0.0,3.6153,3.6414,3.6382,0.0,0.0,0.0,0.0,0.0,3.62,3.6848,3.7415,3.7368,3.7054,3.6472,3.6108,3.5521,3.4431,3.4146,3.3862,3.3356,3.3166,3.3056,3.3056,3.2434,3.2054,3.2054,3.1365,3.0733,3.022,3.0046,2.9674,2.9114,2.9098,2.8959,2.8646,2.855,2.8367,2.8134,2.7953,2.783,2.778,2.7246,2.6875,2.6602,2.6084,2.5757,2.5591,2.5961,2.5879,2.5536,2.5439,2.5411,2.537,2.53,2.5619,2.6096,2.6096,2.6163,2.6215,2.6109,2.5852,2.5521,2.5302,2.4989,2.4542,2.3771,2.4019,2.4194,2.3068,2.375,2.4575,2.4371,2.4973,2.5508,2.5425,2.5398,2.5398,2.5398,2.5783,2.6096,2.6096,2.6443,2.6756,2.686,2.6912,2.699,2.7119,2.7185,2.7236,2.7352,2.7705,2.778,2.7399,2.7261,2.7464,2.8076,2.8027,2.8238,2.8803,2.885,2.8897,2.8943,2.8943,2.899,2.9098,2.9098,2.9098,3.4505,3.4505,3.452,3.4566,3.4685,3.5004,3.5639,3.5473,0.0,3.5247,0.0,0.0,3.6219,3.6927,3.7447,3.7494,3.6927,3.6456,3.6408,3.5284,3.4399,3.4304,3.3751,3.3356,3.3309,3.275,3.237,3.237,3.1681,3.1286,3.1286,3.0638,3.0251,3.0204,2.9548,2.9146,2.9098,2.9098,2.9091,2.9052,2.8669,2.8606,2.8811,2.8494,2.8477,2.8684,2.8213,2.7854,2.758,2.7148,2.6823,2.6599,2.664,2.6625,2.6561,2.6162,2.6269,2.652,2.6149,2.6295,2.6625,2.6625,2.6651,2.6651,2.6666,2.664,2.6599,2.6567,2.6527,2.6226,2.5011,2.5131,2.542,2.4771,2.5137,2.5593,2.5561,2.6121,2.6573,2.6573,2.6573,2.6573,2.6573,2.6599,2.6625,2.6625,2.6678,2.6886,2.7388,2.754,2.783,2.8389,2.8573,2.866,2.866,2.87,2.8716,2.8764,2.8692,2.866,2.8747,2.8795,2.8834,2.8881,2.9029,2.9075,2.9075,2.9075,2.9075,2.9098,2.9098,2.9098,3.3183,3.349,3.3842,3.3973,3.4102,0.0,0.0,3.5839,3.5951,3.6508,3.6661,3.6643,3.644,3.6295,3.6184,3.6184,3.5963,3.5631,3.5157,3.4636,3.4146,3.3719,3.3451,3.3309,3.3309,3.2703,3.2291,3.2291,3.1248,3.0575,3.0575,2.9896,2.9532,2.9532,2.924,2.9098,2.9098,2.9098,2.9098,2.9098,2.8959,2.892,2.9013,2.8889,2.8889,2.8951,2.8527,2.8231,2.8036,2.7565,2.7185,2.6927,2.6875,2.6979,2.7144,2.6745,2.664,2.6678,2.6534,2.6782,2.7195,2.7287,2.7352,2.7367,2.7312,2.7082,2.6787,2.6606,2.6885,2.6912,2.5729,2.528,2.5053,2.4758,2.4978,2.5326,2.553,2.623,2.6797,2.6704,2.6704,2.6704,2.6704,2.6964,2.7236,2.7312,2.7655,2.7993,2.8268,2.8341,2.8477,2.8684,2.8811,2.8865,2.8865,2.8928,2.8998,2.9013,2.8897,2.8865,2.8975,2.892,2.8943,2.9013,2.9075,2.9098,2.9098,2.9098,2.9098,2.9098,2.9098,2.9098,3.2453,3.2835,3.3336,3.3665,0.0,0.0,3.573,3.6003,3.6243,3.7291,3.7291,3.7006,3.6487,3.5853,3.5394,3.5394,3.5189,3.4873,3.4367,3.4115,3.3814,3.3356,3.3103,3.2977,3.2977,3.2181,3.1722,3.1943,3.0638,2.9943,3.0188,2.9501,2.9098,2.9098,2.9098,2.9098,2.9098,2.9098,2.9098,2.9098,2.9098,2.9098,2.9098,2.9098,2.9098,2.9075,2.8803,2.8606,2.8472,2.8085,2.783,2.762,2.753,2.763,2.7805,2.7363,2.721,2.7225,2.7097,2.7403,2.7854,2.7944,2.8048,2.8113,2.8057,2.777,2.7415,2.7212,2.7457,2.757,2.655,2.5799,2.5263,2.5176,2.5302,2.5499,2.5748,2.6626,2.7352,2.7236,2.7251,2.7251,2.7251,2.758,2.7879,2.7968,2.8365,2.8684,2.8794,2.8826,2.885,2.8873,2.8936,2.8967,2.8967,2.9052,2.9098,2.9098,2.8967,2.8967,2.9075,2.9013,2.9013,2.9098,2.9098,2.9098,2.9098,2.9098,2.9098,2.9098,2.9098,2.9098,3.2605,3.2746,3.3068,3.3736,0.0,0.0,3.5886,3.5783,3.5789,3.7225,3.6911,3.6421,3.6421,3.5837,3.5391,3.5391,3.479,3.4315,3.4273,3.3719,3.3309,3.3293,3.2703,3.2291,3.2276,3.1026,3.0464,3.116,2.9888,2.9414,3.0157,2.9501,2.9098,2.9098,2.9098,2.9098,2.9098,2.9098,2.9098,2.9098,2.9098,2.9098,2.9098,2.9098,2.9098,2.9098,2.9098,2.9013,2.8904,2.8904,2.8865,2.8794,2.8794,2.8708,2.8549,2.8076,2.8116,2.8348,2.794,2.8162,2.8597,2.8597,2.8684,2.8794,2.8794,2.8708,2.8597,2.8597,2.8517,2.8242,2.7565,2.6888,2.6402,2.6402,2.6402,2.6402,2.6418,2.7457,2.8411,2.8411,2.8411,2.8411,2.8411,2.8517,2.8597,2.8597,2.8708,2.8794,2.8794,2.885,2.8951,2.9075,2.9098,2.9098,2.9098,2.9098,2.9098,2.9098,2.9098,2.9098,2.9098,2.9098,2.9098,2.9098,2.9098,2.9098,2.9098,2.9098,2.9098,2.9098,2.9098,2.9098,3.2033,3.273,3.3427,3.275,0.0,0.0,0.0,3.5772,0.0,0.0,3.7394,3.6826,3.6826,3.5803,3.4903,3.4655,3.4375,3.4076,3.3778,3.3472,3.3119,3.2655,3.2418,3.2102,3.1571,3.0717,3.0283,3.048,2.9619,2.9193,2.9398,2.9225,2.9098,2.9098,2.9098,2.9098,2.9098,2.9098,2.9098,2.9098,2.9098,2.9098,2.9098,2.9098,2.9098,2.9098,2.9098,2.9075,2.9029,2.8943,2.8897,2.8865,2.8826,2.8771,2.8708,2.8486,2.8525,2.8652,2.8323,2.8444,2.8747,2.8747,2.8771,2.8818,2.8858,2.8811,2.8708,2.8636,2.8232,2.7783,2.7465,2.6518,2.5749,2.6204,2.6401,2.6607,2.714,2.7992,2.8676,2.8676,2.8676,2.8676,2.8676,2.8723,2.8755,2.8803,2.885,2.874,2.836,2.8327,2.8349,2.8395,2.841,2.86,2.9067,2.9098,2.9098,2.9098,2.9098,2.9098,2.9098,2.9098,2.9098,2.9098,2.9098,2.9098,2.9098,2.9098,2.9098,2.9098,2.9098,2.9098,3.2313,3.292,3.3583,3.3313,3.4186,3.524,3.5704,3.6222,3.683,3.759,3.711,3.6572,3.6572,3.5587,3.4738,3.4537,3.4415,3.4259,3.3873,3.3438,3.3087,3.2821,3.2,3.1406,3.1214,3.0338,2.988,3.0188,2.9532,2.9225,2.9532,2.9256,2.9098,2.9098,2.9098,2.9098,2.9098,2.9098,2.9098,2.9098,2.9098,2.9098,2.9098,2.9098,2.9098,2.9098,2.9098,2.9098,2.9075,2.9013,2.899,2.8967,2.8928,2.8897,2.8834,2.8748,2.874,2.8771,2.8604,2.8684,2.8834,2.8834,2.8709,2.8536,2.8573,2.8316,2.8037,2.7952,2.7565,2.7086,2.6747,2.6031,2.5546,2.6195,2.6416,2.6669,2.7365,2.8155,2.8708,2.8708,2.8771,2.8794,2.8794,2.8826,2.8764,2.8536,2.8315,2.8068,2.7747,2.7936,2.8,2.7731,2.7936,2.8158,2.8277,2.8309,2.8419,2.8672,2.8688,2.8814,2.9098,2.9098,2.9098,2.9098,2.9098,2.9098,2.9098,2.9098,2.9098,2.9098,2.9098,2.9098,3.3018,3.3166,3.3604,3.4652,3.501,3.5459,3.6612,3.6854,3.6862,3.6961,3.6489,3.6048,3.6048,3.5433,3.4911,3.4904,3.4864,3.4761,3.4407,3.36,3.3112,3.3335,3.1505,3.0425,3.0946,2.9856,2.9367,3.0062,2.9485,2.9382,3.0062,2.9446,2.9098,2.9098,2.9098,2.9098,2.9098,2.9098,2.9098,2.9098,2.9098,2.9098,2.9098,2.9098,2.9098,2.9098,2.9098,2.9098,2.9098,2.9098,2.9098,2.9098,2.9098,2.9029,2.8904,2.8904,2.8865,2.8818,2.8794,2.8858,2.8904,2.8904,2.8556,2.8094,2.8094,2.7554,2.6916,2.6895,2.6695,2.6295,2.5675,2.5474,2.5592,2.6277,2.644,2.6648,2.7388,2.8116,2.8645,2.8645,2.8732,2.8803,2.8764,2.8787,2.8606,2.8009,2.7501,2.7194,2.7194,2.7668,2.7778,2.7178,2.7589,2.7715,2.7225,2.7146,2.7383,2.8047,2.8094,2.8379,2.8988,2.9067,2.9098,2.9098,2.9098,2.9098,2.9098,2.9098,2.9098,2.9098,2.9098,2.9098,3.2405,3.3057,0.0,3.3525,3.4475,3.5696,3.6481,3.6536,3.6655,3.7424,3.7386,3.717,3.717,3.6498,3.5881,3.5633,3.5498,3.5299,3.4904,3.3866,3.2966,3.2393,3.1158,3.0133,2.9588,2.9288,2.9161,2.9319,2.9193,2.9161,2.9319,2.9193,2.9098,2.9098,2.9098,2.9098,2.9098,2.9098,2.9098,2.9098,2.9098,2.9098,2.9098,2.9098,2.9098,2.9098,2.9098,2.9098,2.9098,2.9098,2.9098,2.9098,2.9098,2.9075,2.9052,2.8943,2.8943,2.8998,2.8865,2.892,2.9052,2.8943,2.8556,2.8094,2.8094,2.7598,2.7034,2.6932,2.6444,2.591,2.5716,2.5222,2.5098,2.6343,2.672,2.7114,2.8318,2.8802,2.8982,2.8982,2.9021,2.8871,2.8343,2.8271,2.8207,2.8065,2.7946,2.7873,2.7873,2.7557,2.7257,2.713,2.672,2.6846,2.7794,2.7399,2.7383,2.8047,2.8094,2.8158,2.8316,2.8814,2.9098,2.9098,2.9098,2.9098,2.9098,2.9098,2.9098,2.9098,2.9098,2.9098,3.2746,3.3201,0.0,3.3924,0.0,3.6022,3.6393,3.6427,3.6542,3.6989,3.7006,3.6943,3.6943,3.6284,3.5704,3.5535,3.5164,3.4738,3.433,3.3423,3.2601,3.2196,3.0949,3.0007,2.9752,2.935,2.9098,2.9098,2.9098,2.9098,2.9098,2.9098,2.9098,2.9098,2.9098,2.9098,2.9098,2.9098,2.9098,2.9098,2.9098,2.9098,2.9098,2.9098,2.9098,2.9098,2.9098,2.9098,2.9098,2.9098,2.9098,2.9098,2.9098,2.9098,2.9075,2.9013,2.9052,2.9091,2.8975,2.8998,2.9075,2.9013,2.8358,2.762,2.762,2.6909,2.6088,2.601,2.5664,2.532,2.529,2.4987,2.4972,2.6056,2.6579,2.7167,2.856,2.8936,2.899,2.899,2.8807,2.8521,2.8158,2.7541,2.7083,2.7083,2.7083,2.7083,2.7083,2.7383,2.7462,2.713,2.7036,2.7036,2.7083,2.7099,2.7257,2.7604,2.762,2.7905,2.8553,2.8616,2.8767,2.9098,2.9098,2.9098,2.9098,2.9098,2.9098,2.9098,2.9098,2.8925,3.3166,3.3286,3.3696,3.4823,3.5661,3.6237,3.6301,3.6402,3.6482,3.6343,3.6343,3.6343,3.6343,3.5739,3.5258,3.5258,3.4599,3.3999,3.3666,3.2873,3.2307,3.2314,3.0865,2.9964,3.0264,2.9601,2.9121,2.9098,2.9098,2.9098,2.9098,2.9098,2.9098,2.9098,2.9098,2.9098,2.9098,2.9098,2.9098,2.9098,2.9098,2.9098,2.9098,2.9098,2.9098,2.9098,2.9098,2.9098,2.9098,2.9098,2.9098,2.9098,2.9098,2.9098,2.9098,2.9098,2.9098,2.9098,2.9098,2.9098,2.9098,2.9098,2.8183,2.713,2.7241,2.6219,2.5049,2.5286,2.519,2.5026,2.5152,2.5204,2.5345,2.5947,2.6543,2.7255,2.8428,2.881,2.8943,2.8943,2.839,2.7921,2.7921,2.6751,2.5914,2.6151,2.6198,2.6277,2.6514,2.7446,2.7889,2.7336,2.7668,2.7494,2.6451,2.6814,2.7146,2.7273,2.7273,2.7778,2.8877,2.8505,2.8537,2.9098,2.9098,2.9098,2.9098,2.9098,2.9098,2.9098,2.8988,2.8632,3.2592,0.0,3.3597,0.0,3.57,3.5941,3.6237,3.6402,3.6502,3.6482,3.6582,3.6623,3.6502,3.5922,3.5461,3.5461,3.474,3.4159,3.4103,3.3117,3.2371,3.2306,3.1023,3.0071,2.9911,2.9496,2.9236,2.9098,2.9098,2.9098,2.9098,2.9098,2.9098,2.9098,2.9098,2.9098,2.9098,2.9098,2.9098,2.9098,2.9098,2.9098,2.9098,2.9098,2.9098,2.9098,2.9098,2.9098,2.9098,2.9098,2.9098,2.9098,2.9098,2.9098,2.9098,2.9098,2.9098,2.9098,2.9098,2.9098,2.9098,2.9098,2.8183,2.7209,2.7778,2.6583,2.5238,2.6467,2.6335,2.6004,2.6635,2.6793,2.6825,2.6919,2.7456,2.7955,2.8144,2.8665,2.9075,2.9075,2.8088,2.7225,2.7225,2.6077,2.5555,2.6767,2.6957,2.7362,2.8546,2.8347,2.8063,2.7968,2.7525,2.7383,2.7778,2.7383,2.7352,2.7921,2.7968,2.8047,2.8221,2.8726,2.9019,2.9098,2.9098,2.9098,2.9098,2.9098,2.9098,2.9098,2.8505,2.8189,3.2396,3.2746,3.3435,3.4908,3.5481,3.5788,3.6216,3.6444,3.6602,3.6523,3.6687,3.6826,3.6643,3.6,3.5362,3.4944,3.4175,3.3477,3.2987,3.2455,3.2023,3.1786,3.1123,3.0535,3.0065,2.9744,2.9493,2.9236,2.9144,2.9098,2.9098,2.9098,2.9098,2.9098,2.9098,2.9098,2.9098,2.9098,2.9098,2.9098,2.9098,2.9098,2.9098,2.9098,2.9098,2.9098,2.9098,2.9098,2.9098,2.9098,2.9098,2.9098,2.9098,2.9098,2.9098,2.9098,2.9098,2.9098,2.9098,2.8846,2.8553,2.8553,2.7889,2.7162,2.7446,2.6893,2.6314,2.6925,2.6878,2.6688,2.702,2.7099,2.7099,2.7099,2.7604,2.8094,2.8094,2.8632,2.8988,2.8616,2.7762,2.6972,2.6562,2.5961,2.5772,2.6388,2.7162,2.7873,2.8474,2.8616,2.8656,2.8656,2.8388,2.8205,2.811,2.8173,2.8205,2.811,2.8094,2.8268,2.8625,2.8561,2.8726,2.9098,2.9098,2.9098,2.9098,2.9098,2.9098,2.9098,2.8798,2.8474,3.1985,3.2247,3.2683,3.4178,3.4883,3.5401,3.6041,3.6464,3.6705,3.6606,3.6809,3.6948,3.6806,3.5963,3.5126,3.4587,3.3608,3.2717,3.2071,3.193,3.1785,3.1487,3.1259,3.0945,3.0489,3.0113,2.9766,2.9448,2.9259,2.9137,2.9098,2.9098,2.9098,2.9098,2.9098,2.9098,2.9098,2.9098,2.9098,2.9098,2.9098,2.9098,2.9098,2.9098,2.9098,2.9098,2.9098,2.9098,2.9098,2.9098,2.9098,2.9098,2.9098,2.9098,2.9098,2.9098,2.9098,2.9098,2.9098,2.8767,2.8347,2.8347,2.7905,2.7383,2.7573,2.7383,2.7178,2.7525,2.7494,2.7399,2.7551,2.762,2.7573,2.7399,2.7873,2.8347,2.8347,2.8735,2.8956,2.8458,2.781,2.7178,2.6625,2.6388,2.634,2.6514,2.7431,2.8158,2.8331,2.8783,2.9098,2.9098,2.9098,2.8893,2.841,2.8798,2.8893,2.8395,2.8347,2.8584,2.9082,2.8609,2.86,2.9098,2.9098,2.9098,2.9098,2.9098,2.9098,2.9098,2.8925,2.8584,3.1097,3.0902,3.0974,3.2835,3.375,3.4482,3.565,3.6367,3.6788,3.6788,3.6908,3.7007,3.6987,3.5759,3.474,3.4688,3.3317,3.2249,3.2179,3.202,3.1894,3.1876,3.1524,3.1237,3.1064,3.0514,3.0081,2.9788,2.947,2.9236,2.9098,2.9098,2.9098,2.9098,2.9098,2.9098,2.9098,2.9098,2.9098,2.9098,2.9098,2.9098,2.9098,2.9098,2.9098,2.9098,2.9098,2.9098,2.9098,2.9098,2.9098,2.9098,2.9098,2.9098,2.9098,2.9098,2.9098,2.9098,2.9098,2.9082,2.9051,2.9051,2.8577,2.8173,2.8798,2.8104,2.7383,2.864,2.853,2.8189,2.883,2.9004,2.883,2.8189,2.8568,2.9051,2.9051,2.9082,2.9098,2.9051,2.8521,2.8031,2.8,2.7462,2.7257,2.7889,2.8047,2.8331,2.8972,2.9082,2.9098,2.9098,2.9098,2.9098,2.9051,2.9082,2.9098,2.9051,2.9051,2.9067,2.9098,2.9067,2.9067,2.9098,2.9098,2.9098,2.9098,2.9098,2.9098,2.9082,2.8458,2.8126,3.0408,3.0498,3.082,3.2255,3.3443,3.4435,3.5215,3.6121,3.6809,3.6809,3.6908,3.7007,3.7007,3.6127,3.5249,3.4776,3.3756,3.2844,3.2266,3.2144,3.2037,3.1912,3.1766,3.1562,3.1276,3.0962,3.0576,3.0087,2.9804,2.9515,2.9236,2.9144,2.9098,2.9098,2.9098,2.9098,2.9098,2.9098,2.9098,2.9098,2.9098,2.9098,2.9098,2.9098,2.9098,2.9098,2.9098,2.9098,2.9098,2.9098,2.9098,2.9098,2.9098,2.9098,2.9098,2.9098,2.9098,2.9098,2.9098,2.8814,2.8474,2.8474,2.83,2.8142,2.8395,2.8419,2.8483,2.8972,2.8925,2.8798,2.9035,2.9098,2.9035,2.8798,2.8925,2.9098,2.9098,2.9098,2.9098,2.9098,2.8568,2.8094,2.8094,2.7889,2.7826,2.8047,2.8474,2.883,2.9082,2.9098,2.9098,2.9098,2.9098,2.9098,2.9098,2.9098,2.9098,2.9098,2.9098,2.9098,2.9098,2.9098,2.9098,2.9098,2.9403,2.9403,2.9098,2.9098,2.9098,2.9098,2.8846,2.8901,2.9555,0.0,0.0,3.1804,3.2784,3.3741,3.5053,3.5852,3.6417,3.6779,3.6948,3.7007,3.7007,3.6338,3.5547,3.4811,3.3828,3.2932,3.2337,3.2232,3.2144,3.1984,3.193,3.1785,3.1504,3.1295,3.0985,3.0551,3.0156,2.9804,2.9493,2.9282,2.9144,2.9098,2.9098,2.9098,2.9098,2.9098,2.9098,2.9098,2.9098,2.9098,2.9098,2.9098,2.9098,2.9098,2.9098,2.9098,2.9098,2.9098,2.9098,2.9098,2.9098,2.9098,2.9098,2.9098,2.9098,2.9098,2.9098,2.8798,2.8442,2.8442,2.8442,2.8442,2.8442,2.8735,2.9098,2.9098,2.9098,2.9098,2.9098,2.9098,2.9098,2.9098,2.9098,2.9098,2.9098,2.9098,2.9098,2.9098,2.8735,2.8442,2.8442,2.8442,2.8442,2.8442,2.8798,2.9098,2.9098,2.9098,2.9098,2.9098,2.9098,2.9098,2.9098,2.9098,2.9098,2.9098,2.9098,2.9098,2.9098,2.9243,2.9335,2.9335,2.981,2.9881,2.9566,2.9425,2.9266,2.9167,2.9266,2.9589,0.0,0.0,0.0,3.1324,3.1667,3.2317,3.5062,3.55,3.5653,3.6718,3.6952,3.6952,3.697,3.6319,3.5547,3.4846,3.3441,3.2423,3.2423,3.2319,3.2214,3.2143,3.2018,3.1893,3.1818,3.1504,3.1237,3.1103,3.0551,3.0065,2.981,2.947,2.9236,2.9098,2.9098,2.9098,2.9098,2.9098,2.9098,2.9098,2.9098,2.9098,2.9098,2.9098,2.9098,2.9098,2.9098,2.9098,2.9098,2.9098,2.9098,2.9082,2.9098,2.9098,2.9082,2.9098,2.9098,2.9098,2.9098,2.9098,2.9098,2.9098,2.9098,2.9098,2.9098,2.9098,2.9098,2.9098,2.9098,2.9098,2.9098,2.9098,2.9098,2.9098,2.9098,2.9098,2.9098,2.9098,2.9098,2.9098,2.9098,2.9098,2.9098,2.9098,2.9098,2.9098,2.9098,2.9098,2.9098,2.9098,2.9098,2.9098,2.9098,2.9098,2.9098,2.9098,2.9098,2.9121,2.9121,2.9121,2.9144,2.9566,2.9815,2.9815,3.0288,3.0518,3.0497,3.0032,2.9655,2.9335,2.9677,3.0097,2.8415,0.0,0.0,0.0,0.0,0.0,3.2824,3.359,3.436,3.5277,3.549,3.5725,3.6501,3.5966,3.5453,3.5492,3.4196,3.3195,3.3213,3.316,3.3089,3.2927,3.2855,3.2573,3.187,3.1504,3.1181,3.0888,3.0468,3.0017,2.9614,2.9305,2.9144,2.9098,2.9098,2.9098,2.9098,2.9098,2.9098,2.9098,2.9098,2.9098,2.9098,2.9098,2.9098,2.9098,2.9098,2.9098,2.9098,2.9098,2.8798,2.8426,2.8909,2.8798,2.8442,2.8925,2.9098,2.9098,2.9098,2.9098,2.9098,2.9098,2.9098,2.9098,2.9098,2.9098,2.9098,2.9098,2.9098,2.9098,2.9098,2.9098,2.9098,2.9098,2.9098,2.9098,2.9098,2.9098,2.9098,2.9098,2.9098,2.9098,2.9098,2.9098,2.9098,2.9098,2.9098,2.9098,2.9098,2.9098,2.9098,2.9098,2.9098,2.9098,2.9098,2.9098,2.9243,2.9589,2.9611,2.9766,3.0097,3.0246,3.0309,3.0309,3.0707,3.0808,3.0563,3.0377,3.0267,3.0182,3.0563,3.0808,2.8149,0.0,0.0,2.9922,0.0,0.0,3.2074,3.2547,3.3148,3.4466,3.4789,3.5137,3.6222,3.6063,3.5746,3.5538,3.4737,3.4133,3.402,3.3949,3.3858,3.371,3.3691,3.3442,3.2821,3.2154,3.1676,3.1436,3.0654,2.9973,2.9434,2.9229,2.9098,2.9098,2.9098,2.9098,2.9098,2.9098,2.9098,2.9098,2.9098,2.9098,2.9098,2.9098,2.9098,2.9098,2.9098,2.9098,2.9082,2.8798,2.8458,2.8126,2.8537,2.8442,2.8173,2.8846,2.9098,2.9098,2.9098,2.9098,2.9098,2.9098,2.9098,2.9098,2.9098,2.9098,2.9098,2.9098,2.9098,2.9098,2.9098,2.9098,2.9098,2.9098,2.9098,2.9098,2.9098,2.9098,2.9098,2.9098,2.9098,2.9098,2.9098,2.9098,2.9098,2.9098,2.9098,2.9098,2.9098,2.9098,2.9098,2.9098,2.9098,2.9167,2.938,2.9403,2.9589,3.0054,3.0097,3.0225,3.0497,3.0662,3.0747,3.0747,3.1162,3.1295,3.1103,3.0848,3.0747,3.0764,3.1004,3.1201,2.7755,2.8231,0.0,3.0076,2.9973,0.0,3.194,3.1858,3.1888,3.3741,3.4201,3.4631,3.5719,3.6107,3.5959,3.5087,3.5046,3.5031,3.4711,3.4588,3.4532,3.4451,3.4471,3.4397,3.4133,3.3146,3.2462,3.2273,3.0924,2.9918,2.9439,2.9215,2.9098,2.9098,2.9098,2.9098,2.9098,2.9098,2.9098,2.9098,2.9098,2.9098,2.9098,2.9019,2.9035,2.9098,2.9019,2.8988,2.894,2.8347,2.8094,2.8094,2.8094,2.8094,2.8173,2.8846,2.9098,2.9098,2.9098,2.9098,2.9098,2.9098,2.9098,2.9098,2.9098,2.9098,2.9098,2.9098,2.9098,2.9098,2.9098,2.9098,2.9098,2.9098,2.9098,2.9098,2.9098,2.9098,2.9098,2.9098,2.9098,2.9098,2.9098,2.9098,2.9098,2.9098,2.9098,2.9098,2.9098,2.9098,2.9098,2.9098,2.9098,2.9289,2.975,2.9793,3.0032,3.0539,3.058,3.0601,3.0642,3.0985,3.1181,3.1181,3.1579,3.18,3.18,3.1372,3.1181,3.1181,3.1181,3.1391,2.7488,2.777,2.8238,2.8904,2.8983,0.0,3.0071,3.0172,3.0346,3.1399,3.1714,3.2172,3.3342,3.4155,3.4498,3.3987,3.4708,3.5125,3.4546,3.4717,3.4857,3.4737,3.5013,3.4909,3.4165,3.3645,3.2998,3.2122,3.0539,2.9797,3.0164,2.95,2.9098,2.9098,2.9098,2.9098,2.9098,2.9098,2.9098,2.9098,2.9098,2.9098,2.9082,2.8553,2.86,2.9082,2.8537,2.83,2.8284,2.8142,2.8094,2.8094,2.8094,2.8094,2.8173,2.8846,2.9098,2.9098,2.9098,2.9098,2.9098,2.9098,2.9098,2.9098,2.9098,2.9098,2.9098,2.9098,2.9098,2.9098,2.9098,2.9098,2.9098,2.9098,2.9098,2.9098,2.9098,2.9098,2.9098,2.9098,2.9098,2.9098,2.9098,2.9098,2.9098,2.9098,2.9098,2.9098,2.9098,2.9098,2.9098,2.9098,2.9098,2.9289,2.975,2.9793,3.014,3.0945,3.0985,3.1142,3.1523,3.1617,3.1671,3.1671,3.1746,3.18,3.18,3.1709,3.1671,3.1671,3.1671,3.1709,2.735,2.7524,2.777,2.8183,2.8448,0.0,0.0,2.9373,2.9739,3.0583,3.0574,3.0869,3.2426,3.284,3.3126,3.3626,3.4147,3.4409,3.4192,3.4706,3.5062,3.4996,3.5248,3.5198,3.4695,3.4021,3.309,3.1894,3.0667,3.0051,3.0299,2.954,2.9098,2.9098,2.9098,2.9098,2.9098,2.9098,2.9098,2.9098,2.9098,2.9098,2.9098,2.8735,2.8783,2.9082,2.8735,2.841,2.8094,2.8094,2.8094,2.8094,2.8094,2.8094,2.8173,2.8846,2.9098,2.9098,2.9098,2.9098,2.9098,2.9098,2.9098,2.9098,2.9098,2.9098,2.9098,2.9098,2.9098,2.9098,2.9098,2.9098,2.9098,2.9098,2.9098,2.9098,2.9098,2.9098,2.9098,2.9098,2.9098,2.9098,2.9098,2.9098,2.9098,2.9098,2.9098,2.9098,2.9098,2.9098,2.919,2.9425,2.9448,2.9705,3.0398,3.046,3.0727,3.1411,3.1449,3.1542,3.18,3.18,3.18,3.18,3.18,3.18,3.18,3.18,3.18,3.18,3.18,3.18,2.7196,2.7299,2.7361,2.7705,2.8052,2.8343,0.0,0.0,0.0,3.0161,2.9932,3.0099,3.1641,3.16,3.1687,3.2826,3.3031,3.3125,3.3383,3.4022,3.4602,3.4995,3.5191,3.5237,3.5138,3.425,3.3243,3.22,3.1262,3.072,3.0648,2.9809,2.9304,2.9304,2.9177,2.9098,2.9098,2.9098,2.9177,2.9304,2.9304,2.9304,2.9304,2.9161,2.9098,2.9098,2.8956,2.8616,2.811,2.8237,2.8221,2.8094,2.8094,2.8173,2.8363,2.8893,2.9098,2.9098,2.9098,2.9098,2.9098,2.9098,2.9098,2.9098,2.9098,2.9098,2.9098,2.9098,2.9098,2.9098,2.9098,2.9098,2.9098,2.9098,2.9098,2.9098,2.9098,2.9098,2.9098,2.9098,2.9098,2.9098,2.9098,2.9098,2.9098,2.9098,2.9098,2.9098,2.9098,2.9167,2.938,2.975,2.9881,3.0251,3.1044,3.1103,3.1295,3.1781,3.18,3.18,3.18,3.18,3.18,3.18,3.18,3.18,3.18,3.18,3.18,3.18,3.18,3.18,2.6858,2.6858,2.6963,2.7361,2.7488,2.77,2.8367,0.0,2.8708,2.9186,0.0,2.945,2.9791,0.0,0.0,3.0131,3.0596,3.1117,3.1604,3.1773,3.2466,3.4211,3.4682,3.4864,3.4857,3.4326,3.3981,3.3982,3.2738,3.2078,3.2233,3.0878,3.0093,3.0093,2.943,2.9098,2.9098,2.9098,2.9414,3.0093,3.0093,3.0093,3.0038,2.9398,2.9098,2.9067,2.8474,2.8173,2.8142,2.8735,2.8647,2.8094,2.8094,2.8474,2.9004,2.9082,2.9098,2.9098,2.9098,2.9098,2.9098,2.9098,2.9098,2.9098,2.9098,2.9098,2.9098,2.9098,2.9098,2.9098,2.9098,2.9098,2.9098,2.9098,2.9098,2.9098,2.9098,2.9098,2.9098,2.9098,2.9098,2.9098,2.9098,2.9098,2.9098,2.9098,2.9098,2.9098,2.9098,2.9454,2.9728,2.9793,3.0182,3.0605,3.1064,3.1103,3.1295,3.1781,3.18,3.18,3.18,3.18,3.18,3.18,3.18,3.18,3.18,3.18,3.18,3.18,3.18,3.18,2.6806,2.6806,2.6832,2.7015,2.7222,2.7463,2.78,2.8002,2.8255,2.8669,0.0,0.0,0.0,0.0,0.0,0.0,3.0359,3.0696,3.1308,3.133,3.1929,3.3636,3.3703,3.3738,3.4119,3.4031,3.3958,3.3942,3.3039,3.2482,3.2504,3.1417,3.078,3.078,3.0496,3.0314,3.0314,3.0314,3.0456,3.078,3.0394,3.0204,3.0172,2.9453,2.9098,2.9082,2.8798,2.8474,2.8142,2.8814,2.8688,2.8126,2.8537,2.8846,2.9098,2.9098,2.9098,2.9098,2.9098,2.9098,2.9098,2.9098,2.9098,2.9098,2.9098,2.9098,2.9098,2.9098,2.9098,2.9098,2.9098,2.9098,2.9098,2.9098,2.9098,2.9098,2.9098,2.9098,2.9098,2.9098,2.9098,2.9098,2.9098,2.9098,2.9098,2.9098,2.9098,2.919,2.947,2.9677,2.9989,3.0502,3.0727,3.1024,3.1485,3.1504,3.1579,3.18,3.18,3.18,3.18,3.18,3.18,3.18,3.18,3.18,3.18,3.18,3.18,3.18,3.18,3.18,2.6434,2.6504,2.6573,2.6736,2.7015,2.7273,2.7376,2.7585,2.7879,2.8271,2.7943,0.0,0.0,0.0,2.8376,2.9784,0.0,2.9951,3.0918,3.0813,3.1263,3.2974,3.2981,3.3048,3.3559,3.3797,3.3873,3.3658,3.3306,3.2992,3.2806,3.1962,3.1507,3.1507,3.1318,3.1198,3.1198,3.1198,3.1302,3.1507,3.1026,3.0678,3.0449,2.9904,2.9477,2.9098,2.9098,2.8814,2.841,2.8893,2.8798,2.8426,2.8909,2.9098,2.9098,2.9098,2.9098,2.9098,2.9098,2.9098,2.9098,2.9098,2.9098,2.9146,2.9335,2.9398,2.943,2.9619,2.9682,2.9682,2.9682,2.9682,2.9682,2.9682,2.954,2.9398,2.9398,2.924,2.9098,2.9098,2.9098,2.9098,2.9098,2.9098,2.9098,2.9098,2.9098,2.9266,2.9728,2.9903,3.0288,3.1024,3.1237,3.143,3.1781,3.18,3.18,3.18,3.18,3.18,3.18,3.18,3.18,3.18,3.18,3.18,3.18,3.18,3.18,3.18,3.18,3.18,2.547,2.5731,2.6006,2.6646,2.6806,2.691,2.7325,2.7401,2.7499,2.7839,2.7908,2.7908,2.7923,2.7406,2.7289,0.0,2.8023,0.0,0.0,2.9627,2.9975,3.2086,3.2908,3.3277,3.3293,3.3771,3.3924,3.3529,3.3857,3.3892,3.3497,3.2716,3.226,3.226,3.1571,3.1198,3.1198,3.1198,3.1555,3.226,3.2228,3.1864,3.1176,3.1135,3.0377,2.9098,2.9098,2.9098,2.9082,2.9098,2.9098,2.9082,2.9098,2.9098,2.9098,2.9098,2.9098,2.9098,2.9098,2.9098,2.9098,2.9098,2.9098,2.9225,2.9943,3.0172,3.0291,3.0954,3.1119,3.1119,3.1119,3.1119,3.1119,3.1119,3.0638,3.0172,3.0172,2.9611,2.9098,2.9098,2.9098,2.9098,2.9098,2.9098,2.9098,2.9098,2.9098,2.9266,2.9728,3.0204,3.0642,3.1064,3.1504,3.1781,3.18,3.18,3.18,3.18,3.18,3.18,3.18,3.18,3.18,3.18,3.18,3.18,3.18,3.18,3.18,3.18,3.18,3.18,2.4801,2.4909,2.5117,2.5827,2.5934,2.6023,2.6558,2.6353,2.6319,2.7187,2.7046,2.7006,2.7748,2.7707,0.0,0.0,0.0,2.8086,0.0,2.9517,3.0259,3.1428,3.2187,3.2639,3.2639,3.3284,3.3451,3.2876,3.3361,3.3642,3.3503,3.315,3.2945,3.2945,3.2724,3.2598,3.2598,3.2598,3.2708,3.2945,3.2513,3.2165,3.1912,3.1428,3.093,3.0456,3.0022,2.9817,2.9785,2.9304,2.9098,2.9098,2.9098,2.9098,2.9098,2.9098,2.9098,2.9098,2.9098,2.9098,2.9177,2.9674,2.9817,2.9959,3.0654,3.086,3.0923,3.116,3.1198,3.1198,3.1198,3.1198,3.1198,3.1198,3.1033,3.0733,3.0315,2.999,2.969,2.9193,2.9098,2.9213,2.9499,2.9566,2.9566,2.9566,2.9832,3.0166,3.0605,3.0788,3.1064,3.1523,3.1709,3.18,3.18,3.18,3.18,3.18,3.18,3.18,3.18,3.18,3.18,3.18,3.18,3.18,3.18,3.18,3.18,3.18,3.18,3.18,2.3995,2.4077,2.4234,2.4962,2.5069,2.5163,2.5696,2.554,2.5486,2.6249,2.6331,2.641,2.6976,2.7315,2.757,0.0,0.0,0.0,0.0,2.9349,3.0288,3.1103,3.1864,3.2386,3.2639,3.2923,3.3006,3.28,3.2958,3.317,3.3424,3.3361,3.3309,3.3309,3.3309,3.3309,3.3309,3.3309,3.3309,3.3293,3.285,3.2529,3.2276,3.1808,3.146,3.1151,3.048,3.0204,3.0141,2.9398,2.9098,2.9098,2.9098,2.9098,2.9098,2.9098,2.9098,2.9098,2.9098,2.9272,2.958,3.0062,3.0378,3.0686,3.1381,3.1586,3.1634,3.1887,3.1966,3.1966,3.1966,3.1966,3.1966,3.1966,3.176,3.146,3.1042,3.0887,3.06,2.9713,2.9793,2.9968,2.9886,3.0097,3.0208,3.0075,3.0309,3.0642,3.1044,3.1103,3.1276,3.1746,3.18,3.18,3.18,3.18,3.18,3.18,3.18,3.18,3.18,3.18,3.18,3.18,3.18,3.18,3.18,3.18,3.18,3.18,3.18,3.18]}]]